[[{"header":{"parameterUnit":"m.s-1","parameterCategory":1,"la1":30.6,"la2":29.2853,"lo1":-89.7004,"lo2":-87.6739,"dy":0.0162,"dx":0.0183,"nx":112,"ny":82,"refTime":"2023-05-22T00:00:00:Z","depth":0,"parameterNumber":2,"parameterNumberName":"U-component_of_WINDS"},"data":[0.0,0.0,0.0,0.0,0.0,0.0,0.0,0.0,0.0,0.0,0.0,0.0,0.0,0.0,0.0,0.0,0.0,0.0,0.0,0.0,0.0,0.0,0.0,0.0,0.0,0.0,0.0,0.0,0.0,0.0,0.0,0.0,0.0,0.0,0.0,0.0,0.0,0.0,0.0,0.0,0.0,0.0,0.0,0.0,0.0,0.0,0.0,0.0,0.0,0.0,0.0,0.0,0.0,0.0,0.0,0.0,0.0,0.0,0.0,0.0,0.0,0.0,0.0,0.0,0.0,0.0,0.0,0.0,0.0,0.0,0.0,0.0,0.0,0.0,0.0,0.0,0.0,0.0,0.0,0.0,0.0,0.0,0.0,0.0,0.0,0.0,0.0,0.0,0.0,0.0,0.0313,-0.1879,-0.2969,-0.3435,-0.3124,-0.148,0.0078,0.1488,0.0,0.0,0.0,0.0,0.0,0.0,0.0,0.0,0.0,0.0,0.0,0.0,0.0,0.0,0.0,0.0,0.0,0.0,0.0,0.0,0.0,0.0,0.0,0.0,0.0,0.0,0.0,0.0,0.0,0.0,0.0,0.0,0.0,0.0,0.0,0.0,0.0,0.0,0.0,0.0,0.0,0.0,0.0,0.0,0.0,0.0,0.0,0.0,0.0,0.0,0.0,0.0,0.0,0.0,0.0,0.0,0.0,0.0,0.0,0.0,0.0,0.0,0.0,0.0,0.0,0.0,0.0,0.0,0.0,0.0,0.0,0.0,0.0,0.0,0.0,0.0,0.0,0.0,0.0,0.0,0.0,0.0,0.0,0.0,0.0,0.0,0.0,0.0,0.0,0.0,0.0,0.0,0.0,0.0,0.0,0.0,0.0,0.0,0.0,0.0,0.0,0.0,0.0,0.0,-0.1878,-0.3984,-0.516,-0.5079,-0.3279,-0.2809,-0.1405,0.141,0.0,0.0,0.0,0.0,0.0,0.0,0.0,0.0,0.0,0.0,0.0,0.0,0.0,0.0,0.0,0.0,0.0,0.0,0.0,0.0,0.0,0.0,0.0,0.0,0.0,0.0,0.0,0.0,0.0,0.0,0.0,0.0,0.0,0.0,0.0,0.0,0.0,0.0,0.0,0.0,0.0,0.0,0.0,0.0,0.0,0.0,0.0,0.0,0.0,0.0,0.0,0.0,0.0,0.0,0.0,0.0,0.0,0.0,0.0,0.0,0.0,0.0,0.0,0.0,0.0,0.0,0.0,0.0,0.0,0.0,0.0,0.0,0.0,0.0,0.0,0.0,0.0,0.0,0.0,0.0,0.0,0.0,0.0,0.0,0.0,0.0,0.0,0.0,0.0,0.0,0.0,0.0,0.0,0.0,0.0,0.0,0.0,0.0,0.0,0.0,0.0,0.0,0.0,-0.2344,-0.3673,-0.4608,-0.5631,-0.5631,-0.4062,-0.3435,-0.2266,-0.0235,0.2262,0.0,0.0,0.0,0.0,0.0,0.0,0.0,0.0,0.0,0.0,0.0,0.0,0.0,0.0,0.0,0.0,0.0,0.0,0.0,0.0,0.0,0.0,0.0,0.0,0.0,0.0,0.0,0.0,0.0,0.0,0.0,0.0,0.0,0.0,0.0,0.0,0.0,0.0,0.0,0.0,0.0,0.0,0.0,0.0,0.0,0.0,0.0,0.0,0.0,0.0,0.0,0.0,0.0,0.0,0.0,0.0,0.0,0.0,0.0,0.0,0.0,0.0,0.0,0.0,0.0,0.0,0.0,0.0,0.0,0.0,0.0,0.0,0.0,0.0,0.0,0.0,0.0,0.0,0.0,0.0,0.0,0.0,0.0,0.0,0.0,0.0,0.0,0.0,0.0,0.0,0.0,0.0,0.0,0.0,0.0,0.0,0.0,0.0,0.0,0.0,0.0,0.0,-0.4217,-0.4766,-0.5079,-0.5786,-0.5867,-0.4766,-0.3982,-0.3047,-0.2035,-0.0391,0.0,0.0,0.0,0.0,0.0,0.0,0.0,0.0,0.0,0.0,0.0,0.0,0.0,0.0,0.0,0.0,0.0,0.0,0.0,0.0,0.0,0.0,0.0,0.0,0.0,0.0,0.0,0.0,0.0,0.0,0.0,0.0,0.0,0.0,0.0,0.0,0.0,0.0,0.0,0.0,0.0,0.0,0.0,0.0,0.0,0.0,0.0,0.0,0.0,0.0,0.0,0.0,0.0,0.0,0.0,0.0,0.0,0.0,0.0,0.0,0.0,0.0,0.0,0.0,0.0,0.0,0.0,0.0,0.0,0.0,0.0,0.0,0.0,0.0,0.0,0.0,0.0,0.0,0.0,0.0,0.0,0.0,0.0,0.0,0.0,0.0,0.0,0.0,0.0,0.0,0.0,0.0,0.0,0.0,0.0,0.0,0.0,0.0,0.0,0.0,0.0,0.0,-0.4686,-0.5079,-0.6103,-0.6261,-0.5867,-0.4766,-0.4608,-0.4139,-0.3046,-0.2888,0.0,0.0,0.0,0.0,0.0,0.0,0.0,0.0,0.0,0.0,0.0,0.0,0.0,0.0,0.0,0.0,0.0,0.0,0.0,0.0,0.0,0.0,0.0,0.0,0.0,0.0,0.0,0.0,0.0,0.0,0.0,0.0,0.0,0.0,0.0,0.0,0.0,0.0,0.0,0.0,0.0,0.0,0.0,0.0,0.0,0.0,0.0,0.0,0.0,0.0,0.0,0.0,0.0,0.0,0.0,0.0,0.0,0.0,0.0,0.0,0.0,0.0,0.0,0.0,0.0,0.0,0.0,0.0,0.0,0.0,0.0,0.0,0.0,0.0,0.0,0.0,0.0,0.0,0.0,0.0,0.0,0.0,0.0,0.0,0.0,0.0,0.0,0.0,0.0,0.0,0.0,0.0,0.0,0.0,0.0,0.0,0.0,0.0,0.0,0.0,0.0,0.0,-0.5079,-0.5079,-0.618,-0.6338,-0.6103,-0.5709,-0.5079,-0.453,-0.4139,0.0,0.0,0.0,0.0,0.0,0.0,0.0,0.0,0.0,0.0,0.0,0.0,0.0,0.0,0.0,0.0,0.0,0.0,0.0,0.0,0.0,0.0,0.0,0.0,0.0,0.0,0.0,0.0,0.0,0.0,0.0,0.0,0.0,0.0,0.0,0.0,0.0,0.0,0.0,0.0,0.0,0.0,0.0,0.0,0.0,0.0,0.0,0.0,0.0,0.0,0.0,0.0,0.0,0.0,0.0,0.0,0.0,0.0,0.0,0.0,0.0,0.0,0.0,0.0,0.0,0.0,0.0,0.0,0.0,0.0,0.0,0.0,0.0,0.0,0.0,0.0,0.0,0.0,0.0,0.0,0.0,0.0,0.0,0.0,0.0,0.0,0.0,0.0,0.0,0.0,0.0,0.0,0.0,0.0,0.0,0.0,0.0,0.0,0.0,0.0,0.0,0.0,-0.6103,-0.5631,-0.5473,-0.6257,-0.6338,-0.6338,-0.6338,-0.5628,-0.5237,-0.5237,0.0,0.0,0.0,0.0,0.0,0.0,0.0,0.0,0.0,0.0,0.0,0.0,0.0,0.0,0.0,0.0,0.0,0.0,0.0,0.0,0.0,0.0,0.0,0.0,0.0,0.0,0.0,0.0,0.0,0.0,0.0,0.0,0.0,0.0,0.0,0.0,0.0,0.0,0.0,0.0,0.0,0.0,0.0,0.0,0.0,0.0,0.0,0.0,0.0,0.0,0.0,0.0,0.0,0.0,0.0,0.0,0.0,0.0,0.0,0.0,0.0,0.0,0.0,0.0,0.0,0.0,0.0,0.0,0.0,0.0,0.0,0.0,0.0,0.0,0.0,0.0,0.0,0.0,0.0,0.0,0.0,0.0,0.0,0.0,0.0,0.0,0.0,0.0,0.0,0.0,0.0,0.0,0.0,0.0,0.0,0.0,0.0,0.0,0.0,0.0,0.0,0.0,-0.6338,-0.6261,-0.6261,-0.6261,-0.6338,-0.6338,-0.6338,-0.6338,-0.6338,0.0,0.0,0.0,0.0,0.0,0.0,0.0,0.0,0.0,0.0,0.0,0.0,0.0,0.0,0.0,0.0,0.0,0.0,0.0,0.0,0.0,0.0,0.0,0.0,0.0,0.0,0.0,0.0,0.0,0.0,0.0,0.0,0.0,0.0,0.0,0.0,0.0,0.0,0.0,0.0,0.0,0.0,0.0,0.0,0.0,0.0,0.0,0.0,0.0,0.0,0.0,0.0,0.0,0.0,0.0,0.0,0.0,0.0,0.0,0.0,0.0,0.0,0.0,0.0,0.0,0.0,0.0,0.0,0.0,0.0,0.0,0.0,0.0,0.0,0.0,0.0,0.0,0.0,0.0,0.0,0.0,0.0,0.0,0.0,0.0,0.0,0.0,0.0,0.0,0.0,0.0,0.0,0.0,0.0,0.0,0.0,0.0,0.0,0.0,0.0,0.0,0.0,0.0,-0.7246,-0.6086,-0.5473,-0.6183,-0.6338,-0.6338,-0.6338,-0.6338,-0.6567,-0.7326,0.0,0.0,0.0,0.0,0.0,0.0,0.0,0.0,0.0,0.0,0.0,0.0,0.0,0.0,0.0,0.0,0.0,0.0,0.0,0.0,0.0,0.0,0.0,0.0,0.0,0.0,0.0,0.0,0.0,0.0,0.0,0.0,0.0,0.0,0.0,0.0,0.0,0.0,0.0,0.0,0.0,0.0,0.0,0.0,0.0,0.0,0.0,0.0,0.0,0.0,0.0,0.0,0.0,0.0,0.0,0.0,0.0,0.0,0.0,0.0,0.0,0.0,0.0,0.0,0.0,0.0,0.0,0.0,0.0,0.0,0.0,0.0,0.0,0.0,0.0,0.0,0.0,0.0,0.0,0.0,0.0,0.0,0.0,0.0,0.0,0.0,0.0,0.0,0.0,0.0,0.0,0.0,0.0,0.0,0.0,0.0,0.0,0.0,0.0,0.0,0.0,0.0,-0.7706,-0.6395,-0.5702,-0.6791,-0.6872,-0.7022,-0.748,-0.7099,-0.7176,-0.7783,0.0,0.0,0.0,0.0,0.0,0.0,0.0,0.0,0.0,0.0,0.0,0.0,0.0,0.0,0.0,0.0,0.0,0.0,0.0,0.0,0.0,0.0,0.0,0.0,0.0,0.0,0.0,0.0,0.0,0.0,0.0,0.0,0.0,0.0,0.0,0.0,0.0,0.0,0.0,0.0,0.0,0.0,0.0,0.0,0.0,0.0,0.0,0.0,0.0,0.0,0.0,0.0,0.0,0.0,0.0,0.0,0.0,0.0,0.0,0.0,0.0,0.0,0.0,0.0,0.0,0.0,0.0,0.0,0.0,0.0,0.0,0.0,0.0,0.0,0.0,0.0,0.0,0.0,0.0,0.0,0.0,0.0,0.0,0.0,0.0,0.0,0.0,0.0,0.0,0.0,0.0,0.0,0.0,0.0,0.0,0.0,0.0,0.0,0.0,0.0,0.0,0.0,-0.8084,-0.7176,-0.6945,-0.7859,-0.7859,-0.8161,-0.9069,-0.8313,-0.7859,-0.7931,0.0,0.0,0.0,0.0,0.0,0.0,0.0,0.0,0.0,0.0,0.0,0.0,0.0,0.0,0.0,0.0,0.0,0.0,0.0,0.0,0.0,0.0,0.0,0.0,0.0,0.0,0.0,0.0,0.0,0.0,0.0,0.0,0.0,0.0,0.0,0.0,0.0,0.0,0.0,0.0,0.0,0.0,0.0,0.0,0.0,0.0,0.0,0.0,0.0,0.0,0.0,0.0,0.0,0.0,0.0,0.0,0.0,0.0,0.0,0.0,-2.854,-2.892,0.0,0.0,0.0,0.0,0.0,0.0,0.0,0.0,0.0,0.0,0.0,0.0,0.0,0.0,0.0,0.0,0.0,0.0,0.0,0.0,0.0,0.0,0.0,0.0,0.0,0.0,0.0,0.0,0.0,0.0,0.0,0.0,0.0,0.0,0.0,0.0,0.0,0.0,0.0,0.0,-1.0185,-0.9291,-0.877,-0.8993,-0.8237,-0.7859,-0.8084,-0.7936,-0.8161,-0.8917,-0.8998,0.0,0.0,0.0,0.0,0.0,0.0,0.0,0.0,0.0,0.0,0.0,0.0,0.0,0.0,0.0,0.0,0.0,0.0,0.0,0.0,0.0,0.0,0.0,0.0,0.0,0.0,0.0,0.0,0.0,0.0,0.0,0.0,0.0,0.0,0.0,0.0,0.0,0.0,0.0,0.0,0.0,0.0,0.0,0.0,0.0,0.0,0.0,0.0,0.0,0.0,0.0,0.0,0.0,0.0,0.0,0.0,0.0,0.0,0.0,-2.8743,-2.8983,0.0,0.0,0.0,0.0,0.0,0.0,0.0,0.0,0.0,0.0,0.0,0.0,0.0,0.0,0.0,0.0,0.0,0.0,0.0,0.0,0.0,0.0,0.0,0.0,0.0,0.0,0.0,0.0,0.0,0.0,0.0,0.0,0.0,0.0,0.0,0.0,0.0,0.0,0.0,0.0,-1.0858,-0.9895,-0.9523,-0.997,-0.9588,-0.9437,-0.989,-0.9513,-0.9437,-0.9965,-0.9593,0.0,0.0,0.0,0.0,0.0,0.0,0.0,0.0,0.0,0.0,0.0,0.0,0.0,0.0,0.0,0.0,0.0,0.0,0.0,0.0,0.0,0.0,0.0,0.0,0.0,0.0,0.0,0.0,0.0,0.0,0.0,0.0,0.0,0.0,0.0,0.0,0.0,0.0,0.0,0.0,0.0,0.0,0.0,0.0,0.0,0.0,0.0,0.0,0.0,0.0,0.0,0.0,0.0,-2.862,-2.8556,-2.857,-2.9125,-2.8704,-2.7469,-2.7748,-2.775,-2.7608,-2.8134,0.0,0.0,0.0,0.0,0.0,0.0,0.0,0.0,0.0,0.0,0.0,0.0,0.0,0.0,0.0,0.0,0.0,0.0,0.0,0.0,0.0,0.0,-1.5786,-1.4901,-1.4657,-1.4573,-1.4412,0.0,0.0,0.0,0.0,0.0,0.0,0.0,0.0,0.0,0.0,0.0,-1.1162,-1.0346,-1.0121,-1.0938,-1.0932,-1.1162,-1.1996,-1.1316,-1.0783,-1.0783,-1.004,-0.9669,0.0,0.0,0.0,0.0,0.0,0.0,0.0,0.0,0.0,0.0,0.0,0.0,0.0,0.0,0.0,0.0,0.0,0.0,0.0,0.0,0.0,0.0,0.0,0.0,0.0,0.0,0.0,0.0,0.0,0.0,0.0,0.0,-2.0605,-2.1886,0.0,0.0,0.0,0.0,0.0,0.0,0.0,0.0,0.0,0.0,0.0,0.0,0.0,-2.9129,-2.9002,-2.8247,-2.7855,-2.7855,-2.7162,-2.685,-2.685,-2.6914,-2.6845,-2.6658,-2.6684,0.0,-2.8486,-2.7986,0.0,0.0,0.0,0.0,0.0,0.0,0.0,0.0,0.0,0.0,0.0,0.0,0.0,0.0,0.0,0.0,0.0,0.0,0.0,0.0,0.0,0.0,-1.7009,-1.6935,-1.6854,-1.6609,-1.5703,-1.4734,-1.4092,-1.3905,-1.3749,-1.346,0.0,0.0,0.0,0.0,0.0,0.0,-1.215,-1.2003,-1.1929,-1.2077,-1.1316,-1.0864,-1.1013,-1.0864,-1.0783,-1.0783,-1.0708,-1.1013,-1.1848,-1.1093,0.0,0.0,0.0,0.0,0.0,0.0,0.0,0.0,0.0,0.0,0.0,0.0,0.0,0.0,0.0,0.0,0.0,0.0,0.0,0.0,0.0,0.0,0.0,0.0,0.0,0.0,0.0,0.0,0.0,-1.9923,-2.1155,-2.2627,-2.322,-2.4108,0.0,0.0,0.0,0.0,0.0,0.0,0.0,0.0,0.0,-2.8298,-2.8233,-2.8051,-2.7604,-2.7229,-2.704,-2.704,-2.6658,-2.6533,-2.6533,-2.6533,-2.6533,-2.6533,-2.6533,-2.6853,-2.7443,-2.7642,-2.8066,-2.8662,0.0,0.0,0.0,0.0,-2.6483,-2.5581,-2.4036,-2.322,-2.2627,-2.1088,0.0,0.0,0.0,0.0,0.0,0.0,0.0,-1.9116,-1.9036,-1.863,-1.8069,-1.7423,-1.7342,-1.718,-1.6683,-1.6044,-1.539,-1.4698,-1.4365,-1.4173,-1.3798,-1.3493,0.0,0.0,0.0,-1.2879,-1.2372,-1.2305,-1.2305,-1.2305,-1.1922,-1.162,-1.162,-1.162,-1.162,-1.162,-1.1087,-1.1013,-1.1465,-1.1013,-1.123,0.0,0.0,0.0,0.0,0.0,0.0,0.0,0.0,0.0,0.0,0.0,0.0,0.0,0.0,0.0,0.0,0.0,0.0,0.0,0.0,0.0,0.0,0.0,0.0,0.0,0.0,0.0,0.0,-2.0079,-2.1231,-2.2925,-2.3368,-2.4181,0.0,0.0,0.0,0.0,0.0,0.0,-2.862,-2.8684,-2.8298,-2.7417,-2.7417,-2.7095,-2.6533,-2.6533,-2.6533,-2.6533,-2.6533,-2.6533,-2.6533,-2.6533,-2.6533,-2.6533,-2.6533,-2.6533,-2.6521,-2.7162,-2.7484,-2.767,-2.767,-2.767,-2.7604,-2.704,-2.6658,-2.6233,-2.4181,-2.3514,-2.3147,-2.1231,-2.0566,-2.0566,-2.0566,0.0,0.0,0.0,0.0,-2.0401,-1.9599,-1.9441,-1.9204,-1.839,-1.8141,-1.8035,-1.762,-1.7375,-1.6748,-1.5416,-1.49,-1.4493,-1.394,-1.3542,0.0,-1.2445,-1.2879,-1.3098,-1.2372,-1.2305,-1.2305,-1.2305,-1.2305,-1.2305,-1.2305,-1.2305,-1.2305,-1.2305,-1.162,-1.1162,-1.1162,-1.1162,-1.131,-1.1527,0.0,0.0,0.0,0.0,0.0,0.0,0.0,0.0,0.0,0.0,0.0,0.0,0.0,0.0,0.0,0.0,0.0,0.0,0.0,0.0,0.0,0.0,0.0,0.0,0.0,0.0,0.0,0.0,0.0,-2.1952,-2.2925,0.0,0.0,0.0,0.0,-2.767,-2.767,-2.7736,-2.7736,-2.7802,-2.7417,-2.6589,-2.6589,-2.6521,-2.6533,-2.6533,-2.6533,-2.6533,-2.6533,-2.6533,-2.6533,-2.6533,-2.6533,-2.6533,-2.6533,-2.6533,-2.6533,-2.6521,-2.704,-2.767,-2.767,-2.767,-2.767,-2.767,-2.7162,-2.6233,-2.4181,-2.3514,-2.3147,-2.1231,-2.0566,-2.0566,-2.0566,-2.0566,0.0,0.0,-2.0566,-2.0566,-2.0557,-2.0489,-2.0489,-2.0479,-2.0401,-2.0052,-1.8556,-1.8294,-1.7698,-1.5265,-1.4485,-1.3865,-1.2594,0.0,-1.2378,-1.2305,-1.2372,-1.2378,-1.2305,-1.2305,-1.2305,-1.2305,-1.2305,-1.2305,-1.2305,-1.2305,-1.2305,-1.2305,-1.2224,-1.2224,-1.2224,-1.2224,-1.2659,-1.3528,-1.36,0.0,0.0,0.0,0.0,0.0,0.0,0.0,0.0,0.0,0.0,0.0,0.0,0.0,0.0,0.0,0.0,0.0,0.0,0.0,0.0,0.0,0.0,0.0,0.0,0.0,0.0,0.0,0.0,-2.1845,-2.2328,0.0,-2.3963,-2.4921,-2.5639,-2.5963,-2.6539,-2.6905,-2.6905,-2.6905,-2.6782,-2.6533,-2.6533,-2.6533,-2.6533,-2.6533,-2.6533,-2.6533,-2.6533,-2.6533,-2.6533,-2.6533,-2.6533,-2.6533,-2.6533,-2.6533,-2.6533,-2.6533,-2.6658,-2.6837,-2.6252,-2.5963,-2.5881,-2.5216,-2.4803,-2.4397,-2.2999,-2.2553,-2.2328,-2.1011,-2.0566,-2.0566,-2.0566,-2.0566,-2.0566,-2.0566,-2.0566,-2.0566,-2.0566,-2.0566,-2.0566,-2.0566,-2.0352,-2.0022,-1.9478,-1.8946,-1.7926,-1.584,-1.4832,-1.391,-1.2499,-1.2305,-1.2305,-1.2305,-1.2305,-1.2305,-1.2305,-1.2305,-1.2305,-1.2305,-1.2305,-1.2305,-1.2305,-1.2305,-1.2305,-1.2305,-1.2305,-1.2305,-1.2305,-1.2305,-1.2445,-1.2806,-1.2806,-1.3593,0.0,0.0,0.0,0.0,0.0,0.0,0.0,0.0,0.0,0.0,0.0,0.0,0.0,0.0,0.0,0.0,0.0,0.0,0.0,0.0,0.0,0.0,0.0,0.0,0.0,-2.001,-2.0377,-2.1626,-2.1943,-2.2403,-2.3368,-2.4108,-2.4636,-2.4933,-2.5594,-2.6164,-2.6452,-2.6533,-2.6533,-2.6533,-2.6533,-2.6533,-2.6533,-2.6533,-2.6533,-2.6533,-2.6533,-2.6533,-2.6533,-2.6533,-2.6533,-2.6533,-2.6533,-2.6314,-2.6025,-2.6383,-2.6314,-2.5955,-2.5229,-2.5004,-2.4862,-2.3891,-2.3514,-2.3368,-2.2328,-2.1811,-2.1451,-2.0789,-2.0566,-2.0566,-2.0566,-2.0566,-2.0566,-2.0566,-2.0566,-2.0566,-2.0566,-2.0566,-2.0527,-2.0381,-2.0127,-1.9834,-1.9551,-1.8735,-1.7645,-1.5905,-1.5081,-1.4147,-1.2553,-1.2305,-1.2305,-1.2305,-1.2305,-1.2305,-1.2305,-1.2305,-1.2305,-1.2305,-1.2305,-1.2305,-1.2305,-1.2305,-1.2305,-1.2305,-1.2305,-1.2305,-1.2305,-1.2305,-1.2305,-1.2305,-1.2305,-1.3091,-1.4673,0.0,0.0,0.0,0.0,0.0,0.0,0.0,0.0,0.0,0.0,0.0,0.0,0.0,0.0,0.0,0.0,0.0,0.0,0.0,0.0,0.0,0.0,0.0,-1.9015,-1.9555,-2.0173,-2.1209,-2.1669,-2.2307,-2.3294,-2.3441,-2.3891,-2.4862,-2.4933,-2.537,-2.6383,-2.6383,-2.6383,-2.6383,-2.6383,-2.6383,-2.6383,-2.6452,-2.6452,-2.6452,-2.6452,-2.6533,-2.6533,-2.6533,-2.6452,-2.6452,-2.6452,-2.5873,-2.5016,-2.6013,-2.5804,-2.4933,-2.4933,-2.4933,-2.4862,-2.3818,-2.3441,-2.3294,-2.2253,-2.1375,-2.0566,-2.0566,-2.0566,-2.0566,-2.0566,-2.0557,-2.0566,-2.0489,-2.0489,-2.0557,-2.0557,-2.0566,-2.0459,-2.0029,-1.9922,-1.9613,-1.8767,-1.7844,-1.6767,-1.538,-1.5163,-1.4522,-1.2659,-1.2305,-1.2305,-1.2305,-1.2305,0.0,-1.2305,-1.2305,-1.2305,-1.2305,-1.2305,-1.2305,-1.2305,-1.2305,-1.2305,-1.2305,-1.2305,-1.2305,-1.2305,-1.2305,-1.2305,-1.2305,-1.2305,-1.2806,-1.3673,0.0,0.0,0.0,0.0,0.0,0.0,0.0,0.0,0.0,0.0,0.0,0.0,0.0,0.0,0.0,0.0,0.0,0.0,0.0,0.0,0.0,-1.5929,-1.6208,-1.8046,-1.8073,-1.8533,-2.0123,-2.0377,-2.0727,-2.1354,-2.2038,-2.2553,-2.2776,-2.3514,-2.4036,-2.4325,-2.4325,-2.4325,-2.4325,-2.4325,-2.4325,-2.4325,-2.5075,-2.5441,-2.5441,-2.6164,-2.6533,-2.6533,-2.6533,-2.6094,-2.5441,-2.5441,-2.485,-2.3963,-2.4181,-2.4181,-2.3891,-2.3891,-2.3891,-2.3745,-2.2048,-2.1385,-2.1385,-2.1078,-2.0789,-2.0566,-2.0566,-2.0566,-2.0479,-1.9678,-1.9441,-1.9274,-1.847,-1.8789,-1.9441,-1.9441,-2.0001,-2.0537,-2.042,-1.9515,-1.8607,-1.8175,-1.7005,-1.5665,-1.4377,-1.4099,-1.3745,-1.2519,-1.2305,-1.2305,-1.2305,-1.2305,-1.2305,-1.2305,-1.2305,-1.2305,-1.2305,-1.2305,-1.2305,-1.2305,-1.162,-1.1539,-1.2224,-1.162,-1.1539,-1.2305,-1.2305,-1.2305,-1.2305,-1.2952,-1.3455,0.0,0.0,0.0,0.0,0.0,0.0,0.0,0.0,0.0,0.0,0.0,0.0,0.0,0.0,0.0,0.0,0.0,0.0,0.0,0.0,0.0,0.0,-1.4784,-1.5178,-1.6196,-1.7019,-1.811,-1.9684,-2.0078,-2.0283,-2.0537,-2.1078,-2.1593,-2.1952,-2.2553,-2.3073,-2.3452,-2.3514,-2.3514,-2.3514,-2.3514,-2.3514,-2.3514,-2.4108,-2.4337,-2.4409,-2.4981,-2.5205,-2.5205,-2.5205,-2.4909,-2.4337,-2.4337,-2.3818,-2.2925,-2.3294,-2.322,-2.285,0.0,0.0,0.0,0.0,-2.0566,-2.0566,-2.0566,-2.0566,-2.0566,-2.0079,-1.9923,-1.9678,-1.863,-1.831,-1.8149,-1.7496,-1.7747,-1.831,-1.831,-1.8789,-1.9149,-1.8976,-1.8282,-1.7544,-1.7162,-1.6371,-1.537,-1.4162,-1.3881,0.0,-1.2466,-1.2305,-1.2305,-1.2305,-1.2305,-1.2305,-1.2305,-1.2305,-1.215,-1.1694,-1.1694,-1.1471,-1.1099,-1.0496,0.0,0.0,0.0,-1.0421,-1.1025,-1.1025,0.0,0.0,0.0,-1.2774,-1.329,-1.3947,0.0,0.0,-1.4533,-1.4879,0.0,0.0,0.0,0.0,0.0,0.0,0.0,0.0,0.0,0.0,0.0,0.0,0.0,0.0,0.0,0.0,-1.339,-1.4118,-1.4268,-1.6188,-1.8124,-1.9402,-1.9937,-2.0187,-2.0235,-2.0323,-2.0769,-2.1573,-2.1811,-2.2274,-2.3161,-2.3235,0.0,0.0,0.0,-2.3312,-2.3312,-2.3386,-2.3461,-2.3461,-2.3553,-2.3604,-2.3604,-2.3548,-2.3441,-2.3294,-2.3294,-2.2776,-2.1886,-2.2776,-2.2627,-2.1886,-2.1952,-2.1962,-2.1735,-2.0934,-2.0489,-2.0401,-2.0401,0.0,0.0,-1.9116,-1.8798,-1.8638,-1.7496,-1.709,-1.709,-1.6927,-1.7017,-1.709,-1.709,-1.7172,-1.7171,-1.6834,-1.6681,-1.6496,-1.5984,-1.5835,-1.5433,-1.4282,-1.4072,-1.3758,-1.2594,-1.2351,-1.2305,-1.2305,-1.2305,-1.2305,-1.2305,-1.2305,-1.1922,-1.0938,-1.0783,0.0,-0.9372,-0.9221,-0.9145,-0.9296,-0.9296,-0.9296,-0.9296,-0.9296,-0.9755,-1.0605,-1.0674,-1.1262,-1.2479,-1.2479,-1.2557,-1.2922,-1.4585,-1.5062,0.0,0.0,0.0,0.0,0.0,0.0,0.0,0.0,0.0,0.0,0.0,0.0,0.0,0.0,0.0,-1.3881,-1.3381,-1.3516,-1.4877,-1.5472,-1.6166,-1.7234,-1.7388,-1.7559,-1.7874,-1.8789,-1.9353,-1.958,-2.0372,-2.1093,-2.1619,-2.1629,-2.18,-2.216,-2.218,-2.218,-2.218,-2.2922,-2.3366,-2.3366,-2.3842,0.0,-2.4033,-2.3705,-2.3073,-2.2253,-2.2253,-2.1745,-2.0867,-2.1088,-2.1088,-2.0934,-2.1735,-2.1517,-2.0857,-2.0634,-2.0079,-1.9283,-1.9283,-1.8709,-1.79,-1.7658,-1.7666,-1.7423,-1.6355,-1.6026,0.0,-1.4985,-1.5304,-1.6026,-1.6026,-1.6683,-1.7317,-1.7162,-1.6498,-1.5835,-1.5499,-1.4729,-1.3936,-1.3488,-1.3427,-1.3335,-1.3046,-1.2625,-1.2305,-1.2305,-1.2305,-1.2305,-1.2305,-1.2305,-1.1922,-1.0938,-1.0783,-1.0415,-0.9372,-0.8542,-0.8466,-0.9221,-0.9296,-0.9296,-0.9296,-0.9296,-0.9453,-0.9777,-0.9777,-0.9896,-1.0284,-1.0284,-1.0486,-1.0797,-1.2743,-1.3743,0.0,0.0,0.0,0.0,0.0,0.0,0.0,0.0,0.0,0.0,0.0,-1.3068,-1.323,0.0,-1.3365,-1.3683,-1.3406,-1.3453,-1.4303,-1.4568,-1.5309,-1.6822,-1.6973,-1.7047,-1.7317,-1.7827,-1.8227,-1.8417,-1.8922,-1.9344,-1.9656,-1.9683,-1.9773,-2.0054,-2.0063,-2.0316,-2.0913,-2.1447,-2.1952,-2.2564,-2.2894,-2.3029,-2.3008,-2.2537,-2.2097,-2.1555,-2.1399,-2.076,-1.9766,-1.9195,-1.8948,-1.9027,-1.9464,-1.9719,-1.9756,-1.9195,-1.863,-1.8149,-1.8149,-1.7747,-1.7172,-1.6683,-1.6519,-1.6273,-1.522,-1.4894,-1.4817,-1.425,-1.4496,-1.4894,-1.4894,-1.5311,-1.5718,-1.5718,-1.5304,-1.4851,-1.4703,-1.4269,-1.3774,-1.3487,-1.3427,-1.3213,-1.2492,-1.207,-1.2069,-1.247,-1.2398,-1.215,-1.162,-1.1545,-1.0938,-0.9437,-0.9286,-0.8912,-0.7855,-0.7326,-0.7249,-0.7783,-0.7867,-0.7914,-0.7914,-0.7928,-0.8255,-0.8823,-0.8823,-0.9247,-0.995,-0.995,-1.0148,-1.0444,-1.1427,-1.2284,0.0,0.0,0.0,0.0,0.0,0.0,0.0,-1.1471,-1.2224,-1.2077,-1.2197,-1.2458,-1.2775,-1.2876,-1.2939,-1.324,-1.3494,-1.3579,-1.3721,-1.3935,-1.4741,-1.6445,-1.669,-1.6714,-1.6786,-1.695,-1.7177,-1.754,-1.7733,-1.7981,-1.8324,-1.8349,-1.8382,-1.8447,-1.8455,-1.8883,-1.9918,-1.9909,-2.0449,-2.1428,-2.1343,-2.1305,-2.1296,-2.0787,-2.0599,-2.058,-2.0226,-1.9506,-1.8638,-1.7658,-1.7342,-1.7261,-1.709,-1.7577,-1.8301,-1.7577,-1.718,-1.7009,-1.7009,-1.6846,-1.6527,-1.5703,-1.5379,-1.522,-1.4328,-1.3913,-1.3737,-1.3737,-1.3561,-1.3385,-1.3385,-1.3385,-1.3385,-1.3385,-1.3385,-1.3385,-1.3385,-1.3385,-1.3322,-1.3093,-1.3048,-1.2643,-1.1508,-1.1266,-1.1473,-1.2085,-1.2005,-1.1476,-1.0709,-1.0551,-0.9872,-0.8039,-0.7888,-0.7504,-0.6503,-0.6346,-0.6346,-0.6346,-0.6454,-0.6515,-0.6515,-0.6634,-0.7123,-0.7891,-0.7974,-0.8476,-0.9587,-0.9587,-0.9672,-0.9918,-1.0178,-1.0869,-0.2536,-0.5698,-0.8107,-0.9059,-1.0045,-1.0565,0.0,-1.095,-1.2077,-1.1162,-1.1891,-1.2782,-1.2815,-1.2973,-1.3253,-1.3547,-1.3539,-1.3734,-1.4001,-1.4068,-1.4173,-1.4419,-1.4496,-1.4514,-1.4781,-1.5718,-1.635,-1.6688,-1.7581,-1.8341,-1.8692,-1.8814,-1.8962,-1.9364,-1.9373,-1.9463,-1.9545,-1.9554,-1.9644,-1.9735,-1.9309,-1.9159,-1.9142,-1.8696,-1.8529,-1.8512,-1.823,-1.7887,-1.7504,-1.7342,-1.7342,-1.7172,-1.6273,-1.5944,-1.6191,-1.7009,-1.6683,-1.5861,-1.5861,-1.522,-1.4412,-1.4328,-1.425,-1.425,-1.4173,-1.3379,-1.2504,-1.2504,-1.1729,-1.0956,-1.0956,-1.0956,-1.0956,-1.0956,-1.0956,-1.0956,-1.0956,-1.0956,-1.095,-1.0924,-1.0919,-1.0909,-1.0711,-1.0457,-1.0254,-1.0105,-0.9973,-0.9953,-0.9873,-0.9792,-0.9394,-0.8269,-0.8187,-0.7784,-0.6733,-0.6651,-0.6651,-0.6651,-0.6664,-0.6675,-0.6675,-0.6692,-0.6846,-0.7069,-0.7073,-0.7142,-0.7464,-0.7464,-0.7471,-0.7485,-0.8627,-0.9662,-0.2707,-0.4969,-0.6217,-0.7314,-0.8309,-0.8912,-0.8537,-0.9616,-1.0548,-1.0165,-1.114,-1.1927,-1.1358,-1.1885,-1.2298,-1.1882,-1.1838,-1.1878,-1.2072,-1.2123,-1.222,-1.222,-1.2967,-1.3762,-1.4435,-1.5094,-1.5588,-1.5889,-1.6361,-1.6672,-1.7077,-1.7099,-1.7157,-1.7382,-1.739,-1.7669,-1.8411,-1.8411,-1.8772,-1.9497,-1.934,-1.9175,-1.9167,-1.8717,-1.8439,-1.8156,-1.74,-1.6885,-1.6567,-1.5911,-1.5555,-1.5387,-1.4977,-1.4378,-1.3847,-1.5039,-1.5144,-1.4734,-1.4734,-1.4489,-1.3997,-1.3294,-1.3027,-1.2942,-1.2254,-1.1735,-1.1295,-1.1295,-1.095,-1.0611,-1.0611,-1.0611,-1.0611,-1.0611,-1.0611,-1.0611,-1.0611,-1.0611,-1.0611,-1.0611,-1.0611,-1.0351,-0.9753,-0.9511,-0.9172,-0.8321,-0.9041,-0.9466,-0.8896,-0.8814,-0.841,-0.7432,-0.7353,-0.7191,-0.6698,-0.6702,-0.6702,-0.6702,-0.6783,-0.6834,-0.6834,-0.6912,-0.6987,-0.7051,-0.7051,-0.7082,-0.7139,-0.7139,-0.7139,-0.7139,-0.7577,-0.8101,-0.2254,-0.3591,-0.4142,-0.555,-0.6626,-0.7399,-0.7459,-0.8498,-0.9394,-0.9216,-1.0204,-1.0909,-1.0335,-1.0915,-1.1354,-1.0671,-1.0611,-1.0631,-1.0691,-1.0755,-1.0791,-1.085,-1.1871,-1.2859,-1.3594,-1.4584,-1.5106,-1.5013,-1.5032,-1.4935,-1.4752,-1.4758,-1.4758,-1.4758,-1.4758,-1.5134,-1.6062,-1.6055,-1.6511,-1.7416,-1.7416,-1.7416,-1.7402,-1.7081,-1.6704,-1.6315,-1.5528,-1.5007,-1.4643,-1.3894,-1.3399,-1.3157,-1.3157,-1.2667,-1.1901,-1.2778,-1.313,-1.313,-1.313,-1.313,-1.2954,-1.2157,-1.1809,-1.1638,-1.0869,-1.0351,-1.0096,-1.0096,-0.9918,-0.9657,-0.9657,-0.9657,-0.9657,-0.9657,-0.9657,-0.9657,-0.9657,-0.9657,-0.9657,-0.9657,-0.9657,-0.9401,-0.854,-0.8364,-0.8105,-0.7228,-0.8142,-0.8726,-0.7983,-0.7899,-0.7651,-0.6905,-0.682,-0.682,-0.682,-0.682,-0.682,-0.682,-0.6926,-0.6987,-0.6987,-0.7085,-0.7139,-0.7139,-0.7139,-0.7139,-0.7139,-0.7139,-0.7139,-0.7139,-0.7139,-0.7139,0.0467,-0.0937,-0.2192,-0.4219,-0.5526,-0.6328,-0.6507,-0.804,-0.9281,-0.8444,-0.9294,-1.0193,-1.0198,-1.0459,-1.06,-1.0605,-1.0611,-1.0686,-1.082,-1.0766,-1.0845,-1.1049,-1.1356,-1.1581,-1.1576,-1.3857,-1.5019,-1.404,-1.3962,-1.3386,-1.2042,-1.2047,-1.2047,-1.2047,-1.2047,-1.2042,-1.2042,-1.2042,-1.2134,-1.2139,-1.2139,-1.2139,-1.2134,-1.2129,-1.1996,-1.1675,-1.1675,-1.146,-1.1258,-1.1258,-1.1041,-1.0939,-1.0939,-1.0803,-1.0697,-1.0697,-1.0697,-1.0697,-1.0697,-1.0697,-1.0697,-1.0697,-1.0611,-1.0611,-1.0611,-0.9836,-0.8978,-0.8978,-0.8101,-0.7228,-0.7228,-0.7228,-0.7228,-0.7228,-0.7228,-0.7228,-0.7228,-0.7228,-0.7228,-0.7228,-0.7228,-0.7228,-0.7139,-0.7139,-0.7139,-0.7139,-0.7132,-0.7126,-0.7126,-0.7126,-0.7126,-0.7126,-0.7126,-0.7126,-0.7126,-0.7126,-0.7126,-0.7126,-0.7132,-0.7132,-0.7132,-0.7139,-0.7139,-0.7139,-0.7139,-0.7139,-0.7139,-0.7139,-0.7139,-0.7139,-0.7139,-0.7139,0.0779,-0.0234,-0.1014,-0.3122,-0.4501,-0.5362,-0.5411,-0.6617,-0.7697,-0.7425,-0.841,-0.9134,-0.8273,-0.8839,-0.9275,-0.8609,-0.845,-0.8509,-0.869,-0.8715,-0.8804,-0.8859,-0.9878,-1.0475,-1.0475,-1.2021,-1.2929,-1.2619,-1.2528,-1.2334,-1.1945,-1.1945,-1.1945,-1.1945,-1.1945,-1.1945,-1.1945,-1.1945,-1.1945,-1.1945,-1.1945,-1.1945,-1.1945,-1.1945,-1.1808,-1.1732,-1.1732,-1.1602,-1.1392,-1.1392,-1.1266,-1.0965,-1.0826,-1.0276,-0.9575,-0.9542,-0.8969,-0.8532,-1.0091,-1.0611,-1.0438,-0.9753,-0.9492,-0.9318,-0.8532,-0.8013,-0.7665,-0.7665,-0.7404,-0.7139,-0.7139,-0.7139,-0.7139,-0.7139,-0.7139,-0.7139,-0.7139,-0.7139,-0.7139,-0.7139,-0.7139,-0.7139,-0.7139,-0.7139,-0.6874,-0.6071,-0.6605,-0.7139,-0.7139,-0.6428,-0.5983,-0.5983,-0.5265,-0.4816,-0.4816,-0.4816,-0.4816,-0.4816,-0.4816,-0.4816,-0.4816,-0.4816,-0.4816,-0.4816,-0.4816,-0.5176,-0.5983,-0.5983,-0.634,-0.7139,-0.7139,-0.7139,0.2335,0.1169,0.0156,-0.1576,-0.2879,-0.3824,-0.4298,-0.5004,-0.5637,-0.5681,-0.6443,-0.6956,-0.6579,-0.721,-0.771,-0.7516,-0.7451,-0.7506,-0.7655,-0.7753,-0.7831,-0.7885,-0.8659,-0.9316,-0.9316,-0.9998,-1.0681,-1.117,-1.1268,-1.0974,-1.0485,-1.0485,-1.0485,-1.0485,-1.0485,-1.0485,-1.0485,-1.0485,-1.0485,-1.0485,-1.0485,-1.0485,-1.0485,-1.0485,-1.028,-0.9776,-0.9776,-0.9405,-0.8798,-0.8798,-0.8703,-0.8453,-0.8351,-0.7816,-0.7116,-0.7065,-0.648,-0.6123,-0.8093,-0.8773,-0.8511,-0.7372,-0.7024,-0.6848,-0.606,-0.5888,-0.5888,-0.5888,-0.5888,-0.5888,-0.5888,-0.5888,-0.5888,-0.5888,-0.5888,-0.5888,-0.5888,-0.5888,-0.5888,-0.5888,-0.5888,-0.5888,-0.5888,-0.5888,-0.562,-0.491,-0.5354,-0.5888,-0.5888,-0.5176,-0.4732,-0.4732,-0.4105,-0.357,-0.357,-0.357,-0.357,-0.357,-0.357,-0.357,-0.357,-0.357,-0.357,-0.357,-0.357,-0.4016,-0.4732,-0.4732,-0.5176,-0.5888,-0.5888,-0.6065,0.4993,0.3287,0.1498,0.0402,-0.073,-0.1812,-0.3004,-0.3293,-0.3401,-0.3556,-0.3573,-0.3957,-0.5233,-0.5535,-0.5947,-0.7302,-0.7513,-0.7563,-0.7801,-0.7824,-0.7875,-0.7922,-0.7939,-0.7939,-0.7836,-0.7839,-0.8428,-0.96,-0.9801,-0.9312,-0.8038,-0.8038,-0.8038,-0.8038,-0.7939,-0.7939,-0.7939,-0.7836,-0.7839,-0.7839,-0.7839,-0.7839,-0.7839,-0.7839,-0.7132,-0.5929,-0.5929,-0.5222,-0.4016,-0.4016,-0.3877,-0.3818,-0.3814,-0.3769,-0.3603,-0.3623,-0.3593,-0.3763,-0.4862,-0.5275,-0.509,-0.4016,-0.357,-0.357,-0.357,-0.357,-0.357,-0.357,-0.357,-0.357,-0.357,-0.357,-0.357,-0.357,-0.357,-0.357,-0.357,-0.357,-0.357,-0.357,-0.357,-0.357,-0.357,-0.357,-0.3481,-0.3481,-0.3481,-0.3481,-0.357,-0.357,-0.3481,-0.3481,-0.3481,-0.3392,-0.3392,-0.3392,-0.3392,-0.3392,-0.3392,-0.3392,-0.3392,-0.3392,-0.3392,-0.3392,-0.3392,-0.3481,-0.3481,-0.3481,-0.357,-0.357,-0.357,-0.4196,0.5226,0.4353,0.3618,0.1699,0.0415,-0.0683,-0.19,-0.2891,-0.3548,-0.3566,-0.3616,-0.366,-0.4047,-0.4103,-0.4549,-0.5992,-0.6302,-0.6637,-0.776,-0.798,-0.7595,-0.6628,-0.7434,-0.7232,-0.522,-0.5924,-0.6224,-0.561,-0.7419,-0.8333,-0.8041,-0.8038,-0.8038,-0.8038,-0.7033,-0.6531,-0.6531,-0.5522,-0.5018,-0.5018,-0.5018,-0.5018,-0.5018,-0.5018,-0.4818,-0.4518,-0.4518,-0.4316,-0.4016,-0.4016,-0.4005,-0.3983,-0.3832,-0.3801,-0.3774,-0.3605,-0.3638,-0.3497,-0.2933,-0.3348,-0.4016,-0.3659,-0.357,-0.357,-0.357,-0.357,-0.357,-0.357,-0.357,-0.357,-0.357,-0.357,-0.357,-0.357,-0.357,-0.357,-0.357,-0.357,-0.357,-0.357,-0.357,-0.357,-0.357,-0.2858,-0.2236,-0.2236,-0.1522,-0.1522,-0.3393,-0.286,-0.2236,-0.2236,-0.1433,-0.0897,-0.0897,-0.0897,-0.0897,-0.0897,-0.0897,-0.0897,-0.0897,-0.0897,-0.0897,-0.0897,-0.0897,-0.1344,-0.2236,-0.2236,-0.2681,-0.357,-0.357,-0.3748,0.6002,0.5209,0.4475,0.2742,0.1531,0.0434,-0.0703,-0.1509,-0.2058,-0.2058,-0.2001,-0.2219,-0.2798,-0.2943,-0.3387,-0.4826,-0.504,-0.5257,-0.6114,-0.6224,-0.5924,-0.5222,-0.5824,-0.5622,-0.4116,-0.472,-0.482,-0.4016,-0.542,-0.6224,-0.6224,-0.6224,-0.6224,-0.6224,-0.5522,-0.5122,-0.5122,-0.4418,-0.4016,-0.4016,-0.4016,-0.4016,-0.4016,-0.4016,-0.3715,-0.3115,-0.3115,-0.2815,-0.2213,-0.2213,-0.2213,-0.2211,-0.2189,-0.2181,-0.2077,-0.2037,-0.2007,-0.189,-0.1208,-0.1466,-0.199,-0.2063,-0.2058,-0.2058,-0.2058,-0.2058,-0.2058,-0.2058,-0.2058,-0.2058,-0.2058,-0.2058,-0.2058,-0.2058,-0.2058,-0.2058,-0.2058,-0.2058,-0.2058,-0.2058,-0.2058,-0.2058,-0.2058,-0.1433,-0.0986,-0.0986,-0.0449,-0.0449,-0.1879,-0.1433,-0.0986,-0.0986,-0.0449,0.0,0.0,0.0,0.0,0.0,0.0,0.0,0.0,0.0,0.0,0.0,0.0,-0.0359,-0.0986,-0.0986,-0.1344,-0.2058,-0.2058,-0.2324,0.7138,0.5919,0.4849,0.377,0.2777,0.175,0.0536,0.009,0.0,0.0,0.0,-0.0374,-0.1524,-0.1747,-0.2171,-0.3506,-0.3715,-0.3815,-0.4016,-0.4016,-0.3915,-0.3715,-0.3915,-0.3815,-0.3515,-0.3615,-0.3615,-0.3515,-0.3515,-0.3615,-0.4016,-0.4016,-0.3915,-0.3715,-0.3715,-0.3616,-0.3515,-0.3515,-0.3515,-0.3515,-0.3515,-0.3515,-0.3515,-0.3515,-0.2815,-0.1712,-0.1712,-0.1109,0.0,0.0,0.0,0.0,0.0,0.0,0.0,0.0,0.0,0.0,0.0,0.0,0.0,0.0,0.0,0.0,0.0,0.0,0.0,0.0,0.0,0.0,0.0,0.0,0.0,0.0,0.0,0.0,0.0,0.0,0.0,0.0,0.0,0.0,0.0,0.0,0.0,0.0,0.0,0.0,0.0,0.0,0.0,0.0,0.0,0.0,0.0,0.0,0.0,0.0,0.0,0.0,0.0,0.0,0.0,0.0,0.0,0.0,0.0,0.0,0.0,0.0,0.0,-0.0541,0.7998,0.7038,0.6114,0.5069,0.4031,0.2933,0.1789,0.0718,0.0,0.0,0.0,-0.0095,-0.0292,-0.0298,-0.0804,-0.2112,-0.2314,-0.2715,-0.3815,-0.4016,-0.3615,-0.2514,-0.3316,-0.3115,-0.0907,-0.1711,-0.1913,-0.0807,-0.0706,-0.1611,-0.3915,-0.4016,-0.3515,-0.2413,-0.2314,-0.1812,-0.0706,-0.0706,-0.0706,-0.0706,-0.0706,-0.0706,-0.0706,-0.0706,-0.0605,-0.0303,-0.0303,-0.0202,0.0,0.0,0.0,0.0,0.0,0.0,0.0,0.0,0.0,0.0,0.0,0.0,0.0,0.0,0.0,0.0,0.0,0.0,0.0,0.0,0.0,0.0,0.0,0.0,0.0,0.0,0.0,0.0,0.0,0.0,0.0,0.0,0.0,0.0,0.0,0.0,0.0,0.0,0.0,0.0,0.0,0.0,0.0,0.0,0.0,0.0,0.0,0.0,0.0,0.0,0.0,0.0,0.0,0.0,0.0,0.0,0.0,0.0,0.0,0.0,0.0,0.0,0.0,-0.0093,0.8302,0.7435,0.6597,0.551,0.4872,0.4196,0.3037,0.1805,0.0914,0.0922,0.0474,0.0,0.0,0.0,-0.0202,-0.0806,-0.1008,-0.1209,-0.1812,-0.1913,-0.1711,-0.1008,-0.1511,-0.141,-0.0101,-0.0605,-0.0706,0.0,0.0,-0.0605,-0.1812,-0.1913,-0.1611,-0.1008,-0.1008,-0.0605,0.0,0.0,0.0,0.0,0.0,0.0,0.0,0.0,0.0,0.0,0.0,0.0,0.0,0.0,0.0,0.0101,0.0807,0.1008,0.1109,0.1812,0.2101,0.2082,0.2063,0.2043,0.2114,0.2053,0.1103,0.0,0.0,0.0453,0.0807,0.018,0.0453,0.0821,0.0182,0.0,0.0,0.0,0.0,0.0,0.0,0.0,0.0,0.0,0.0,0.0,0.0,0.0,0.0,0.0,0.0,0.0,0.0,0.0,0.0,0.0,0.0,0.0,0.0,0.0,0.0,0.0,0.0,0.0,0.0,0.0,0.0,0.0,0.0,0.0,0.0,0.0,0.0,0.0,0.0,0.0,0.8814,0.775,0.6701,0.5951,0.5536,0.5186,0.4218,0.2916,0.1851,0.1867,0.0864,0.0,0.0,0.0,0.0,0.0,0.0,0.0,0.0,0.0,0.0,0.0,0.0,0.0,0.0,0.0,0.0,0.0,0.0,0.0,0.0,0.0,0.0,0.0,0.0,0.0,0.0,0.0,0.0,0.0,0.0303,0.0404,0.0404,0.0706,0.0806,0.0806,0.0806,0.0806,0.0806,0.0806,0.0806,0.1008,0.2013,0.2414,0.2514,0.3615,0.4016,0.4007,0.3953,0.4032,0.4022,0.396,0.2556,0.0837,0.0837,0.1562,0.2086,0.1091,0.1561,0.2044,0.1116,0.0847,0.0857,0.0857,0.086,0.0767,0.0479,0.0385,0.0386,0.0097,0.0,0.0097,0.0386,0.0193,0.0097,0.0386,0.0193,0.0,0.0,0.029,0.029,0.0,0.0,0.0,0.0,0.0,0.0,0.0,0.0,0.0,0.0,0.0,0.0,0.0,0.0,0.0,0.0,0.0,0.0,0.0,0.0,0.0,0.9888,0.8514,0.6877,0.6926,0.616,0.5387,0.5398,0.3498,0.1866,0.1932,0.088,0.0,0.0,0.0,0.0,0.0,0.0,0.0,0.0,0.0,0.0,0.0,0.0,0.0,0.0,0.0,0.0,0.0,0.0,0.0,0.0,0.0,0.0,0.0,0.0,0.0,0.0,0.0,0.0,0.0,0.1209,0.1812,0.1812,0.3115,0.3615,0.3615,0.3615,0.3615,0.3615,0.3615,0.3615,0.3616,0.3815,0.3815,0.3815,0.3915,0.4016,0.4014,0.4009,0.4005,0.4005,0.3999,0.3804,0.3599,0.3599,0.369,0.3777,0.3683,0.369,0.3788,0.3693,0.3603,0.3608,0.3608,0.3658,0.3316,0.2049,0.178,0.1503,0.0201,0.0,0.0402,0.1603,0.0803,0.0402,0.1603,0.0803,0.0,0.0,0.1103,0.1303,0.01,0.0,0.0,0.0,0.0,0.0,0.0,0.0,0.0,0.0,0.0,0.0,0.0,0.0,0.0,0.0,0.0,0.0,0.0,0.0,0.0,0.9233,0.8096,0.7068,0.7126,0.685,0.6656,0.6712,0.5442,0.4028,0.3216,0.2073,0.0999,0.0101,0.0,0.0,0.0,0.0,0.0,0.0,0.0,0.0,0.0,0.0,0.0,0.0,0.0,0.0307,0.111,0.1912,0.2413,0.2413,0.1611,0.1611,0.2413,0.2413,0.2413,0.2413,0.2413,0.2413,0.2414,0.2916,0.3215,0.3215,0.3715,0.4016,0.4016,0.4016,0.4016,0.4016,0.4016,0.4016,0.4116,0.492,0.5222,0.5322,0.6124,0.6426,0.6426,0.6426,0.6426,0.6426,0.6426,0.6363,0.6079,0.446,0.4502,0.4933,0.4176,0.4498,0.4925,0.4155,0.3995,0.4027,0.4027,0.3953,0.3874,0.3279,0.3198,0.3015,0.2514,0.2413,0.2614,0.3115,0.2714,0.2614,0.3115,0.2715,0.2413,0.2413,0.2914,0.3015,0.2514,0.2456,0.2129,0.1258,0.1914,0.2092,0.1238,0.1238,0.0857,0.0,0.0,0.0,0.0,0.0,0.0,0.0,0.0,0.0396,0.1196,0.1196,0.1599,0.9266,0.8095,0.7139,0.7139,0.7258,0.7383,0.7431,0.6582,0.5574,0.4626,0.3188,0.1711,0.0807,0.0303,0.0,0.0,0.0,0.0,0.0,0.0,0.0,0.0,0.0,0.0213,0.0639,0.1053,0.1658,0.2538,0.3545,0.4241,0.462,0.3718,0.3417,0.4016,0.4016,0.4016,0.4016,0.4016,0.4016,0.4016,0.4418,0.4618,0.4618,0.5018,0.5218,0.5218,0.5218,0.5218,0.5218,0.5218,0.5218,0.532,0.6226,0.6631,0.6731,0.7637,0.8038,0.8038,0.8038,0.8038,0.8038,0.8038,0.8038,0.7617,0.5738,0.5756,0.6272,0.5406,0.5751,0.6304,0.5419,0.5172,0.5218,0.5218,0.5218,0.5118,0.4718,0.4618,0.4518,0.4116,0.4016,0.4116,0.4518,0.4218,0.4116,0.4518,0.4218,0.4016,0.4016,0.4318,0.4418,0.4016,0.4666,0.4434,0.2759,0.3503,0.3575,0.2611,0.2611,0.2128,0.1258,0.1177,0.1186,0.1186,0.1201,0.1209,0.1209,0.1209,0.1711,0.2614,0.2614,0.3115,1.055,0.8877,0.7139,0.7139,0.7258,0.7411,0.7563,0.6646,0.5794,0.5904,0.3819,0.2013,0.2013,0.0907,0.0,0.0,0.0,0.0,0.0,0.0,0.0,0.0,0.0,0.0533,0.202,0.3608,0.4421,0.4238,0.4233,0.471,0.5934,0.5929,0.5322,0.4016,0.4016,0.4016,0.4016,0.4016,0.4016,0.4016,0.5322,0.6029,0.6029,0.7335,0.7939,0.7939,0.7939,0.7939,0.7939,0.7939,0.7939,0.7939,0.7939,0.7939,0.7939,0.8038,0.8038,0.8038,0.8038,0.8038,0.8038,0.8038,0.8038,0.8038,0.7939,0.7935,0.7935,0.7935,0.7935,0.7939,0.7939,0.7939,0.7939,0.7939,0.7939,0.7637,0.6229,0.6029,0.5625,0.4218,0.4016,0.4418,0.5727,0.492,0.4418,0.5827,0.482,0.4016,0.4016,0.5122,0.5425,0.4116,0.6423,0.6927,0.4214,0.4014,0.4012,0.4014,0.4014,0.4014,0.3914,0.3914,0.3914,0.3914,0.3915,0.3915,0.3915,0.3915,0.4016,0.4016,0.4016,0.4016,0.8603,0.7661,0.7166,0.7272,0.7414,0.7563,0.7709,0.7466,0.7081,0.6221,0.5325,0.4422,0.3516,0.3015,0.2414,0.1511,0.133,0.1353,0.1475,0.15,0.185,0.2969,0.3082,0.3287,0.3679,0.5076,0.5787,0.5789,0.6551,0.7214,0.7585,0.7488,0.7132,0.6728,0.6728,0.6728,0.6728,0.6728,0.6728,0.6728,0.7132,0.7335,0.7335,0.7839,0.8038,0.8038,0.8038,0.8038,0.8038,0.8038,0.8038,0.8038,0.8038,0.8038,0.8038,0.8038,0.8038,0.8038,0.8038,0.8038,0.8038,0.8038,0.8038,0.8038,0.8038,0.8038,0.8038,0.8038,0.8038,0.8038,0.8038,0.8038,0.8038,0.8038,0.8038,0.7839,0.7434,0.7335,0.7235,0.6828,0.6728,0.683,0.7335,0.703,0.683,0.7335,0.703,0.6728,0.6728,0.7132,0.7232,0.6828,0.7534,0.7332,0.5525,0.6226,0.6326,0.5425,0.5325,0.492,0.4016,0.4016,0.4016,0.4016,0.4016,0.4016,0.4016,0.4016,0.4518,0.5425,0.6326,0.6728,0.8189,0.7535,0.7251,0.7346,0.7526,0.7702,0.779,0.7929,0.7736,0.6933,0.6329,0.5727,0.492,0.4318,0.3725,0.2943,0.2787,0.2838,0.2996,0.305,0.3427,0.4354,0.5029,0.5341,0.5284,0.6595,0.7419,0.7292,0.8059,0.8387,0.8275,0.818,0.8099,0.8041,0.8038,0.8038,0.8038,0.8038,0.8038,0.8038,0.8038,0.8038,0.8038,0.8038,0.8038,0.8038,0.8038,0.8038,0.0,0.8038,0.8038,0.8038,0.8038,0.8038,0.8038,0.8038,0.8038,0.8038,0.8531,0.8726,0.8825,0.9312,0.9509,0.9509,0.9509,0.8825,0.8038,0.8038,0.8038,0.8038,0.8038,0.8038,0.8038,0.8038,0.8038,0.8038,0.8038,0.8038,0.8038,0.8038,0.8038,0.8038,0.8038,0.8038,0.8038,0.8038,0.8038,0.8038,0.8038,0.8038,0.8038,0.8038,0.8038,0.7637,0.6833,0.7537,0.7637,0.6833,0.6731,0.6429,0.5522,0.552,0.552,0.552,0.552,0.552,0.552,0.552,0.5924,0.6731,0.7637,0.8038,0.0,0.815,0.7373,0.7387,0.76,0.7814,0.7824,0.7936,0.0,0.8038,0.7033,0.6129,0.6129,0.5122,0.4343,0.4323,0.4299,0.4376,0.4673,0.4755,0.4804,0.4804,0.6031,0.6813,0.6813,0.8042,0.8879,0.8737,0.8716,0.8591,0.8316,0.8282,0.8204,0.8062,0.8045,0.8038,0.8038,0.8038,0.8038,0.8038,0.8038,0.8038,0.8038,0.8038,0.8038,0.8137,0.8137,0.8237,0.8233,0.8233,0.8233,0.8233,0.8233,0.8233,0.8233,0.8233,0.8233,0.8428,0.9702,1.0096,1.0288,1.1556,1.1945,1.1945,1.1945,1.019,0.8233,0.8233,0.8233,0.8233,0.8137,0.8137,0.8137,0.8038,0.8038,0.8038,0.8038,0.8038,0.8038,0.8038,0.8038,0.8038,0.8038,0.8038,0.8038,0.8038,0.8038,0.8038,0.8038,0.8038,0.8038,0.8038,0.8038,0.8038,0.8038,0.8038,0.8038,0.8038,0.8038,0.8038,0.8038,0.8038,0.8038,0.8038,0.8038,0.8038,0.8038,0.8038,0.8038,0.8038,0.8038,0.8038,0.7998,0.0,0.74,0.7516,0.7678,0.7841,0.0,0.0,0.0,0.0,0.0,0.7537,0.7537,0.7232,0.6768,0.5965,0.5761,0.5866,0.619,0.7183,0.7817,0.7817,0.8156,0.838,0.838,0.8716,0.8923,0.8889,0.8777,0.8679,0.8611,0.8394,0.8255,0.8218,0.8102,0.8038,0.8038,0.8038,0.8038,0.8038,0.8038,0.8038,0.8038,0.8038,0.8528,0.9509,0.9509,1.0096,1.0974,1.0974,1.0974,1.0974,1.0974,1.0974,1.0974,1.0974,1.0974,1.1068,1.1361,1.1463,1.1458,1.1755,1.1945,1.1945,1.1945,1.1458,1.0974,1.0974,1.0974,1.0774,0.9801,0.9509,0.9312,0.8237,0.8038,0.8038,0.8038,0.8038,0.8038,0.8038,0.8038,0.8038,0.8038,0.8038,0.8038,0.8038,0.8038,0.8038,0.8038,0.8038,0.8038,0.8038,0.8038,0.8038,0.8038,0.8038,0.8038,0.8038,0.8038,0.8038,0.8038,0.8038,0.8038,0.8038,0.8038,0.8038,0.8038,0.8038,0.8038,0.8038,0.8038,0.8038,0.7507,0.7421,0.7512,0.7658,0.7807,0.7936,0.8021,0.0,0.0,0.0,0.0,0.8038,0.8038,0.8038,0.7805,0.7386,0.7267,0.7381,0.7683,0.8443,0.894,0.894,0.894,0.894,0.894,0.894,0.894,0.894,0.8862,0.8784,0.8713,0.918,0.9431,0.9173,0.9678,0.939,0.8038,0.8627,0.892,0.892,0.9505,0.9801,0.9801,0.9801,1.019,1.0877,1.0877,1.1268,1.1945,1.1945,1.1945,1.1945,1.1945,1.1945,1.1945,1.1945,1.1945,1.1945,1.2624,1.3204,1.3692,1.3692,1.3692,1.3692,1.3692,1.3692,1.3403,1.2237,1.1945,1.1658,1.0288,0.9998,0.9706,0.8333,0.8038,0.8038,0.8038,0.8038,0.8038,0.8038,0.8038,0.8038,0.8038,0.8038,0.8038,0.8038,0.8038,0.8038,0.8038,0.8038,0.8038,0.8038,0.8038,0.8038,0.8038,0.8038,0.8038,0.8038,0.8038,0.8038,0.8038,0.8038,0.8038,0.8038,0.8038,0.8038,0.8038,0.8038,0.8038,0.8038,0.8038,0.8038,0.736,0.7502,0.7634,0.7777,0.7926,0.8038,0.8038,0.0,0.0,0.0,0.0,0.0,0.8038,0.8058,0.8163,0.8438,0.852,0.8642,0.8903,0.894,0.894,0.894,0.894,0.894,0.894,0.9154,0.9265,0.9265,0.9482,0.953,0.9388,1.0523,1.0989,1.0658,1.1841,1.1225,0.8663,0.9719,1.0288,1.0293,1.1365,1.1945,1.1945,1.1945,1.2042,1.2237,1.2237,1.2334,1.2528,1.2528,1.2528,1.2528,1.2528,1.2528,1.2528,1.2528,1.2528,1.2624,1.3782,1.4854,1.5832,1.5832,1.5832,1.5832,1.5832,1.5832,1.5343,1.3113,1.2528,1.2237,1.0974,1.0583,1.0288,0.892,0.8627,0.8528,0.8333,0.8333,0.8237,0.8038,0.8038,0.8038,0.8038,0.8038,0.8038,0.8038,0.8038,0.8038,0.8038,0.8038,0.8038,0.8038,0.8038,0.8038,0.8038,0.8038,0.8038,0.8038,0.8038,0.8038,0.8038,0.8038,0.8038,0.8038,0.8038,0.8038,0.8038,0.8038,0.8038,0.8038,0.8038,0.8038,0.7485,0.7584,0.7634,0.7777,0.7926,0.8038,0.8038,0.0,0.0,0.0,0.0,0.0,0.0,0.8147,0.8289,0.8455,0.8699,0.8882,0.893,0.894,0.894,0.894,0.894,0.894,0.894,1.0025,1.0781,1.0781,1.1973,1.2606,1.2572,1.2607,1.268,1.2616,1.2648,1.2451,1.1734,1.1649,1.1658,1.1658,1.1848,1.1945,1.1945,1.1945,1.2522,1.3584,1.3584,1.4172,1.5242,1.5242,1.5242,1.5242,1.5242,1.5242,1.5242,1.5242,1.5242,1.5242,1.5439,1.5635,1.5832,1.5832,1.5832,1.5832,1.5832,1.5832,1.573,1.5343,1.5242,1.4956,1.3584,1.3295,1.3006,1.1653,1.1263,1.0974,0.9899,0.9706,0.9312,0.8233,0.8038,0.8038,0.8038,0.8038,0.8038,0.8038,0.8038,0.8038,0.8038,0.8038,0.8038,0.8038,0.8038,0.8038,0.8038,0.8038,0.8038,0.8038,0.8038,0.8038,0.8038,0.8038,0.8038,0.8038,0.8038,0.8038,0.8038,0.8038,0.8038,0.8038,0.8038,0.8038,0.7516,0.76,0.7655,0.7879,0.7987,0.8038,0.0,0.0,0.0,0.0,0.0,0.0,0.0,0.8167,0.8343,0.857,0.8794,0.894,0.894,0.894,0.894,0.894,0.894,0.894,0.894,1.0241,1.1105,1.1105,1.2512,1.3264,1.3264,1.3912,1.4217,1.4085,1.4815,1.5047,1.4683,1.4564,1.3964,1.3006,1.3692,1.3986,1.3986,1.3986,1.437,1.4949,1.4949,1.5242,1.5832,1.5832,1.5832,1.5832,1.5832,1.5832,1.5832,1.5832,1.5832,1.5832,1.5832,1.5832,1.5832,1.5832,1.5832,1.5832,1.5832,1.5832,1.5832,1.5832,1.5832,1.5534,1.4262,1.3878,1.3584,1.2237,1.1945,1.175,1.117,1.1072,1.0877,1.019,1.0092,0.9899,0.9217,0.9118,0.8825,0.8137,0.8038,0.8038,0.8038,0.8038,0.8038,0.8038,0.8038,0.8038,0.8038,0.8038,0.8038,0.8038,0.8038,0.8038,0.8038,0.8038,0.8038,0.8038,0.8038,0.8038,0.8038,0.8038,0.8038,0.8038,0.8038,0.8038,0.7526,0.7624,0.7712,0.7974,0.0,0.0,0.0,0.0,0.0,0.0,0.0,0.0,0.0,0.8248,0.8459,0.872,0.8862,0.894,0.894,0.894,0.894,0.894,0.894,0.9047,0.9372,1.0785,1.1755,1.2077,1.348,1.4341,1.4341,1.531,1.5864,1.5664,1.6717,1.7108,1.6814,1.6807,1.6004,1.4455,1.5441,1.5899,1.5832,1.5832,1.5832,1.5832,1.5832,1.5832,1.5832,1.5832,1.5832,1.5832,1.5832,1.5832,1.5832,1.5832,1.5832,1.5832,1.5832,1.5832,1.5832,1.5832,1.5832,1.5832,1.5832,1.5832,1.5845,1.5912,1.5932,1.5625,1.458,1.4364,1.4088,1.318,1.2905,1.2824,1.2676,1.2588,1.2495,1.22,1.2102,1.1806,1.0821,1.0622,1.0324,0.9234,0.9103,0.908,0.908,0.8943,0.8825,0.8528,0.8432,0.8333,0.8038,0.8333,0.8333,0.8041,0.8038,0.8038,0.8038,0.8038,0.8038,0.8038,0.8038,0.8038,0.8038,0.8038,0.8038,0.8038,0.8038,0.8038,0.7556,0.7695,0.7834,0.7997,0.8038,0.0,0.8038,0.8038,0.0,0.8038,0.0,0.0,0.0,0.8486,0.873,0.8896,0.893,0.894,0.894,0.894,0.894,0.894,0.894,0.9482,1.0781,1.2295,1.3696,1.4984,1.6499,1.7259,1.7259,1.7364,1.7463,1.7443,1.7549,1.7415,1.7121,1.7114,1.682,1.6142,1.6239,1.6092,1.5832,1.5832,1.5832,1.5832,1.5832,1.5832,1.5832,1.5832,1.5832,1.5832,1.5832,1.5832,1.5832,1.5832,1.5832,1.5832,1.5832,1.5832,1.5832,1.5832,1.5832,1.5832,1.5832,1.5832,1.5885,1.6166,1.6239,1.6179,1.5803,1.5635,1.5701,1.5972,1.594,1.5712,1.4743,1.4589,1.4185,1.2965,1.2766,1.2659,1.2562,1.2557,1.2562,1.2459,1.2284,1.2059,1.2059,1.1776,1.1165,0.9998,0.9903,0.9312,0.8137,0.9118,0.9312,0.8038,0.8038,0.8038,0.8038,0.8038,0.8038,0.8038,0.8038,0.8038,0.8038,0.8038,0.8038,0.8038,0.8038,0.8038,0.7556,0.7702,0.7848,0.8001,0.8038,0.0,0.0,0.8038,0.8038,0.8038,0.8038,0.0,0.0,0.8492,0.8648,0.8899,0.894,0.894,0.894,0.9699,1.0241,1.0241,1.1109,1.1864,1.2403,1.3804,1.4877,1.531,1.6823,1.7582,1.7582,1.7582,1.7582,1.7582,1.7582,1.7528,1.7422,1.7422,1.7215,1.682,1.6633,1.6386,1.6106,1.6106,1.6005,1.5832,1.5832,1.5832,1.5832,1.5832,1.5832,1.5832,1.5832,1.5832,1.5832,1.5832,1.5832,1.5832,1.5832,1.5832,1.5832,1.5832,1.5952,1.6106,1.6106,1.6233,1.64,1.6506,1.6547,1.652,1.64,1.6373,1.64,1.6513,1.6547,1.6467,1.6066,1.5985,1.5878,1.5267,1.5267,1.4957,1.4134,1.4033,1.3727,1.2915,1.2741,1.2689,1.2689,1.2511,1.2259,1.1755,1.1755,1.1553,1.1047,1.1447,1.1553,1.1047,0.9133,0.8038,0.8038,0.8038,0.8085,0.818,0.8184,0.8225,0.8313,0.8313,0.8313,0.8313,0.8313,0.8313,0.757,0.774,0.7909,0.8014,0.0,0.0,0.8038,0.8038,0.8038,0.8038,0.8079,0.8174,0.8377,0.8489,0.8621,0.8832,0.923,0.9588,0.9588,1.0891,1.1755,1.1755,1.2729,1.348,1.3911,1.4877,1.563,1.6062,1.7041,1.7582,1.7582,1.7582,1.7582,1.7582,1.7582,1.7582,1.7582,1.7582,1.7482,1.7281,1.7081,1.678,1.6413,1.6413,1.6246,1.5972,1.5972,1.5912,1.5832,1.5832,1.5832,1.5832,1.5832,1.5832,1.5832,1.5832,1.5832,1.5832,1.5832,1.5892,1.5972,1.5972,1.6166,1.6413,1.6413,1.6547,1.6727,1.682,1.6847,1.6867,1.6961,1.6847,1.6727,1.682,1.6847,1.6874,1.6961,1.6981,1.6981,1.6981,1.6981,1.6668,1.5825,1.5723,1.5409,1.4482,1.4207,1.4156,1.4156,1.4089,1.3835,1.3421,1.3421,1.3217,1.2812,1.3217,1.3217,1.2812,1.0712,0.9473,0.9473,0.9075,0.8928,0.9046,0.8642,0.8588,0.9205,0.9205,0.9205,0.9205,0.9205,0.8895,0.76,0.7814,0.8038,0.8038,0.0,0.0,0.8038,0.8038,0.8038,0.8038,0.8163,0.8269,0.8269,0.8509,0.8706,0.871,1.0124,1.1105,1.1105,1.2403,1.3372,1.3372,1.3372,1.3911,1.531,1.5417,1.6068,1.7477,1.7582,1.7582,1.7582,1.7582,1.7582,1.7582,1.7582,1.7582,1.7582,1.7582,1.7582,1.7582,1.7582,1.7275,1.6707,1.6707,1.6553,1.6279,1.6279,1.6106,1.5832,1.5832,1.5832,1.5832,1.5832,1.5832,1.5825,1.5832,1.5832,1.5832,1.5832,1.6025,1.6273,1.6273,1.6473,1.6707,1.6707,1.6714,1.6774,1.717,1.7257,1.7324,1.7508,1.7148,1.6787,1.7081,1.7154,1.7235,1.7522,1.7582,1.7582,1.7582,1.7582,1.7582,1.7582,1.7582,1.7582,1.7582,1.7335,1.7154,1.7154,1.6894,1.6199,1.4957,1.4856,1.4247,1.292,1.4044,1.4247,1.292,1.2818,1.2818,1.2812,1.147,1.0746,1.075,0.9309,0.9309,1.075,1.075,1.075,1.075,1.0647,0.9928,0.76,0.7814,0.8038,0.8038,0.0,0.0,0.0,0.8038,0.0,0.0,0.8075,0.8438,0.9443,0.9749,1.0211,1.1411,1.1931,1.234,1.2596,1.3911,1.477,1.477,1.5743,1.6499,1.6929,1.6935,1.7147,1.7582,1.7582,1.7582,1.7582,1.7582,1.7582,1.7582,1.7582,1.7582,1.7582,1.7582,1.7582,1.7582,1.7582,1.7382,1.7014,1.7014,1.686,1.6573,1.6573,1.6413,1.6126,1.5912,1.5832,1.5832,1.5832,1.6386,1.7037,1.6109,1.6524,1.7273,1.6422,1.7002,1.8025,1.8025,1.8814,1.9865,1.9865,2.003,2.0249,2.035,2.0382,2.0209,1.9191,1.8875,1.8554,1.7637,1.7455,1.7475,1.7562,1.7582,1.7582,1.7582,1.7582,1.7582,1.7582,1.7582,1.7582,1.7582,1.7508,1.7455,1.7455,1.7375,1.7218,1.6788,1.6788,1.6573,1.6254,1.6573,1.6573,1.6149,1.6149,1.5139,1.2931,1.2402,1.226,1.2297,1.1882,1.1957,1.2535,1.1469,1.1469,1.2428,1.0405,0.9764,0.76,0.7814,0.0,0.8038,0.8038,0.8038,0.8038,0.0,0.0,0.0,0.8432,0.905,0.9938,1.0615,1.1369,1.2531,1.3294,1.3752,1.4094,1.5417,1.628,1.628,1.7041,1.7582,1.7582,1.7582,1.7582,1.7582,1.7582,1.7582,1.7582,1.7582,1.7582,1.7582,1.7582,1.7582,1.7582,1.7582,1.7582,1.7582,1.7582,1.7796,1.8128,1.7626,1.7161,1.6874,1.676,1.6898,1.719,1.6882,1.7028,1.7472,1.7347,1.7845,1.8512,1.7762,1.8255,1.9024,1.8349,1.8754,1.9716,1.9716,2.0432,2.142,2.142,2.1578,2.1752,2.1752,2.1752,2.1347,1.993,1.9627,1.922,1.7891,1.7582,1.7582,1.7582,1.7582,1.7582,1.7582,1.7582,1.7582,1.7582,1.7582,1.7582,1.7582,1.7582,1.7582,1.7582,1.7582,1.7582,1.7582,1.7582,1.7582,1.7582,1.7582,1.7582,1.7582,1.7582,1.6774,1.4763,1.4123,1.387,1.39,1.3376,1.3448,1.4126,1.3264,1.3264,1.4126,1.1755,1.0781,0.76,0.7814,0.8038,0.8038,0.8038,0.0,0.8137,0.8134,0.8134,0.8134,0.9217,1.0194,1.0288,1.1415,1.2509,1.2832,1.4207,1.5303,1.5559,1.6698,1.7582,1.7582,1.7582,1.7582,1.7582,1.7582,1.7582,1.7582,1.7582,1.7582,1.7582,1.7582,1.7582,1.7582,1.7582,1.7582,1.7582,1.7582,1.7582,1.7582,1.7582,1.8199,1.9428,1.8297,1.7748,1.7572,1.7271,1.7818,1.886,1.8535,1.9051,2.0135,1.9719,1.9878,2.0356,2.016,2.0495,2.1004,2.0908,2.1142,2.1452,2.1452,2.1678,2.2055,2.2055,2.2055,2.2055,2.2055,2.2055,2.1752,2.0333,1.9834,1.942,1.8094,1.7687,1.7582,1.7582,1.7582,1.7582,1.7582,1.7582,1.7582,1.7582,1.7582,1.7582,1.7582,1.7582,1.7582,1.7582,1.7582,1.7582,1.7582,1.7582,1.7582,1.7582,1.7582,1.7582,1.7582,1.7582,1.7582,1.7582,1.628,1.5636,1.5636,1.4341,1.4341,1.5636,1.5417,1.5417,1.531,1.3804,1.2403,0.76,0.7814,0.0,0.8038,0.8038,0.8233,0.9316,0.9608,0.9608,0.9608,1.0583,1.1848,1.2904,1.3335,1.3945,1.5312,1.5995,1.6488,1.6775,1.7226,1.7582,1.7582,1.7582,1.7582,1.7582,1.7582,1.7582,1.7582,1.7582,1.7582,1.7582,1.7582,1.7582,1.7582,1.7582,1.7582,1.7582,1.7582,1.7582,1.7582,1.7582,1.7786,1.8094,1.8812,1.9789,2.071,2.0353,2.04,2.0663,2.0313,2.0358,2.0637,2.0554,2.1156,2.1999,2.1026,2.1456,2.2373,2.148,2.2021,2.3152,2.3152,2.3925,2.4815,2.4815,2.4815,2.4815,2.4815,2.4815,2.451,2.3185,2.2064,2.0939,1.9524,1.8408,1.7582,1.7582,1.7582,1.7582,1.7582,1.7582,1.7582,1.7582,1.7582,1.7582,1.7582,1.7582,1.7582,1.7582,1.7582,1.7582,1.7582,1.7582,1.7582,1.7582,1.7582,1.7582,1.7582,1.7582,1.7582,1.7582,1.7259,1.7147,1.7147,1.6823,1.6823,1.7147,1.5956,1.5417,1.531,1.2724,1.1433,0.76,0.0,0.0,0.8038,0.0,0.9118,0.9801,1.097,1.1843,1.1843,1.2425,1.3102,1.3776,1.4364,1.514,1.6122,1.64,1.6653,1.7088,1.7281,1.7428,1.7562,1.7582,1.7582,1.7582,1.7582,1.7582,1.7582,1.7582,1.7582,1.7582,1.7582,1.7582,1.7582,1.7582,1.7582,1.7582,1.7582,1.7884,1.861,1.861,1.9213,2.0538,1.9834,2.0033,2.0727,2.0545,2.117,2.2339,2.1268,2.1698,2.2858,2.2564,2.3091,2.3758,2.3067,2.3428,2.4184,2.3581,2.3923,2.4609,2.4609,2.5128,2.5742,2.5742,2.5742,2.5742,2.5742,2.5742,2.543,2.4097,2.3176,2.2265,2.0939,1.9117,1.7582,1.7582,1.7582,1.7582,1.7582,1.7582,1.7582,1.7582,1.7582,1.7582,1.7582,1.7582,1.7582,1.7582,1.7582,1.7582,1.7582,1.7582,1.7582,1.7582,1.7582,1.7582,1.7582,1.7582,1.7582,1.7582,1.7582,1.7582,1.7582,1.7582,1.7582,1.7582,1.6823,1.6493,1.6387,1.348,1.2186,0.76,0.0,0.8038,0.8038,0.9019,0.0,1.0293,1.2134,1.3968,1.4166,1.4262,1.4262,1.4262,1.5051,1.5912,1.6152,1.6239,1.646,1.7001,1.7114,1.7255,1.7549,1.7582,1.7582,1.7582,1.7582,1.7582,1.7582,1.7582,1.7582,1.7582,1.7582,1.7582,1.7582,1.7582,1.7687,1.7891,1.7996,1.8603,1.993,1.993,2.1151,2.3285,2.1253,2.0444,2.0649,2.0649,2.1963,2.3971,2.242,2.3187,2.5146,2.4785,2.4863,2.5185,2.5185,2.542,2.5742,2.5742,2.5742,2.5742,2.5742,2.5742,2.5742,2.5742,2.5742,2.5742,2.5742,2.5742,2.543,2.4304,2.389,2.3384,2.2265,2.0128,1.8192,1.7989,1.7996,1.7891,1.7687,1.7582,1.7582,1.7582,1.7582,1.7582,1.7582,1.7582,1.7582,1.7582,1.7582,1.7582,1.7582,1.7582,1.7582,1.7582,1.7582,1.7582,1.7582,1.7582,1.7582,1.7582,1.7582,1.7582,1.7582,1.7582,1.7582,1.7582,1.7582,1.7477,1.7147,1.4776,1.348,0.76,0.0,0.8038,0.0,0.9019,1.0288,0.0,0.0,1.4166,1.5343,1.554,1.554,1.554,1.573,1.5845,1.5879,1.6106,1.6386,1.672,1.6987,1.7255,1.7549,1.7582,1.7582,1.7582,1.7582,1.7582,1.7582,1.7582,1.7582,1.7582,1.7582,1.7582,1.7582,1.7582,1.8199,1.9324,1.9324,2.0033,2.1448,2.1448,2.1651,2.1954,2.2767,2.3791,2.4922,2.4922,2.5128,2.5421,2.5168,2.5246,2.5644,2.5586,2.5596,2.5644,2.5644,2.5684,2.5742,2.5742,2.5742,2.5742,2.5742,2.5742,2.5742,2.5742,2.5742,2.5742,2.5742,2.5742,2.5635,2.543,2.4609,2.3683,2.3484,2.2265,2.0837,1.9627,1.9324,1.9013,1.7786,1.7582,1.7582,1.7582,1.7582,1.7582,1.7582,1.7582,1.7582,1.7582,1.7582,1.7582,1.7582,1.7582,1.7582,1.7582,1.7582,1.7582,1.7582,1.7582,1.7582,1.7582,1.7582,1.7582,1.7582,1.7582,1.7582,1.7582,1.7582,1.6929,1.563,1.531,1.4449,0.7675,0.7875,0.8134,0.0,1.0096,1.1458,1.2716,1.4076,1.5146,1.5635,1.5832,1.5832,1.5832,1.5832,1.5832,1.5832,1.5939,1.6126,1.642,1.6714,1.7014,1.7301,1.7482,1.7582,1.7582,1.7582,1.7582,1.7582,1.7582,1.7582,1.7582,1.7582,1.7891,1.8708,1.8708,1.942,2.0743,2.0743,2.1448,2.2868,2.3583,2.389,2.3989,2.451,2.4716,2.4609,2.4609,2.502,2.5635,2.4913,2.502,2.5742,2.5742,2.5742,2.5742,2.5742,2.5742,2.5742,2.5742,2.5742,2.5742,2.5742,2.5742,2.5742,2.5742,2.5742,2.5742,2.5742,2.5742,2.5742,2.5742,2.5226,2.4815,2.4815,2.4402,2.3583,2.2165,2.1355,2.0333,1.9013,1.8708,1.8506,1.7681,1.7582,1.7582,1.7582,1.7582,1.7582,1.7582,1.7582,1.7582,1.7582,1.7582,1.7582,1.7582,1.7582,1.7582,1.7582,1.7582,1.7582,1.7582,1.7582,1.7582,1.7582,1.7582,1.7582,1.7582,1.7582,1.7259,1.6605,1.5743,1.5091,0.0,0.0,0.8821,1.0194,1.1458,1.2624,0.0,1.4854,1.5832,1.5832,1.5832,1.5832,1.5832,1.5832,1.5832,1.5832,1.5832,1.5932,1.6233,1.652,1.6814,1.7114,1.7408,1.7582,1.7582,1.7582,1.7582,1.7582,1.7582,1.7582,1.7582,1.7884,1.8603,1.9524,1.993,2.0845,2.2156,2.2567,2.3176,2.4205,2.5226,2.5742,2.5742,2.5742,2.5128,2.4196,2.4196,2.4815,2.5635,2.4609,2.4815,2.5742,2.5742,2.5742,2.5742,2.5742,2.5742,2.5742,2.5742,2.5742,2.5742,2.5742,2.5742,2.5742,2.5742,2.5742,2.5742,2.5742,2.5742,2.5742,2.5742,2.5742,2.5742,2.5742,2.5742,2.5333,2.3998,2.2667,2.1245,1.9826,1.9627,1.922,1.7786,1.7582,1.7582,1.7582,1.7582,1.7582,1.7582,1.7582,1.7582,1.7582,1.7582,1.7582,1.7582,1.7582,1.7582,1.7582,1.7582,1.7582,1.7582,1.7582,1.7582,1.7582,1.7582,1.7582,1.7582,1.7582,1.7582,1.7582,1.6499,1.5956,0.0,0.9757,0.0,1.1458,1.2818,1.3782,1.3872,1.4854,1.5832,1.5832,1.5832,1.5832,1.5832,1.5832,1.5832,1.5832,1.5832,1.5932,1.6233,1.652,1.6814,1.7114,1.7408,1.7582,1.7582,1.7582,1.7582,1.7582,1.7582,1.7582,1.7582,1.8812,1.9524,1.9627,2.0939,2.2257,2.3583,2.4815,2.5538,2.5635,2.5635,2.5742,2.5742,2.5742,2.5635,2.5635,2.5635,2.5635,2.5732,2.5635,2.5635,2.5742,2.5742,2.5742,2.5742,2.5742,2.5742,2.5742,2.5742,2.5742,2.5742,2.5742,2.5742,2.5742,2.5742,2.5742,2.5742,2.5742,2.5742,2.5742,2.5742,2.5742,2.5742,2.5742,2.5742,2.5333,2.3998,2.2667,2.1245,1.9826,1.9627,1.922,1.7786,1.7582,1.7582,1.7582,1.7582,1.7582,1.7582,1.7582,1.7582,1.7582,1.7582,1.7582,1.7582,1.7582,1.7582,1.7582,1.7582,1.7582,1.7582,1.7582,1.7582,1.7582,1.7582,1.7582,1.7582,1.7582,1.7582,1.7582,1.7477,1.7477,0.0,0.0,0.0,1.2678,1.3584,1.407,1.4949,1.5439,1.5832,1.5832,1.5832,1.5832,1.5832,1.5832,1.5832,1.5832,1.5832,1.5865,1.5972,1.6239,1.654,1.6827,1.7128,1.7375,1.7562,1.8401,1.8506,1.7687,1.9213,1.9826,1.8916,2.0231,2.1347,2.2165,2.2676,2.3583,2.502,2.543,2.5742,2.5742,2.5742,2.5742,2.5742,2.5742,2.5742,2.5742,2.5742,2.5742,2.5742,2.5742,2.5742,2.5742,2.5742,2.5742,2.5742,2.5742,2.5742,2.5742,2.5742,2.5742,2.5742,2.5742,2.5742,2.5742,2.5742,2.5742,2.5742,2.5742,2.5742,2.5742,2.5742,2.5742,2.5742,2.5742,2.5742,2.5538,2.5128,2.4609,2.389,2.2475,2.2265,2.1862,2.0436,2.0231,1.9922,1.9013,1.8916,1.8603,1.7687,1.7582,1.7582,1.7582,1.7582,1.7582,1.7582,1.7582,1.7582,1.7582,1.7582,1.7582,1.7582,1.7582,1.7582,1.7582,1.7582,1.7582,1.7582,1.7582,1.7582,1.7582,1.7582,1.7582,0.967,0.0,0.0,0.0,1.4493,1.4752,1.5635,1.5832,1.5832,1.5832,1.5832,1.5832,1.5832,1.5832,1.5832,1.5832,1.5832,1.5832,1.5832,1.6464,1.7051,1.735,1.8053,1.8563,1.8977,1.9826,1.993,1.9005,2.0633,2.1245,2.0333,2.1651,2.2976,2.4304,2.4402,2.4815,2.5732,2.5742,2.5742,2.5742,2.5742,2.5742,2.5742,2.5742,2.5742,2.5742,2.5742,2.5742,2.5742,2.5742,2.5742,2.5742,2.5742,2.5742,2.5742,2.5742,2.5742,2.5742,2.5742,2.5742,2.5742,2.5742,2.5742,2.5742,2.5742,2.5742,2.5742,2.5742,2.5742,2.5742,2.5742,2.5742,2.5742,2.5742,2.5742,2.5742,2.5742,2.5742,2.5323,2.3989,2.3692,2.3276,2.1954,2.1752,2.1245,1.9834,1.9627,1.9117,1.7786,1.7582,1.7582,1.7582,1.7582,1.7582,1.7582,1.7582,1.7582,1.7582,1.7582,1.7582,1.7582,1.7582,1.7582,1.7582,1.7582,1.7582,1.7582,1.7582,1.7582,1.7582,1.7582,1.7582,0.0,0.0,0.0,0.0,1.5605,1.5812,1.5812,1.5818,1.5832,1.5832,1.5832,1.5832,1.5825,1.5832,1.5825,1.5825,1.5832,1.5832,1.5832,1.7208,1.8275,1.8694,2.0091,2.1131,2.1593,2.1744,2.1752,2.1752,2.1752,2.1853,2.1752,2.3076,2.4402,2.5635,2.5742,2.5742,2.5742,2.5742,2.5742,2.5742,2.5742,2.5742,2.5742,2.5742,2.5742,2.5742,2.5742,2.5742,2.5742,2.5742,2.5742,2.5742,2.5742,2.5742,2.5742,2.5742,2.5742,2.5742,2.5742,2.5742,2.5742,2.5742,2.5742,2.5742,2.5742,2.5742,2.5742,2.5742,2.5742,2.5742,2.5742,2.5742,2.5742,2.5742,2.5742,2.5742,2.5742,2.5742,2.5323,2.3998,2.3791,2.3384,2.2055,2.1853,2.1347,1.9834,1.9627,1.9117,1.7786,1.7582,1.7582,1.7582,1.7582,1.7582,1.7582,1.7582,1.7582,1.7582,1.7582,1.7582,1.7582,1.7582,1.7582,1.7582,1.7582,1.7582,1.7582,1.7582,1.7582,1.7582,1.7582,1.7582,1.0721,0.0,0.0,0.0,0.0,0.0,1.5518,1.5678,1.5832,1.5832,1.5832,1.6109,1.7037,1.6386,1.6109,1.7037,1.7131,1.7131,1.7131,1.8303,1.922,1.9573,2.0207,2.0858,2.1122,2.2404,2.2767,2.1752,2.3484,2.4196,2.3176,2.4402,2.5323,2.5645,2.5742,2.5742,2.5742,2.5742,2.5742,2.5742,2.5742,2.5742,2.5742,2.5742,2.5742,2.5742,2.5742,2.5742,2.5742,2.5742,2.5742,2.5742,2.5742,2.5742,2.5742,2.5742,2.5742,2.5742,2.5742,2.5742,2.5742,2.5742,2.5742,2.5742,2.5742,2.5742,2.5742,2.5742,2.5742,2.5742,2.5742,2.5742,2.5742,2.5742,2.5742,2.5742,2.5742,2.5742,2.5635,2.5226,2.5128,2.502,2.4609,2.4609,2.3791,2.1448,2.1143,2.0231,1.7891,1.7582,1.7582,1.7582,1.7582,1.7582,1.7582,1.7582,1.7582,1.7582,1.7582,1.7582,1.7582,1.7582,1.7582,1.7582,1.7582,1.7582,1.7582,1.7582,1.7582,1.7582,1.7582,1.7582,0.0,0.0,0.0,0.0,0.0,0.0,1.5364,1.5524,1.5678,1.5805,1.5832,1.6204,1.7505,1.7131,1.703,1.8226,1.8864,1.8864,1.787,1.9131,2.0352,2.0737,2.1445,2.2182,2.2629,2.3694,2.4012,2.3367,2.4815,2.5333,2.4609,2.5323,2.5742,2.5742,2.5742,2.5742,2.5742,2.5742,2.5742,2.5742,2.5742,2.5742,2.5742,2.5742,2.5742,2.5742,2.5742,2.5742,2.5742,2.5742,2.5742,2.5742,2.5742,2.5742,2.5742,2.5742,2.5742,2.5742,2.5742,2.5742,2.5742,2.5742,2.5742,2.5742,2.5742,2.5742,2.5742,2.5742,2.5742,2.5742,2.5742,2.5742,2.5742,2.5742,2.5742,2.5742,2.5742,2.5742,2.5742,2.5742,2.5742,2.5742,2.5742,2.5742,2.4815,2.2055,2.1752,2.0735,1.7996,1.7582,1.7582,1.7582,1.7582,1.7582,1.7582,1.7582,1.7582,1.7582,1.7582,1.7582,1.7582,1.7582,1.7582,1.7582,1.7582,1.7582,1.7582,1.7582,1.7582,1.7582,1.7582,1.7582,0.0,0.0,0.0,0.0,1.4777,0.0,1.5413,1.5593,1.5787,1.6081,1.6149,1.6525,1.7863,1.7956,1.8319,1.9497,2.0576,2.0567,1.8411,2.0034,2.1626,2.2099,2.3109,2.4092,2.4853,2.4971,2.5185,2.5635,2.5713,2.5742,2.5742,2.5742,2.5742,2.5742,2.5742,2.5742,2.5742,2.5742,2.5742,2.5742,2.5742,2.5742,2.5742,2.5742,2.5742,2.5742,2.5742,2.5742,2.5742,2.5742,2.5742,2.5742,2.5742,2.5742,2.5742,2.5742,2.5742,2.5742,2.5742,2.5742,2.5742,2.5742,2.5742,2.5742,2.5742,2.5742,2.5742,2.5742,2.5742,2.5742,2.5742,2.5742,2.5742,2.5742,2.5742,2.5742,2.5742,2.5742,2.5742,2.5742,2.5742,2.5742,2.5742,2.5742,2.4815,2.2257,2.1954,2.1041,1.8394,1.8094,1.7989,1.7891,1.7786,1.7786,1.7582,1.7582,1.7582,1.7582,1.7582,1.7582,1.7582,1.7582,1.7582,1.7582,1.7582,1.7582,1.7582,1.7582,1.7582,1.7582,1.7582,1.7582,0.0,0.0,0.0,1.4168,1.5049,0.0,1.5937,1.6847,1.7754,1.8182,1.8261,1.8791,2.0335,1.9761,1.9588,2.0747,2.1114,2.1114,2.0666,2.1854,2.2803,2.289,2.3396,2.3857,2.4023,2.4346,2.4727,2.5166,2.5527,2.5742,2.5742,2.5742,2.5742,2.5742,2.5742,2.5742,2.5742,2.5742,2.5742,2.5742,2.5742,2.5742,2.5742,2.5742,2.5742,2.5742,2.5742,2.5742,2.5742,2.5742,2.5742,2.5742,2.5742,2.5742,2.5742,2.5742,2.5742,2.5742,2.5742,2.5742,2.5742,2.5742,2.5742,2.5742,2.5742,2.5742,2.5742,2.5742,2.5742,2.5742,2.5742,2.5742,2.5742,2.5742,2.5742,2.5742,2.5742,2.5742,2.5742,2.5742,2.5742,2.5742,2.5742,2.5742,2.5128,2.3583,2.3285,2.2767,2.1143,2.0939,2.0436,1.9324,1.922,1.8812,1.7687,1.7582,1.7582,1.7582,1.7582,1.7582,1.7582,1.7582,1.7582,1.7582,1.7582,1.7582,1.7582,1.7582,1.7582,1.7582,1.7582,1.7582,1.1638,1.2772,1.4088,1.4088,1.5007,0.0,0.0,1.7079,1.8087,1.8431,1.8652,1.9276,2.0695,2.0641,2.0773,2.2031,2.2217,2.2217,2.2217,2.2677,2.3135,2.3135,2.333,2.3555,2.3769,2.3975,2.4287,2.4717,2.5156,2.54,2.54,2.5615,2.5742,2.5742,2.5742,2.5742,2.5742,2.5742,2.5742,2.5742,2.5742,2.5742,2.5742,2.5742,2.5742,2.5742,2.5742,2.5742,2.5742,2.5742,2.5742,2.5742,2.5742,2.5742,2.5742,2.5742,2.5742,2.5742,2.5742,2.5742,2.5742,2.5742,2.5742,2.5742,2.5742,2.5742,2.5742,2.5742,2.5742,2.5742,2.5742,2.5742,2.5742,2.5742,2.5742,2.5742,2.5742,2.5742,2.5742,2.5742,2.5742,2.5742,2.5742,2.5742,2.5226,2.389,2.3692,2.3176,2.1853,2.1752,2.1143,1.9731,1.9627,1.9013,1.7687,1.7582,1.7582,1.7582,1.7582,1.7582,1.7582,1.7582,1.7582,1.7582,1.7582,1.7582,1.7582,1.7582,1.7582,1.7582,1.7582,1.7582,1.2328,1.3203,1.4173,1.4328,1.522,1.6095,0.0,0.0,0.0,1.8752,1.9058,1.9635,2.0685,2.13,2.1822,2.2737,2.3027,2.3105,2.3027,2.3086,2.3135,2.3135,2.3135,2.3271,2.3633,2.374,2.3935,2.4268,2.4697,2.498,2.5059,2.541,2.5644,2.5742,2.5742,2.5742,2.5742,2.5742,2.5742,2.5742,2.5742,2.5742,2.5742,2.5742,2.5742,2.5742,2.5742,2.5742,2.5742,2.5742,2.5742,2.5742,2.5742,2.5742,2.5742,2.5742,2.5742,2.5742,2.5742,2.5742,2.5742,2.5742,2.5742,2.5742,2.5742,2.5742,2.5742,2.5742,2.5742,2.5742,2.5742,2.5742,2.5742,2.5742,2.5742,2.5742,2.5742,2.5742,2.5742,2.5742,2.5742,2.5742,2.5742,2.5742,2.5333,2.4205,2.4097,2.3683,2.2567,2.2458,2.1963,2.0538,2.0135,1.942,1.8094,1.7786,1.7582,1.7582,1.7582,1.7582,1.7582,1.7582,1.7582,1.7582,1.7582,1.7582,1.7582,1.7582,1.7582,1.7582,1.7582,1.7582,1.2589,1.3203,1.4334,1.5296,1.6355,1.7432,1.8442,0.0,2.0359,2.079,0.0,2.1068,2.1627,0.0,0.0,2.209,2.2656,2.3008,2.2637,2.291,2.3135,2.3135,2.3135,2.3154,2.3213,2.3564,2.3809,2.3857,2.4258,2.4658,2.5049,2.5117,2.5322,2.5723,2.5742,2.5742,2.5742,2.5742,2.5742,2.5742,2.5742,2.5742,2.5742,2.5742,2.5742,2.5742,2.5742,2.5742,2.5742,2.5742,2.5742,2.5742,2.5742,2.5742,2.5742,2.5742,2.5742,2.5742,2.5742,2.5742,2.5742,2.5742,2.5742,2.5742,2.5742,2.5742,2.5742,2.5742,2.5742,2.5742,2.5742,2.5742,2.5742,2.5742,2.5742,2.5742,2.5742,2.5742,2.5742,2.5742,2.5742,2.5742,2.5742,2.5742,2.5635,2.5528,2.543,2.543,2.5226,2.5226,2.4716,2.3384,2.2156,2.0939,1.9524,1.8297,1.7582,1.7582,1.7582,1.7582,1.7582,1.7582,1.7582,1.7582,1.7582,1.7582,1.7582,1.7582,1.7582,1.7582,1.7582,1.7582,1.347,1.373,1.4328,1.5455,1.6519,1.7585,1.8718,1.9844,2.0625,2.081,0.0,0.0,0.0,0.0,0.0,0.0,2.2549,2.2793,2.2861,2.3027,2.3135,2.3135,2.3135,2.3135,2.3135,2.3301,2.3408,2.3408,2.3809,2.4131,2.4316,2.456,2.4775,2.4961,2.4971,2.5098,2.5352,2.5352,2.5478,2.5742,2.5742,2.5742,2.5742,2.5742,2.5742,2.5742,2.5742,2.5742,2.5742,2.5742,2.5742,2.5742,2.5742,2.5742,2.5742,2.5742,2.5742,2.5742,2.5742,2.5742,2.5742,2.5742,2.5742,2.5742,2.5742,2.6197,2.6754,2.6754,2.6754,2.6754,2.6754,2.6294,2.5742,2.5742,2.5742,2.5742,2.5742,2.5742,2.5742,2.5742,2.5742,2.5742,2.5742,2.5742,2.5742,2.5742,2.5742,2.5742,2.5742,2.5742,2.5226,2.3791,2.2466,2.1448,2.0845,1.9524,1.8708,1.8708,1.7996,1.7582,1.7582,1.7582,1.7582,1.7582,1.7582,1.7582,1.7582,1.7582,1.7582,1.7582,1.7582,1.7582,1.4088,1.4328,1.4817,1.5869,1.6927,1.8069,1.9195,2.0001,2.0566,2.0566,2.082,0.0,0.0,0.0,2.1768,2.1953,0.0,2.2451,2.2754,2.2891,2.3008,2.3125,2.3135,2.3135,2.3135,2.3135,2.3135,2.3135,2.3437,2.3662,2.3779,2.4082,2.4297,2.4414,2.4414,2.457,2.4883,2.4893,2.5049,2.5371,2.5371,2.5371,2.5371,2.5371,2.5371,2.5371,2.5371,2.5371,2.5381,2.5508,2.5557,2.5566,2.5684,2.5742,2.5742,2.5742,2.5742,2.5742,2.5742,2.5742,2.5732,2.611,2.6197,2.6294,2.6562,2.74,2.8132,2.8132,2.7861,2.7589,2.7589,2.6668,2.5742,2.5742,2.5742,2.5742,2.5742,2.5742,2.5742,2.5742,2.5742,2.5742,2.5742,2.5742,2.5742,2.5742,2.5742,2.5742,2.5742,2.5742,2.5333,2.4304,2.3076,2.2257,2.2257,2.0939,2.0033,1.9627,1.8297,1.7582,1.7582,1.7582,1.7582,1.7582,1.7582,1.7582,1.7582,1.7582,1.7582,1.7582,1.7582,1.7582,1.4088,1.4894,1.5944,1.7009,1.8069,1.9204,2.0323,2.0566,2.0566,2.0566,2.0576,2.0586,2.0586,2.0947,2.1123,0.0,0.0,0.0,0.0,2.2275,2.2685,2.3096,2.3135,2.3135,2.3135,2.3135,2.3135,2.3135,2.3154,2.335,2.3769,2.3799,2.3994,2.4404,2.4414,2.4424,2.4443,2.4443,2.4443,2.4453,2.4453,2.4453,2.4453,2.4453,2.4453,2.4453,2.4453,2.4453,2.4492,2.4912,2.5088,2.5137,2.5566,2.5742,2.5742,2.5742,2.5742,2.5742,2.5742,2.5742,2.5917,2.7125,2.7494,2.7767,2.8958,2.9315,2.9315,2.9315,2.8495,2.7589,2.7589,2.6668,2.5742,2.5742,2.5742,2.5742,2.5742,2.5742,2.5742,2.5742,2.5742,2.5742,2.5742,2.5742,2.5742,2.5742,2.5742,2.5742,2.5742,2.5742,2.5635,2.5635,2.4412,2.3692,2.3692,2.2357,2.1041,1.9731,1.8297,1.7582,1.7582,1.7582,1.7582,1.7582,1.7582,1.7582,1.7582,1.7582,1.7582,1.7582,1.7582,1.7582,1.4035,1.4328,1.5061,1.6854,1.7577,1.839,2.0157,2.0566,2.0566,2.0566,2.0566,2.0566,2.0566,2.1208,0.0,0.0,0.0,0.0,0.0,2.3196,2.3543,2.376,2.4703,2.5052,2.4296,2.4211,2.3877,2.3135,2.3135,2.3203,2.335,2.3359,2.3428,2.3564,2.3564,2.3711,2.4004,2.4004,2.4141,2.4414,2.4414,2.4414,2.4414,2.4414,2.4414,2.4414,2.4414,2.4414,2.4424,2.458,2.4639,2.4678,2.5127,2.5293,2.5332,2.5625,2.5742,2.583,2.6658,2.7484,2.8215,2.868,2.8773,2.8855,2.9315,2.9954,3.0586,3.0586,2.9681,2.8773,2.8773,2.721,2.5742,2.5742,2.5742,2.5742,2.5742,2.5742,2.5742,2.5742,2.5742,2.5742,2.5742,2.5742,2.5742,2.5742,2.5742,2.5742,2.5742,2.5742,2.5742,2.5742,2.451,2.4097,2.4922,2.2968,2.1143,1.9731,1.8297,1.7582,1.7582,1.7582,1.7582,1.7582,1.7582,1.7582,1.7582,1.7582,1.7689,1.7889,1.7889,1.7889,1.3848,1.449,1.5479,1.6895,1.79,1.8868,2.0245,2.0566,2.0566,2.0566,2.0566,2.0566,2.0566,2.1078,0.0,0.0,0.0,0.0,0.0,2.4371,2.4982,2.5297,2.5265,2.5136,2.4872,2.4457,2.3877,2.3135,2.3135,2.3135,2.3135,2.3135,2.3135,2.3135,2.3135,2.3271,2.3555,2.3555,2.3691,2.3965,2.3965,2.3965,2.3965,2.3965,2.3965,2.3965,2.3965,2.3965,2.3975,2.4131,2.4199,2.4238,2.4668,2.4932,2.5127,2.5566,2.5742,2.5927,2.7125,2.8132,2.8866,2.9772,3.0045,3.0135,3.0598,3.1235,3.1828,3.1634,3.0802,2.9999,2.9816,2.8086,2.639,2.639,2.6014,2.5742,2.5742,2.5742,2.5742,2.5742,2.5742,2.5742,2.5742,2.5742,2.5742,2.5742,2.5742,2.5742,2.5742,2.5742,2.5742,2.5742,2.4922,2.4716,2.5635,2.3276,2.1347,2.0436,1.8603,1.7582,1.7582,1.7582,1.7582,1.7582,1.7582,1.7635,1.7749,1.7749,1.7903,1.8203,1.8203,1.8263]},{"header":{"parameterUnit":"m.s-1","parameterCategory":1,"la1":30.6,"la2":29.2853,"lo1":-89.7004,"lo2":-87.6739,"dy":0.0162,"dx":0.0183,"nx":112,"ny":82,"refTime":"2023-05-22T00:00:00:Z","depth":0,"parameterNumber":3,"parameterNumberName":"V-component_of_WINDS"},"data":[0.0,0.0,0.0,0.0,0.0,0.0,0.0,0.0,0.0,0.0,0.0,0.0,0.0,0.0,0.0,0.0,0.0,0.0,0.0,0.0,0.0,0.0,0.0,0.0,0.0,0.0,0.0,0.0,0.0,0.0,0.0,0.0,0.0,0.0,0.0,0.0,0.0,0.0,0.0,0.0,0.0,0.0,0.0,0.0,0.0,0.0,0.0,0.0,0.0,0.0,0.0,0.0,0.0,0.0,0.0,0.0,0.0,0.0,0.0,0.0,0.0,0.0,0.0,0.0,0.0,0.0,0.0,0.0,0.0,0.0,0.0,0.0,0.0,0.0,0.0,0.0,0.0,0.0,0.0,0.0,0.0,0.0,0.0,0.0,0.0,0.0,0.0,0.0,0.0,0.0,3.5897,3.5849,3.5736,3.5675,3.5703,3.5692,3.5762,3.5887,0.0,0.0,0.0,0.0,0.0,0.0,0.0,0.0,0.0,0.0,0.0,0.0,0.0,0.0,0.0,0.0,0.0,0.0,0.0,0.0,0.0,0.0,0.0,0.0,0.0,0.0,0.0,0.0,0.0,0.0,0.0,0.0,0.0,0.0,0.0,0.0,0.0,0.0,0.0,0.0,0.0,0.0,0.0,0.0,0.0,0.0,0.0,0.0,0.0,0.0,0.0,0.0,0.0,0.0,0.0,0.0,0.0,0.0,0.0,0.0,0.0,0.0,0.0,0.0,0.0,0.0,0.0,0.0,0.0,0.0,0.0,0.0,0.0,0.0,0.0,0.0,0.0,0.0,0.0,0.0,0.0,0.0,0.0,0.0,0.0,0.0,0.0,0.0,0.0,0.0,0.0,0.0,0.0,0.0,0.0,0.0,0.0,0.0,0.0,0.0,0.0,0.0,0.0,0.0,3.583,3.5657,3.5585,3.5577,3.5689,3.569,3.5754,3.589,0.0,0.0,0.0,0.0,0.0,0.0,0.0,0.0,0.0,0.0,0.0,0.0,0.0,0.0,0.0,0.0,0.0,0.0,0.0,0.0,0.0,0.0,0.0,0.0,0.0,0.0,0.0,0.0,0.0,0.0,0.0,0.0,0.0,0.0,0.0,0.0,0.0,0.0,0.0,0.0,0.0,0.0,0.0,0.0,0.0,0.0,0.0,0.0,0.0,0.0,0.0,0.0,0.0,0.0,0.0,0.0,0.0,0.0,0.0,0.0,0.0,0.0,0.0,0.0,0.0,0.0,0.0,0.0,0.0,0.0,0.0,0.0,0.0,0.0,0.0,0.0,0.0,0.0,0.0,0.0,0.0,0.0,0.0,0.0,0.0,0.0,0.0,0.0,0.0,0.0,0.0,0.0,0.0,0.0,0.0,0.0,0.0,0.0,0.0,0.0,0.0,0.0,0.0,3.5763,3.569,3.5601,3.5553,3.5553,3.5648,3.5675,3.5768,3.5898,3.571,0.0,0.0,0.0,0.0,0.0,0.0,0.0,0.0,0.0,0.0,0.0,0.0,0.0,0.0,0.0,0.0,0.0,0.0,0.0,0.0,0.0,0.0,0.0,0.0,0.0,0.0,0.0,0.0,0.0,0.0,0.0,0.0,0.0,0.0,0.0,0.0,0.0,0.0,0.0,0.0,0.0,0.0,0.0,0.0,0.0,0.0,0.0,0.0,0.0,0.0,0.0,0.0,0.0,0.0,0.0,0.0,0.0,0.0,0.0,0.0,0.0,0.0,0.0,0.0,0.0,0.0,0.0,0.0,0.0,0.0,0.0,0.0,0.0,0.0,0.0,0.0,0.0,0.0,0.0,0.0,0.0,0.0,0.0,0.0,0.0,0.0,0.0,0.0,0.0,0.0,0.0,0.0,0.0,0.0,0.0,0.0,0.0,0.0,0.0,0.0,0.0,0.0,3.563,3.56,3.5577,3.5528,3.5534,3.56,3.5638,3.573,3.5841,3.5857,0.0,0.0,0.0,0.0,0.0,0.0,0.0,0.0,0.0,0.0,0.0,0.0,0.0,0.0,0.0,0.0,0.0,0.0,0.0,0.0,0.0,0.0,0.0,0.0,0.0,0.0,0.0,0.0,0.0,0.0,0.0,0.0,0.0,0.0,0.0,0.0,0.0,0.0,0.0,0.0,0.0,0.0,0.0,0.0,0.0,0.0,0.0,0.0,0.0,0.0,0.0,0.0,0.0,0.0,0.0,0.0,0.0,0.0,0.0,0.0,0.0,0.0,0.0,0.0,0.0,0.0,0.0,0.0,0.0,0.0,0.0,0.0,0.0,0.0,0.0,0.0,0.0,0.0,0.0,0.0,0.0,0.0,0.0,0.0,0.0,0.0,0.0,0.0,0.0,0.0,0.0,0.0,0.0,0.0,0.0,0.0,0.0,0.0,0.0,0.0,0.0,0.0,3.5591,3.5577,3.5515,3.5507,3.5534,3.56,3.5601,3.5639,3.571,3.5704,0.0,0.0,0.0,0.0,0.0,0.0,0.0,0.0,0.0,0.0,0.0,0.0,0.0,0.0,0.0,0.0,0.0,0.0,0.0,0.0,0.0,0.0,0.0,0.0,0.0,0.0,0.0,0.0,0.0,0.0,0.0,0.0,0.0,0.0,0.0,0.0,0.0,0.0,0.0,0.0,0.0,0.0,0.0,0.0,0.0,0.0,0.0,0.0,0.0,0.0,0.0,0.0,0.0,0.0,0.0,0.0,0.0,0.0,0.0,0.0,0.0,0.0,0.0,0.0,0.0,0.0,0.0,0.0,0.0,0.0,0.0,0.0,0.0,0.0,0.0,0.0,0.0,0.0,0.0,0.0,0.0,0.0,0.0,0.0,0.0,0.0,0.0,0.0,0.0,0.0,0.0,0.0,0.0,0.0,0.0,0.0,0.0,0.0,0.0,0.0,0.0,0.0,3.5577,3.5577,3.5501,3.5493,3.5515,3.554,3.5577,3.5611,3.5639,0.0,0.0,0.0,0.0,0.0,0.0,0.0,0.0,0.0,0.0,0.0,0.0,0.0,0.0,0.0,0.0,0.0,0.0,0.0,0.0,0.0,0.0,0.0,0.0,0.0,0.0,0.0,0.0,0.0,0.0,0.0,0.0,0.0,0.0,0.0,0.0,0.0,0.0,0.0,0.0,0.0,0.0,0.0,0.0,0.0,0.0,0.0,0.0,0.0,0.0,0.0,0.0,0.0,0.0,0.0,0.0,0.0,0.0,0.0,0.0,0.0,0.0,0.0,0.0,0.0,0.0,0.0,0.0,0.0,0.0,0.0,0.0,0.0,0.0,0.0,0.0,0.0,0.0,0.0,0.0,0.0,0.0,0.0,0.0,0.0,0.0,0.0,0.0,0.0,0.0,0.0,0.0,0.0,0.0,0.0,0.0,0.0,0.0,0.0,0.0,0.0,0.0,3.5515,3.5553,3.5558,3.5488,3.5493,3.5493,3.5493,3.5534,3.5574,3.5574,0.0,0.0,0.0,0.0,0.0,0.0,0.0,0.0,0.0,0.0,0.0,0.0,0.0,0.0,0.0,0.0,0.0,0.0,0.0,0.0,0.0,0.0,0.0,0.0,0.0,0.0,0.0,0.0,0.0,0.0,0.0,0.0,0.0,0.0,0.0,0.0,0.0,0.0,0.0,0.0,0.0,0.0,0.0,0.0,0.0,0.0,0.0,0.0,0.0,0.0,0.0,0.0,0.0,0.0,0.0,0.0,0.0,0.0,0.0,0.0,0.0,0.0,0.0,0.0,0.0,0.0,0.0,0.0,0.0,0.0,0.0,0.0,0.0,0.0,0.0,0.0,0.0,0.0,0.0,0.0,0.0,0.0,0.0,0.0,0.0,0.0,0.0,0.0,0.0,0.0,0.0,0.0,0.0,0.0,0.0,0.0,0.0,0.0,0.0,0.0,0.0,0.0,3.5493,3.5507,3.5507,3.5507,3.5493,3.5493,3.5493,3.5493,3.5493,0.0,0.0,0.0,0.0,0.0,0.0,0.0,0.0,0.0,0.0,0.0,0.0,0.0,0.0,0.0,0.0,0.0,0.0,0.0,0.0,0.0,0.0,0.0,0.0,0.0,0.0,0.0,0.0,0.0,0.0,0.0,0.0,0.0,0.0,0.0,0.0,0.0,0.0,0.0,0.0,0.0,0.0,0.0,0.0,0.0,0.0,0.0,0.0,0.0,0.0,0.0,0.0,0.0,0.0,0.0,0.0,0.0,0.0,0.0,0.0,0.0,0.0,0.0,0.0,0.0,0.0,0.0,0.0,0.0,0.0,0.0,0.0,0.0,0.0,0.0,0.0,0.0,0.0,0.0,0.0,0.0,0.0,0.0,0.0,0.0,0.0,0.0,0.0,0.0,0.0,0.0,0.0,0.0,0.0,0.0,0.0,0.0,0.0,0.0,0.0,0.0,0.0,0.0,3.5219,3.5418,3.5558,3.552,3.5493,3.5493,3.5493,3.5493,3.5432,3.5223,0.0,0.0,0.0,0.0,0.0,0.0,0.0,0.0,0.0,0.0,0.0,0.0,0.0,0.0,0.0,0.0,0.0,0.0,0.0,0.0,0.0,0.0,0.0,0.0,0.0,0.0,0.0,0.0,0.0,0.0,0.0,0.0,0.0,0.0,0.0,0.0,0.0,0.0,0.0,0.0,0.0,0.0,0.0,0.0,0.0,0.0,0.0,0.0,0.0,0.0,0.0,0.0,0.0,0.0,0.0,0.0,0.0,0.0,0.0,0.0,0.0,0.0,0.0,0.0,0.0,0.0,0.0,0.0,0.0,0.0,0.0,0.0,0.0,0.0,0.0,0.0,0.0,0.0,0.0,0.0,0.0,0.0,0.0,0.0,0.0,0.0,0.0,0.0,0.0,0.0,0.0,0.0,0.0,0.0,0.0,0.0,0.0,0.0,0.0,0.0,0.0,0.0,3.5122,3.5364,3.5502,3.535,3.5354,3.5304,3.519,3.5289,3.5273,3.5105,0.0,0.0,0.0,0.0,0.0,0.0,0.0,0.0,0.0,0.0,0.0,0.0,0.0,0.0,0.0,0.0,0.0,0.0,0.0,0.0,0.0,0.0,0.0,0.0,0.0,0.0,0.0,0.0,0.0,0.0,0.0,0.0,0.0,0.0,0.0,0.0,0.0,0.0,0.0,0.0,0.0,0.0,0.0,0.0,0.0,0.0,0.0,0.0,0.0,0.0,0.0,0.0,0.0,0.0,0.0,0.0,0.0,0.0,0.0,0.0,0.0,0.0,0.0,0.0,0.0,0.0,0.0,0.0,0.0,0.0,0.0,0.0,0.0,0.0,0.0,0.0,0.0,0.0,0.0,0.0,0.0,0.0,0.0,0.0,0.0,0.0,0.0,0.0,0.0,0.0,0.0,0.0,0.0,0.0,0.0,0.0,0.0,0.0,0.0,0.0,0.0,0.0,3.5016,3.5273,3.532,3.5088,3.5088,3.4999,3.4754,3.4963,3.5088,3.5051,0.0,0.0,0.0,0.0,0.0,0.0,0.0,0.0,0.0,0.0,0.0,0.0,0.0,0.0,0.0,0.0,0.0,0.0,0.0,0.0,0.0,0.0,0.0,0.0,0.0,0.0,0.0,0.0,0.0,0.0,0.0,0.0,0.0,0.0,0.0,0.0,0.0,0.0,0.0,0.0,0.0,0.0,0.0,0.0,0.0,0.0,0.0,0.0,0.0,0.0,0.0,0.0,0.0,0.0,0.0,0.0,0.0,0.0,0.0,0.0,3.3416,3.3269,0.0,0.0,0.0,0.0,0.0,0.0,0.0,0.0,0.0,0.0,0.0,0.0,0.0,0.0,0.0,0.0,0.0,0.0,0.0,0.0,0.0,0.0,0.0,0.0,0.0,0.0,0.0,0.0,0.0,0.0,0.0,0.0,0.0,0.0,0.0,0.0,0.0,0.0,0.0,0.0,3.4383,3.4675,3.4851,3.4774,3.4981,3.5088,3.5016,3.507,3.4999,3.4793,3.4793,0.0,0.0,0.0,0.0,0.0,0.0,0.0,0.0,0.0,0.0,0.0,0.0,0.0,0.0,0.0,0.0,0.0,0.0,0.0,0.0,0.0,0.0,0.0,0.0,0.0,0.0,0.0,0.0,0.0,0.0,0.0,0.0,0.0,0.0,0.0,0.0,0.0,0.0,0.0,0.0,0.0,0.0,0.0,0.0,0.0,0.0,0.0,0.0,0.0,0.0,0.0,0.0,0.0,0.0,0.0,0.0,0.0,0.0,0.0,3.2775,3.2903,0.0,0.0,0.0,0.0,0.0,0.0,0.0,0.0,0.0,0.0,0.0,0.0,0.0,0.0,0.0,0.0,0.0,0.0,0.0,0.0,0.0,0.0,0.0,0.0,0.0,0.0,0.0,0.0,0.0,0.0,0.0,0.0,0.0,0.0,0.0,0.0,0.0,0.0,0.0,0.0,3.4176,3.4508,3.4632,3.4486,3.4574,3.4615,3.4489,3.4595,3.4615,3.4467,3.4593,0.0,0.0,0.0,0.0,0.0,0.0,0.0,0.0,0.0,0.0,0.0,0.0,0.0,0.0,0.0,0.0,0.0,0.0,0.0,0.0,0.0,0.0,0.0,0.0,0.0,0.0,0.0,0.0,0.0,0.0,0.0,0.0,0.0,0.0,0.0,0.0,0.0,0.0,0.0,0.0,0.0,0.0,0.0,0.0,0.0,0.0,0.0,0.0,0.0,0.0,0.0,0.0,0.0,2.938,2.9442,2.9456,2.9897,3.0247,3.0642,3.2346,3.278,3.2183,3.1384,0.0,0.0,0.0,0.0,0.0,0.0,0.0,0.0,0.0,0.0,0.0,0.0,0.0,0.0,0.0,0.0,0.0,0.0,0.0,0.0,0.0,0.0,3.7877,3.8318,3.8433,3.8465,3.8546,0.0,0.0,0.0,0.0,0.0,0.0,0.0,0.0,0.0,0.0,0.0,3.4099,3.4375,3.4442,3.4171,3.4152,3.4099,3.3876,3.4068,3.42,3.42,3.4445,3.4572,0.0,0.0,0.0,0.0,0.0,0.0,0.0,0.0,0.0,0.0,0.0,0.0,0.0,0.0,0.0,0.0,0.0,0.0,0.0,0.0,0.0,0.0,0.0,0.0,0.0,0.0,0.0,0.0,0.0,0.0,0.0,0.0,3.5509,3.4688,0.0,0.0,0.0,0.0,0.0,0.0,0.0,0.0,0.0,0.0,0.0,0.0,0.0,2.8876,2.9002,2.9766,3.0133,3.0133,3.0837,3.1161,3.1161,3.1235,3.1293,3.1351,3.1661,0.0,3.1224,3.0675,0.0,0.0,0.0,0.0,0.0,0.0,0.0,0.0,0.0,0.0,0.0,0.0,0.0,0.0,0.0,0.0,0.0,0.0,0.0,0.0,0.0,0.0,3.7323,3.7377,3.7414,3.7524,3.7911,3.8382,3.8456,3.7692,3.7521,3.6982,0.0,0.0,0.0,0.0,0.0,0.0,3.3842,3.3895,3.3921,3.3868,3.4068,3.4195,3.4147,3.4195,3.42,3.42,3.4223,3.4147,3.3928,3.4141,0.0,0.0,0.0,0.0,0.0,0.0,0.0,0.0,0.0,0.0,0.0,0.0,0.0,0.0,0.0,0.0,0.0,0.0,0.0,0.0,0.0,0.0,0.0,0.0,0.0,0.0,0.0,0.0,0.0,3.5941,3.5207,3.4186,3.3786,3.3182,0.0,0.0,0.0,0.0,0.0,0.0,0.0,0.0,0.0,2.969,2.9752,2.995,3.0389,3.0777,3.097,3.097,3.1351,3.1482,3.1482,3.1482,3.1482,3.1482,3.1482,3.1441,3.1292,3.0565,3.023,3.0072,0.0,0.0,0.0,0.0,3.1422,3.216,3.3235,3.3786,3.4186,3.527,0.0,0.0,0.0,0.0,0.0,0.0,0.0,3.6333,3.6374,3.6563,3.6843,3.7152,3.719,3.7266,3.747,3.7344,3.7154,3.7076,3.6703,3.5981,3.4806,3.4255,0.0,0.0,0.0,3.355,3.3762,3.3807,3.3807,3.3807,3.3902,3.3986,3.3986,3.3986,3.3986,3.3986,3.4123,3.4147,3.4018,3.4147,3.4056,0.0,0.0,0.0,0.0,0.0,0.0,0.0,0.0,0.0,0.0,0.0,0.0,0.0,0.0,0.0,0.0,0.0,0.0,0.0,0.0,0.0,0.0,0.0,0.0,0.0,0.0,0.0,0.0,3.5854,3.5161,3.3987,3.3684,3.313,0.0,0.0,0.0,0.0,0.0,0.0,2.938,2.9317,2.969,3.0584,3.0584,3.0896,3.1482,3.1482,3.1482,3.1482,3.1482,3.1482,3.1482,3.1482,3.1482,3.1482,3.1482,3.1482,3.1467,3.0837,3.0524,3.0329,3.0329,3.0329,3.0389,3.097,3.1351,3.1682,3.313,3.3582,3.3836,3.5161,3.5622,3.5622,3.5622,0.0,0.0,0.0,0.0,3.5694,3.6097,3.6182,3.6308,3.6684,3.6786,3.6773,3.6735,3.6224,3.5916,3.6317,3.575,3.4988,3.4286,3.3731,0.0,3.3734,3.355,3.3465,3.3762,3.3807,3.3807,3.3807,3.3807,3.3807,3.3807,3.3807,3.3807,3.3807,3.3986,3.4099,3.4099,3.4099,3.4049,3.3956,0.0,0.0,0.0,0.0,0.0,0.0,0.0,0.0,0.0,0.0,0.0,0.0,0.0,0.0,0.0,0.0,0.0,0.0,0.0,0.0,0.0,0.0,0.0,0.0,0.0,0.0,0.0,0.0,0.0,3.4624,3.3987,0.0,0.0,0.0,0.0,3.0329,3.0329,3.0269,3.0269,3.0208,3.0584,3.1409,3.1409,3.1467,3.1482,3.1482,3.1482,3.1482,3.1482,3.1482,3.1482,3.1482,3.1482,3.1482,3.1482,3.1482,3.1482,3.1467,3.097,3.0329,3.0329,3.0329,3.0329,3.0329,3.0837,3.1682,3.313,3.3582,3.3836,3.5161,3.5622,3.5622,3.5622,3.5622,0.0,0.0,3.5622,3.5622,3.5605,3.5667,3.5667,3.565,3.5694,3.5623,3.5457,3.533,3.5304,3.5531,3.497,3.4317,3.3909,0.0,3.378,3.3807,3.3762,3.378,3.3807,3.3807,3.3807,3.3807,3.3807,3.3807,3.3807,3.3807,3.3807,3.3807,3.3815,3.3815,3.3815,3.3815,3.3634,3.3273,3.3243,0.0,0.0,0.0,0.0,0.0,0.0,0.0,0.0,0.0,0.0,0.0,0.0,0.0,0.0,0.0,0.0,0.0,0.0,0.0,0.0,0.0,0.0,0.0,0.0,0.0,0.0,0.0,0.0,3.4622,3.4382,0.0,3.3287,3.2625,3.2089,3.1777,3.1349,3.1087,3.1087,3.1087,3.1219,3.1482,3.1482,3.1482,3.1482,3.1482,3.1482,3.1482,3.1482,3.1482,3.1482,3.1482,3.1482,3.1482,3.1482,3.1482,3.1482,3.1482,3.1351,3.1146,3.1564,3.1777,3.1819,3.2275,3.2617,3.2971,3.3937,3.4235,3.4382,3.5316,3.5622,3.5622,3.5622,3.5622,3.5622,3.5622,3.5622,3.5622,3.5622,3.5622,3.5622,3.5622,3.525,3.4854,3.478,3.4004,3.3537,3.4163,3.4315,3.4214,3.3881,3.3807,3.3807,3.3807,3.3807,3.3807,3.3807,3.3807,3.3807,3.3807,3.3807,3.3807,3.3807,3.3807,3.3807,3.3807,3.3807,3.3807,3.3807,3.3807,3.3734,3.3578,3.3578,3.3225,0.0,0.0,0.0,0.0,0.0,0.0,0.0,0.0,0.0,0.0,0.0,0.0,0.0,0.0,0.0,0.0,0.0,0.0,0.0,0.0,0.0,0.0,0.0,0.0,0.0,3.4658,3.4421,3.4275,3.4444,3.4333,3.3684,3.3182,3.2841,3.2641,3.2176,3.1739,3.1524,3.1482,3.1482,3.1482,3.1482,3.1482,3.1482,3.1482,3.1482,3.1482,3.1482,3.1482,3.1482,3.1482,3.1482,3.1482,3.1482,3.164,3.1853,3.1582,3.164,3.191,3.2437,3.2586,3.2695,3.3339,3.3582,3.3684,3.4382,3.4736,3.5005,3.547,3.5622,3.5622,3.5622,3.5622,3.5622,3.5622,3.5622,3.5622,3.5622,3.5622,3.5554,3.5301,3.4861,3.4353,3.3863,3.3114,3.2668,3.316,3.3479,3.3736,3.3799,3.3807,3.3807,3.3807,3.3807,3.3807,3.3807,3.3807,3.3807,3.3807,3.3807,3.3807,3.3807,3.3807,3.3807,3.3807,3.3807,3.3807,3.3807,3.3807,3.3807,3.3807,3.3807,3.3447,3.2763,0.0,0.0,0.0,0.0,0.0,0.0,0.0,0.0,0.0,0.0,0.0,0.0,0.0,0.0,0.0,0.0,0.0,0.0,0.0,0.0,0.0,0.0,0.0,3.327,3.4041,3.4246,3.3614,3.4178,3.4349,3.3735,3.3633,3.3339,3.2695,3.2641,3.2327,3.1582,3.1582,3.1582,3.1582,3.1582,3.1582,3.1582,3.1524,3.1524,3.1524,3.1524,3.1482,3.1482,3.1482,3.1524,3.1524,3.1524,3.1951,3.2602,3.1838,3.2007,3.2641,3.2641,3.2641,3.2695,3.3391,3.3633,3.3735,3.4431,3.5052,3.5622,3.5622,3.5622,3.5622,3.5622,3.5605,3.5622,3.5667,3.5667,3.5605,3.5605,3.5622,3.5436,3.4692,3.4506,3.4143,3.2669,3.2694,3.2908,3.261,3.2517,3.2809,3.3634,3.3807,3.3807,3.3807,3.3807,0.0,3.3807,3.3807,3.3807,3.3807,3.3807,3.3807,3.3807,3.3807,3.3807,3.3807,3.3807,3.3807,3.3807,3.3807,3.3807,3.3807,3.3807,3.3578,3.3214,0.0,0.0,0.0,0.0,0.0,0.0,0.0,0.0,0.0,0.0,0.0,0.0,0.0,0.0,0.0,0.0,0.0,0.0,0.0,0.0,0.0,3.2301,3.2686,3.3761,3.3635,3.3607,3.4162,3.4421,3.4667,3.5018,3.4592,3.4235,3.4087,3.3582,3.3235,3.3024,3.3024,3.3024,3.3024,3.3024,3.3024,3.3024,3.2532,3.2272,3.2272,3.1739,3.1482,3.1482,3.1482,3.1796,3.2272,3.2272,3.268,3.3287,3.313,3.313,3.3339,3.3339,3.3339,3.3443,3.4609,3.5068,3.5068,3.5253,3.547,3.5622,3.5622,3.5622,3.565,3.6054,3.6182,3.6249,3.6643,3.6481,3.6182,3.6182,3.5898,3.5571,3.5368,3.5207,3.4812,3.3825,3.3554,3.3404,3.3064,3.3014,3.3184,3.3707,3.3807,3.3807,3.3807,3.3807,3.3807,3.3807,3.3807,3.3807,3.3807,3.3807,3.3807,3.3807,3.3986,3.3993,3.3815,3.3986,3.3993,3.3807,3.3807,3.3807,3.3807,3.3522,3.3302,0.0,0.0,0.0,0.0,0.0,0.0,0.0,0.0,0.0,0.0,0.0,0.0,0.0,0.0,0.0,0.0,0.0,0.0,0.0,0.0,0.0,0.0,3.3012,3.3499,3.4147,3.3766,3.3704,3.444,3.4776,3.5131,3.5571,3.5253,3.4894,3.4624,3.4235,3.3887,3.3649,3.3582,3.3582,3.3582,3.3582,3.3582,3.3582,3.3182,3.3039,3.2986,3.2555,3.2407,3.2407,3.2407,3.261,3.3039,3.3039,3.3391,3.3987,3.3735,3.3786,3.4037,0.0,0.0,0.0,0.0,3.5622,3.5622,3.5622,3.5622,3.5622,3.5854,3.5941,3.6054,3.6563,3.6724,3.6803,3.7097,3.6999,3.6724,3.6724,3.6481,3.6205,3.5877,3.5687,3.5381,3.4611,3.4323,3.412,3.3772,3.3719,0.0,3.3789,3.3807,3.3807,3.3807,3.3807,3.3807,3.3807,3.3807,3.3842,3.3961,3.3961,3.4037,3.416,3.433,0.0,0.0,0.0,3.4353,3.4184,3.4184,0.0,0.0,0.0,3.3716,3.3957,3.3671,0.0,0.0,3.3827,3.4017,0.0,0.0,0.0,0.0,0.0,0.0,0.0,0.0,0.0,0.0,0.0,0.0,0.0,0.0,0.0,0.0,3.4211,3.4509,3.4659,3.4518,3.4449,3.4644,3.5239,3.5681,3.5766,3.5739,3.5436,3.4861,3.4736,3.4464,3.4016,3.3965,0.0,0.0,0.0,3.4078,3.4078,3.4027,3.3976,3.3976,3.3793,3.371,3.371,3.363,3.3633,3.3735,3.3735,3.4087,3.4688,3.4087,3.4186,3.4688,3.4624,3.464,3.4783,3.5362,3.5667,3.5694,3.5694,0.0,0.0,3.6333,3.6498,3.658,3.7097,3.7285,3.7285,3.736,3.734,3.7285,3.7285,3.7248,3.7033,3.6307,3.6184,3.5989,3.5278,3.5153,3.5075,3.4695,3.4612,3.4486,3.4138,3.3935,3.3807,3.3807,3.3807,3.3807,3.3807,3.3807,3.3902,3.4171,3.42,0.0,3.4674,3.4714,3.4734,3.4694,3.4694,3.4694,3.4694,3.4694,3.4588,3.4419,3.4377,3.4661,3.5239,3.5239,3.5708,3.649,3.4781,3.464,0.0,0.0,0.0,0.0,0.0,0.0,0.0,0.0,0.0,0.0,0.0,0.0,0.0,0.0,0.0,3.4142,3.4634,3.521,3.614,3.6229,3.6096,3.5729,3.5849,3.6201,3.6851,3.6481,3.6207,3.6062,3.5644,3.5631,3.6159,3.6175,3.646,3.7064,3.7097,3.7097,3.7097,3.6506,3.6153,3.6153,3.5017,0.0,3.4482,3.3854,3.3887,3.4431,3.4431,3.48,3.5424,3.527,3.527,3.5362,3.4783,3.4941,3.5407,3.556,3.5854,3.6266,3.6266,3.6522,3.6904,3.702,3.7038,3.7152,3.7614,3.7755,0.0,3.8285,3.8117,3.7755,3.7755,3.747,3.7137,3.7016,3.7274,3.7306,3.6514,3.6685,3.6784,3.6076,3.5912,3.5904,3.5844,3.4688,3.3807,3.3807,3.3807,3.3807,3.3807,3.3807,3.3902,3.4171,3.42,3.4334,3.4674,3.4908,3.4926,3.4714,3.4694,3.4694,3.4694,3.4694,3.4975,3.5555,3.5555,3.5988,3.6772,3.6772,3.7182,3.7967,3.6491,3.6273,0.0,0.0,0.0,0.0,0.0,0.0,0.0,0.0,0.0,0.0,0.0,3.3603,3.4022,0.0,3.4368,3.5187,3.5857,3.6465,3.702,3.7462,3.7419,3.6699,3.6608,3.6767,3.7137,3.696,3.6961,3.7346,3.7137,3.7359,3.8165,3.8217,3.8391,3.8729,3.8747,3.8614,3.8317,3.7908,3.7641,3.7368,3.6638,3.6323,3.629,3.5547,3.5363,3.5696,3.5265,3.5419,3.6028,3.6291,3.6399,3.6357,3.6036,3.5942,3.6011,3.6291,3.6563,3.6803,3.6803,3.6999,3.7248,3.747,3.7542,3.7649,3.815,3.83,3.835,3.8627,3.8515,3.83,3.83,3.8135,3.7948,3.7948,3.8117,3.819,3.7808,3.7911,3.7845,3.7055,3.689,3.6801,3.6537,3.5814,3.5051,3.4495,3.4064,3.3842,3.3986,3.4012,3.4171,3.4615,3.4656,3.4774,3.5069,3.5223,3.5239,3.5105,3.5486,3.5696,3.5696,3.6133,3.648,3.6749,3.6749,3.7087,3.7794,3.7794,3.8206,3.8977,3.8272,3.8088,0.0,0.0,0.0,0.0,0.0,0.0,0.0,3.4037,3.3815,3.3868,3.397,3.4229,3.4862,3.5137,3.555,3.6376,3.7074,3.7562,3.7698,3.8285,3.8401,3.7596,3.7487,3.7541,3.7702,3.7628,3.7911,3.8712,3.8688,3.9004,3.9749,3.9802,3.9873,4.0015,4.0033,3.9811,3.9303,3.9286,3.9074,3.8657,3.8504,3.8435,3.8418,3.7695,3.7353,3.7319,3.6488,3.6302,3.658,3.702,3.719,3.7228,3.7285,3.7058,3.6706,3.7058,3.7266,3.7323,3.7323,3.7396,3.756,3.7911,3.8065,3.815,3.8578,3.875,3.8792,3.8792,3.8833,3.8873,3.8873,3.8873,3.8873,3.8873,3.8873,3.8873,3.8873,3.8873,3.8689,3.8024,3.7895,3.7785,3.7349,3.7137,3.6665,3.5602,3.4866,3.455,3.4755,3.4782,3.5002,3.5528,3.5581,3.5684,3.596,3.5988,3.5988,3.5988,3.6603,3.6949,3.6949,3.7623,3.797,3.7938,3.7921,3.8232,3.8814,3.8814,3.9155,3.9778,3.9712,3.9529,3.5162,3.4988,3.477,3.4716,3.4464,3.4288,0.0,3.4208,3.3868,3.4099,3.4534,3.488,3.4972,3.5642,3.6413,3.7221,3.7452,3.7734,3.8469,3.8652,3.8676,3.8564,3.8515,3.8821,3.9534,3.915,3.9229,4.004,3.972,3.9784,4.0547,4.0577,4.0896,4.1527,4.1545,4.1503,4.1442,4.146,4.1417,4.1374,4.0711,4.0394,4.0358,3.964,3.9287,3.9252,3.8435,3.7711,3.7114,3.719,3.719,3.7248,3.7649,3.779,3.7685,3.7323,3.747,3.7825,3.7825,3.815,3.8546,3.8578,3.8627,3.8627,3.8676,3.8855,3.9063,3.9063,3.9282,3.9505,3.9505,3.9505,3.9505,3.9505,3.9505,3.9505,3.9505,3.9505,3.9486,3.9392,3.9373,3.9336,3.9289,3.869,3.7935,3.7065,3.6898,3.6823,3.6845,3.6866,3.699,3.7297,3.7315,3.7422,3.7704,3.7719,3.7719,3.7719,3.7796,3.7853,3.7853,3.795,3.8339,3.9092,3.9112,3.9496,4.0271,4.0271,4.031,4.0386,4.0158,3.9861,3.5385,3.5356,3.5257,3.5165,3.4944,3.4774,3.4889,3.4971,3.5049,3.5162,3.5602,3.617,3.6864,3.7128,3.757,3.8562,3.8719,3.885,3.9178,3.9653,3.997,3.997,4.0207,4.0251,3.9932,4.0105,4.0607,4.1391,4.127,4.1524,4.2266,4.2321,4.2466,4.2754,4.2772,4.2657,4.2342,4.2342,4.2162,4.181,4.1474,4.1357,4.1339,4.06,3.9997,3.9611,3.9544,3.9066,3.8331,3.865,3.85,3.8083,3.8267,3.8455,3.8566,3.818,3.8201,3.8382,3.8382,3.8496,3.8719,3.8884,3.8933,3.8961,3.9163,3.9301,3.9389,3.9389,3.9486,3.9599,3.9599,3.9599,3.9599,3.9599,3.9599,3.9599,3.9599,3.9599,3.9599,3.9599,3.9599,3.9668,3.9859,3.9616,3.9335,3.9145,3.8022,3.7274,3.7414,3.7433,3.7546,3.7792,3.7827,3.7878,3.7988,3.8007,3.8007,3.8007,3.8469,3.8757,3.8757,3.92,3.9623,3.9988,3.9988,4.0162,4.0489,4.0489,4.0489,4.0489,4.0389,4.0267,3.5573,3.5659,3.5659,3.5546,3.5321,3.5187,3.5474,3.5742,3.6001,3.6289,3.6795,3.7427,3.8237,3.838,3.864,3.9482,3.9599,3.9675,3.9901,4.049,4.0986,4.1213,4.1743,4.1736,4.0926,4.1185,4.1787,4.2691,4.2746,4.307,4.3772,4.3791,4.3791,4.3791,4.3791,4.3642,4.3246,4.3228,4.3014,4.2571,4.2571,4.2571,4.2535,4.2012,4.1343,4.0636,4.0985,4.0679,3.996,4.0351,4.0044,3.9322,3.9322,3.9277,3.9231,3.9036,3.896,3.896,3.896,3.896,3.8998,3.9152,3.9238,3.9289,3.9529,3.9668,3.9754,3.9754,3.9778,3.9842,3.9842,3.9842,3.9842,3.9842,3.9842,3.9842,3.9842,3.9842,3.9842,3.9842,3.9842,3.9924,4.0177,4.0213,4.0286,4.0473,3.9143,3.8176,3.8378,3.8395,3.8465,3.8666,3.8681,3.8681,3.8681,3.8681,3.8681,3.8681,3.9277,3.9623,3.9623,4.0181,4.0489,4.0489,4.0489,4.0489,4.0489,4.0489,4.0489,4.0489,4.0489,4.0489,3.568,3.5788,3.5831,3.565,3.5391,3.5435,3.6435,3.6268,3.6212,3.7318,3.7981,3.8376,3.8395,3.9033,3.9561,3.958,3.9599,3.9882,4.0736,4.0892,4.1194,4.1968,4.2756,4.3221,4.3202,4.2649,4.2709,4.3862,4.3949,4.4128,4.4553,4.4572,4.4572,4.4572,4.4572,4.4553,4.4553,4.4553,4.4508,4.4527,4.4527,4.4527,4.4508,4.4489,4.3999,4.3196,4.3196,4.2769,4.2014,4.2014,4.1566,4.0825,4.0825,4.0316,3.9576,3.9576,3.9576,3.9576,3.9576,3.9576,3.9576,3.9576,3.9599,3.9599,3.9599,3.9819,4.0081,4.0081,4.0267,4.0473,4.0473,4.0473,4.0473,4.0473,4.0473,4.0473,4.0473,4.0473,4.0473,4.0473,4.0473,4.0473,4.0489,4.0489,4.0489,4.0489,4.045,4.0412,4.0412,4.0412,4.0412,4.0412,4.0412,4.0412,4.0412,4.0412,4.0412,4.0412,4.045,4.045,4.045,4.0489,4.0489,4.0489,4.0489,4.0489,4.0489,4.0489,4.0489,4.0489,4.0489,4.0489,3.5695,3.5722,3.5747,3.5684,3.6009,3.6424,3.6752,3.7526,3.8257,3.8649,3.9146,3.9565,3.9774,3.9872,4.0174,4.0941,4.1073,4.136,4.224,4.2833,4.3274,4.3541,4.4102,4.4486,4.4486,4.4094,4.3999,4.4373,4.4419,4.4474,4.458,4.458,4.458,4.458,4.458,4.458,4.458,4.458,4.458,4.458,4.458,4.458,4.458,4.458,4.4455,4.4171,4.4171,4.3681,4.2888,4.2888,4.2416,4.1647,4.1118,4.0836,4.0665,4.0131,4.0043,4.0138,3.9735,3.9599,3.9645,3.9859,3.9922,3.9963,4.0138,4.0285,4.0372,4.0372,4.0441,4.0489,4.0489,4.0489,4.0489,4.0489,4.0489,4.0489,4.0489,4.0489,4.0489,4.0489,4.0489,4.0489,4.0489,4.0489,4.0534,4.0623,4.0559,4.0489,4.0489,4.0588,4.0636,4.0636,4.0676,4.0692,4.0692,4.0692,4.0692,4.0692,4.0692,4.0692,4.0692,4.0692,4.0692,4.0692,4.0692,4.0688,4.0636,4.0636,4.0602,4.0489,4.0489,4.0489,3.5627,3.5723,3.5839,3.6098,3.6586,3.7167,3.7725,3.8662,3.9482,3.9792,4.0111,4.0481,4.0959,4.0893,4.1099,4.2088,4.2258,4.2566,4.3412,4.397,4.4412,4.472,4.5074,4.5282,4.5282,4.5096,4.4919,4.48,4.4776,4.4849,4.4966,4.4966,4.4966,4.4966,4.4966,4.4966,4.4966,4.4966,4.4966,4.4966,4.4966,4.4966,4.4966,4.4966,4.4973,4.5025,4.5025,4.4725,4.4231,4.4231,4.3752,4.2985,4.2468,4.2172,4.1959,4.1116,4.0916,4.0971,4.0229,3.9986,4.0043,4.0268,4.035,4.038,4.0546,4.061,4.061,4.061,4.061,4.061,4.061,4.061,4.061,4.061,4.061,4.061,4.061,4.061,4.061,4.061,4.061,4.061,4.061,4.061,4.0629,4.0721,4.0665,4.061,4.061,4.0688,4.0742,4.0742,4.077,4.0801,4.0801,4.0801,4.0801,4.0801,4.0801,4.0801,4.0801,4.0801,4.0801,4.0801,4.0801,4.0779,4.0742,4.0742,4.0688,4.061,4.061,4.0584,3.553,3.5767,3.6121,3.6834,3.7161,3.773,3.926,3.9629,3.9875,4.0645,4.084,4.1099,4.1862,4.2039,4.2318,4.3057,4.3159,4.3448,4.4239,4.4374,4.4662,4.5507,4.5603,4.5603,4.5601,4.562,4.5475,4.5163,4.514,4.5263,4.5586,4.5586,4.5586,4.5586,4.5603,4.5603,4.5603,4.5601,4.562,4.562,4.562,4.562,4.562,4.562,4.5677,4.5809,4.5809,4.5836,4.5899,4.5899,4.546,4.4759,4.472,4.4195,4.3366,4.2482,4.2132,4.196,4.108,4.0754,4.0718,4.0779,4.0801,4.0801,4.0801,4.0801,4.0801,4.0801,4.0801,4.0801,4.0801,4.0801,4.0801,4.0801,4.0801,4.0801,4.0801,4.0801,4.0801,4.0801,4.0801,4.0801,4.0801,4.0801,4.0809,4.0809,4.0809,4.0809,4.0801,4.0801,4.0809,4.0809,4.0809,4.0816,4.0816,4.0816,4.0816,4.0816,4.0816,4.0816,4.0816,4.0816,4.0816,4.0816,4.0816,4.0809,4.0809,4.0809,4.0801,4.0801,4.0801,4.0781,3.5496,3.6106,3.6736,3.7051,3.8084,3.9115,3.9564,4.0091,4.0548,4.0762,4.1326,4.1832,4.2032,4.2615,4.3277,4.4028,4.4142,4.4409,4.5158,4.5259,4.5384,4.5713,4.5648,4.5661,4.5817,4.577,4.5731,4.5692,4.5552,4.5513,4.5605,4.5586,4.5586,4.5586,4.5692,4.5747,4.5747,4.5801,4.582,4.582,4.582,4.582,4.582,4.582,4.5841,4.5872,4.5872,4.5872,4.5899,4.5899,4.5782,4.5529,4.4934,4.4565,4.4253,4.3386,4.2658,4.2081,4.1948,4.1388,4.0779,4.0793,4.0801,4.0801,4.0801,4.0801,4.0801,4.0801,4.0801,4.0801,4.0801,4.0801,4.0801,4.0801,4.0801,4.0801,4.0801,4.0801,4.0801,4.0801,4.0801,4.0801,4.0801,4.0877,4.0955,4.0955,4.1026,4.1026,4.0836,4.0896,4.0955,4.0955,4.1049,4.1103,4.1103,4.1103,4.1103,4.1103,4.1103,4.1103,4.1103,4.1103,4.1103,4.1103,4.1103,4.1052,4.0955,4.0955,4.0908,4.0801,4.0801,4.0785,3.5868,3.6485,3.7114,3.8026,3.8954,3.9763,4.0248,4.0675,4.0983,4.0983,4.1651,4.2344,4.2682,4.3455,4.4265,4.4976,4.511,4.5262,4.5667,4.5731,4.577,4.5836,4.5783,4.5789,4.589,4.5871,4.5861,4.5899,4.5794,4.5731,4.5731,4.5731,4.5731,4.5731,4.5801,4.5847,4.5847,4.5881,4.5899,4.5899,4.5899,4.5899,4.5899,4.5899,4.5924,4.5988,4.5988,4.6027,4.608,4.608,4.608,4.6041,4.5572,4.5397,4.5304,4.4426,4.3782,4.3279,4.258,4.1967,4.1437,4.1081,4.0983,4.0983,4.0983,4.0983,4.0983,4.0983,4.0983,4.0983,4.0983,4.0983,4.0983,4.0983,4.0983,4.0983,4.0983,4.0983,4.0983,4.0983,4.0983,4.0983,4.0983,4.1049,4.1082,4.1082,4.115,4.115,4.0992,4.1049,4.1082,4.1082,4.115,4.1191,4.1191,4.1191,4.1191,4.1191,4.1191,4.1191,4.1191,4.1191,4.1191,4.1191,4.1191,4.1151,4.1082,4.1082,4.1052,4.0983,4.0983,4.093,3.6297,3.6852,3.7461,3.9155,3.9708,4.0079,4.0973,4.1191,4.123,4.1348,4.2012,4.2811,4.3645,4.4458,4.5202,4.5823,4.5924,4.5916,4.5899,4.5899,4.5907,4.5924,4.5907,4.5916,4.594,4.5932,4.5932,4.594,4.594,4.5932,4.5899,4.5899,4.5907,4.5924,4.5924,4.5952,4.594,4.594,4.594,4.594,4.594,4.594,4.594,4.594,4.6027,4.614,4.614,4.6198,4.6308,4.6308,4.6308,4.6308,4.6308,4.6308,4.6211,4.5449,4.5098,4.4785,4.3262,4.2676,4.2422,4.1504,4.1191,4.1191,4.1191,4.1191,4.1191,4.1191,4.1191,4.1191,4.1191,4.1191,4.1191,4.1191,4.1191,4.123,4.1348,4.1445,4.1523,4.1523,4.1523,4.1523,4.1523,4.1523,4.1523,4.1523,4.1523,4.1523,4.1523,4.1348,4.1191,4.1191,4.1191,4.1191,4.1191,4.1191,4.1191,4.1191,4.1191,4.1191,4.1191,4.1191,4.1191,4.1191,4.1191,4.1191,4.1191,4.1191,4.125,4.1367,4.1367,4.1364,3.6077,3.7072,3.8067,3.9165,4.0032,4.0676,4.0976,4.1126,4.1387,4.2051,4.2871,4.373,4.4608,4.5468,4.6048,4.6065,4.6075,4.6033,4.5916,4.5899,4.5932,4.6045,4.5974,4.5988,4.6202,4.612,4.6113,4.6223,4.6225,4.6124,4.5907,4.5899,4.594,4.605,4.6075,4.6117,4.6225,4.6225,4.6225,4.6225,4.6225,4.6225,4.6225,4.6225,4.6246,4.6268,4.6268,4.6289,4.6308,4.6308,4.6308,4.6308,4.6308,4.6308,4.6289,4.6133,4.5625,4.4961,4.4648,4.4082,4.3223,4.1699,4.1191,4.1191,4.1191,4.1191,4.1191,4.1191,4.1191,4.1191,4.1191,4.1191,4.1191,4.1191,4.1191,4.1387,4.2051,4.2754,4.3262,4.3262,4.3262,4.3262,4.3262,4.3262,4.3262,4.3262,4.3262,4.3262,4.3262,4.2051,4.1191,4.1191,4.1191,4.1191,4.1191,4.1191,4.1191,4.1191,4.1191,4.1191,4.1191,4.1191,4.1191,4.1191,4.1191,4.1191,4.1191,4.1191,4.1543,4.2187,4.2187,4.2578,3.669,3.7811,3.8898,3.9835,4.041,4.0781,4.0864,4.1347,4.1884,4.2275,4.3435,4.4492,4.4922,4.5703,4.6289,4.6204,4.62,4.6175,4.6117,4.6113,4.612,4.62,4.6147,4.615,4.6289,4.6246,4.6225,4.6308,4.6308,4.6246,4.6117,4.6113,4.6144,4.62,4.62,4.6226,4.6308,4.6308,4.6308,4.6308,4.6308,4.6308,4.6308,4.6308,4.6308,4.6308,4.6308,4.6308,4.6308,4.6308,4.6308,4.6289,4.6223,4.62,4.6198,4.6117,4.5831,4.5401,4.4992,4.4562,4.4012,4.2744,4.2114,4.1816,4.1816,4.1482,4.1105,4.1171,4.1482,4.1789,4.1816,4.2168,4.25,4.25,4.25,4.2617,4.2988,4.3398,4.3691,4.3691,4.3691,4.3691,4.3691,4.3691,4.3691,4.3691,4.3691,4.3691,4.3691,4.3008,4.25,4.25,4.2109,4.1816,4.1816,4.1445,4.1191,4.1191,4.1191,4.1191,4.1191,4.1601,4.1816,4.1816,4.2266,4.25,4.25,4.25,4.2695,4.3086,4.3086,4.3301,3.7433,3.8525,3.9514,4.0424,4.068,4.0765,4.0994,4.1695,4.2401,4.2752,4.3995,4.5058,4.5234,4.584,4.6308,4.6308,4.6308,4.6308,4.6308,4.6308,4.6308,4.6308,4.6308,4.6308,4.6308,4.6308,4.6308,4.6308,4.6308,4.6308,4.6308,4.6308,4.6308,4.6308,4.6308,4.6308,4.6308,4.6308,4.6308,4.6308,4.6268,4.6268,4.6268,4.6225,4.6204,4.6204,4.6204,4.6204,4.6204,4.6204,4.6204,4.62,4.6108,4.6069,4.6045,4.5932,4.5899,4.5802,4.5179,4.4956,4.4839,4.4159,4.3343,4.2609,4.2609,4.21,4.153,4.1646,4.208,4.2549,4.2602,4.3117,4.3644,4.3644,4.3781,4.3919,4.3923,4.408,4.4217,4.4258,4.4258,4.4258,4.4217,4.4238,4.4258,4.4217,4.4238,4.4258,4.4258,4.4237,4.4237,4.4258,4.3301,4.2676,4.2676,4.2109,4.1738,4.1738,4.1738,4.1738,4.1738,4.2344,4.2676,4.2676,4.3359,4.3691,4.3691,4.3691,4.3808,4.3984,4.3984,4.4082,3.7891,3.8803,3.9503,4.0308,4.061,4.0916,4.1703,4.2101,4.2733,4.4255,4.4796,4.5234,4.6035,4.625,4.6308,4.6308,4.6308,4.6308,4.6308,4.6308,4.6308,4.6308,4.6308,4.6308,4.6308,4.6308,4.6308,4.6308,4.6308,4.6308,4.6308,4.6308,4.6308,4.6308,4.6308,4.6308,4.6308,4.6308,4.6308,4.6308,4.6175,4.6117,4.6117,4.5988,4.5932,4.5932,4.5932,4.5932,4.5932,4.5932,4.5932,4.5952,4.5916,4.5916,4.5916,4.5907,4.5899,4.5879,4.5821,4.5782,4.5782,4.5704,4.4604,4.3308,4.3308,4.3261,4.3175,4.3183,4.3261,4.3292,4.33,4.3366,4.3424,4.3424,4.4028,4.4623,4.4699,4.5316,4.5913,4.6035,4.6055,4.6014,4.5909,4.5989,4.6014,4.5909,4.5989,4.6055,4.6055,4.5944,4.5938,4.6054,4.457,4.3574,4.3574,4.3516,4.3476,4.3476,4.3476,4.3476,4.3476,4.3535,4.3574,4.3574,4.3652,4.3691,4.3691,4.3691,4.4101,4.4883,4.4883,4.5293,3.8458,3.9352,4.0085,4.0412,4.0935,4.1441,4.1788,4.278,4.3839,4.4591,4.5226,4.579,4.6211,4.6308,4.6308,4.6308,4.6308,4.6484,4.7012,4.707,4.7285,4.7793,4.7851,4.7851,4.7851,4.7383,4.6835,4.6237,4.6093,4.605,4.605,4.6144,4.6144,4.605,4.605,4.605,4.605,4.605,4.605,4.6069,4.6021,4.5981,4.5981,4.5924,4.5899,4.5899,4.5899,4.5899,4.5899,4.5899,4.5899,4.589,4.585,4.5836,4.5825,4.5744,4.5722,4.5722,4.5722,4.5722,4.5722,4.5722,4.5278,4.4666,4.4288,4.3753,4.3294,4.3374,4.3714,4.4081,4.416,4.4548,4.4898,4.4898,4.5179,4.5421,4.5468,4.5728,4.5995,4.6045,4.605,4.6039,4.5988,4.6014,4.6039,4.5988,4.6033,4.605,4.605,4.6001,4.5995,4.6045,4.4991,4.4324,4.4357,4.3845,4.3543,4.3635,4.3635,4.3663,4.3691,4.4199,4.4473,4.4473,4.5,4.5254,4.5254,4.5254,4.5408,4.5668,4.5668,4.5792,3.8972,3.979,4.0489,4.0489,4.1162,4.1873,4.2143,4.339,4.4594,4.4958,4.5592,4.612,4.6223,4.6268,4.6308,4.6308,4.6523,4.6894,4.7519,4.7812,4.8203,4.8828,4.8906,4.8886,4.8843,4.825,4.7471,4.6493,4.6329,4.6153,4.5881,4.5963,4.5986,4.5899,4.5899,4.5899,4.5899,4.5899,4.5899,4.5899,4.5881,4.5862,4.5862,4.582,4.5797,4.5797,4.5797,4.5797,4.5797,4.5797,4.5797,4.5805,4.575,4.5733,4.5718,4.5635,4.5586,4.5586,4.5586,4.5586,4.5586,4.5586,4.5586,4.5519,4.5105,4.4473,4.3929,4.4025,4.4434,4.4852,4.4948,4.539,4.5797,4.5797,4.5797,4.5809,4.5852,4.5862,4.5872,4.589,4.5899,4.589,4.5872,4.59,4.589,4.5872,4.59,4.5899,4.5899,4.5891,4.5881,4.5899,4.5346,4.5016,4.5111,4.4511,4.4191,4.4278,4.4278,4.4304,4.4357,4.4945,4.5277,4.5277,4.5863,4.6175,4.6175,4.6175,4.612,4.6039,4.6039,4.5988,3.9373,4.0043,4.0489,4.0489,4.1162,4.2027,4.2893,4.3815,4.4763,4.5615,4.5955,4.6108,4.6108,4.6202,4.6308,4.6308,4.7012,4.7598,4.7598,4.834,4.8887,4.8906,4.8906,4.8845,4.8708,4.8557,4.8117,4.7252,4.7193,4.6775,4.5848,4.5809,4.5825,4.5899,4.5899,4.5899,4.5899,4.5899,4.5899,4.5899,4.5825,4.5796,4.5796,4.5665,4.5603,4.5603,4.5603,4.5603,4.5603,4.5603,4.5603,4.5603,4.5603,4.5603,4.5603,4.5586,4.5586,4.5586,4.5586,4.5586,4.5586,4.5586,4.5586,4.5586,4.5603,4.5584,4.5584,4.5584,4.5584,4.5603,4.5603,4.5603,4.5603,4.5603,4.5603,4.5635,4.5769,4.5796,4.5808,4.59,4.5899,4.5881,4.5815,4.585,4.5881,4.5803,4.5861,4.5899,4.5899,4.5847,4.5832,4.589,4.5703,4.5669,4.5861,4.5879,4.586,4.5879,4.5879,4.5879,4.5888,4.5888,4.5888,4.5888,4.5907,4.5907,4.5907,4.5907,4.5899,4.5899,4.5899,4.5899,4.0043,4.0353,4.0642,4.1239,4.2047,4.2893,4.372,4.4614,4.5349,4.5711,4.5844,4.592,4.5959,4.5995,4.6069,4.6147,4.6895,4.7676,4.8278,4.9098,4.9848,5.0342,5.0394,5.0146,4.9512,4.9329,4.8897,4.8012,4.7361,4.687,4.6574,4.5976,4.5677,4.5699,4.5699,4.5699,4.5699,4.5699,4.5699,4.5699,4.5677,4.5665,4.5665,4.562,4.5586,4.5586,4.5586,4.5586,4.5586,4.5586,4.5586,4.5586,4.5586,4.5586,4.5586,4.5586,4.5586,4.5586,4.5586,4.5586,4.5586,4.5586,4.5586,4.5586,4.5586,4.5586,4.5586,4.5586,4.5586,4.5586,4.5586,4.5586,4.5586,4.5586,4.5586,4.562,4.5648,4.5665,4.568,4.5684,4.5699,4.5703,4.5665,4.5673,4.5703,4.5665,4.5673,4.5699,4.5699,4.5677,4.5661,4.5684,4.5632,4.5645,4.582,4.575,4.5736,4.5832,4.5844,4.585,4.5899,4.5899,4.5899,4.5899,4.5899,4.5899,4.5899,4.5899,4.5872,4.5832,4.5736,4.5699,4.025,4.0655,4.1123,4.1662,4.2681,4.3682,4.4182,4.497,4.5618,4.5708,4.5756,4.5815,4.585,4.5891,4.6041,4.645,4.7262,4.8119,4.899,4.9868,5.0587,5.1045,5.1061,5.0814,5.027,5.0095,4.9644,4.8794,4.8158,4.7567,4.6932,4.6394,4.5932,4.5605,4.5586,4.5586,4.5586,4.5586,4.5586,4.5586,4.5586,4.5586,4.5586,4.5586,4.5586,4.5586,4.5586,4.5586,0.0,4.5586,4.5586,4.5586,4.5586,4.5586,4.5586,4.5586,4.5586,4.5586,4.5476,4.5419,4.54,4.5263,4.5222,4.5222,4.5222,4.54,4.5586,4.5586,4.5586,4.5586,4.5586,4.5586,4.5586,4.5586,4.5586,4.5586,4.5586,4.5586,4.5586,4.5586,4.5586,4.5586,4.5586,4.5586,4.5586,4.5586,4.5586,4.5586,4.5586,4.5586,4.5586,4.5586,4.5586,4.5635,4.5723,4.5651,4.5635,4.5723,4.5718,4.5742,4.5801,4.5782,4.5782,4.5782,4.5782,4.5782,4.5782,4.5782,4.577,4.5718,4.5635,4.5586,0.0,4.0975,4.1816,4.1893,4.3104,4.4316,4.4374,4.5009,0.0,4.5586,4.5692,4.5783,4.5783,4.5847,4.6163,4.7048,4.7932,4.8788,4.9663,5.0538,5.1063,5.1063,5.0953,5.0894,5.0894,5.0773,5.0356,4.9548,4.9433,4.8721,4.7163,4.6971,4.6528,4.572,4.5624,4.5586,4.5586,4.5586,4.5586,4.5586,4.5586,4.5586,4.5586,4.5586,4.5586,4.5568,4.5568,4.555,4.5531,4.5531,4.5531,4.5531,4.5531,4.5531,4.5531,4.5531,4.5531,4.5475,4.5161,4.5074,4.5011,4.4682,4.458,4.458,4.458,4.5033,4.5531,4.5531,4.5531,4.5531,4.5568,4.5568,4.5568,4.5586,4.5586,4.5586,4.5586,4.5586,4.5586,4.5586,4.5586,4.5586,4.5586,4.5586,4.5586,4.5586,4.5586,4.5586,4.5586,4.5586,4.5586,4.5586,4.5586,4.5586,4.5586,4.5586,4.5586,4.5586,4.5586,4.5586,4.5586,4.5586,4.5586,4.5586,4.5586,4.5586,4.5586,4.5586,4.5586,4.5586,4.5586,4.5586,4.1144,0.0,4.197,4.2624,4.3547,4.447,0.0,0.0,0.0,0.0,0.0,4.5651,4.5651,4.5661,4.5969,4.6888,4.7779,4.8651,4.9517,5.031,5.0789,5.0789,5.0775,5.0758,5.0758,5.0721,5.0606,5.0414,4.9779,4.9221,4.8836,4.7605,4.6817,4.6605,4.5951,4.5586,4.5586,4.5586,4.5586,4.5586,4.5586,4.5586,4.5586,4.5586,4.5457,4.5222,4.5222,4.5074,4.4849,4.4849,4.4849,4.4849,4.4849,4.4849,4.4849,4.4849,4.4849,4.4806,4.4732,4.4726,4.4707,4.465,4.458,4.458,4.458,4.4707,4.4849,4.4849,4.4849,4.4877,4.514,4.5222,4.5263,4.555,4.5586,4.5586,4.5586,4.5586,4.5586,4.5586,4.5586,4.5586,4.5586,4.5586,4.5586,4.5586,4.5586,4.5586,4.5586,4.5586,4.5586,4.5586,4.5586,4.5586,4.5586,4.5586,4.5586,4.5586,4.5586,4.5586,4.5586,4.5586,4.5586,4.5586,4.5586,4.5586,4.5586,4.5586,4.5586,4.5586,4.5586,4.5586,4.1514,4.2085,4.2604,4.3431,4.4278,4.5009,4.549,0.0,0.0,0.0,0.0,4.5586,4.5586,4.5586,4.6022,4.7298,4.7909,4.8662,4.992,5.0451,5.0702,5.0702,5.0702,5.0702,5.0702,5.0702,5.0702,5.0702,5.026,4.9817,4.9413,4.8355,4.7411,4.6646,4.6025,4.5646,4.5586,4.5438,4.5362,4.5362,4.5203,4.514,4.514,4.514,4.5033,4.4872,4.4872,4.4776,4.458,4.458,4.458,4.458,4.458,4.458,4.458,4.458,4.458,4.458,4.4392,4.4223,4.4095,4.4095,4.4095,4.4095,4.4095,4.4095,4.4184,4.4501,4.458,4.4676,4.5011,4.5096,4.518,4.5513,4.5586,4.5586,4.5586,4.5586,4.5586,4.5586,4.5586,4.5586,4.5586,4.5586,4.5586,4.5586,4.5586,4.5586,4.5586,4.5586,4.5586,4.5586,4.5586,4.5586,4.5586,4.5586,4.5586,4.5586,4.5586,4.5586,4.5586,4.5586,4.5586,4.5586,4.5586,4.5586,4.5586,4.5586,4.5586,4.5586,4.5586,4.5586,4.1739,4.2547,4.3297,4.4105,4.4951,4.5586,4.5586,0.0,0.0,0.0,0.0,0.0,4.5586,4.5701,4.6297,4.7855,4.8317,4.9009,5.0491,5.0702,5.0702,5.0702,5.0702,5.0702,5.0702,5.0624,5.0604,5.0604,5.0544,5.0197,4.9449,4.898,4.8076,4.6629,4.6202,4.5873,4.563,4.5237,4.5011,4.503,4.4751,4.458,4.458,4.458,4.4553,4.4501,4.4501,4.4474,4.4419,4.4419,4.4419,4.4419,4.4419,4.4419,4.4419,4.4419,4.4419,4.4392,4.4046,4.3758,4.3497,4.3497,4.3497,4.3497,4.3497,4.3497,4.3631,4.427,4.4419,4.4501,4.4849,4.4943,4.5011,4.5362,4.5438,4.5457,4.5513,4.5513,4.555,4.5586,4.5586,4.5586,4.5586,4.5586,4.5586,4.5586,4.5586,4.5586,4.5586,4.5586,4.5586,4.5586,4.5586,4.5586,4.5586,4.5586,4.5586,4.5586,4.5586,4.5586,4.5586,4.5586,4.5586,4.5586,4.5586,4.5586,4.5586,4.5586,4.5586,4.5586,4.5586,4.5586,4.245,4.3008,4.3297,4.4105,4.4951,4.5586,4.5586,0.0,0.0,0.0,0.0,0.0,0.0,4.6201,4.7009,4.7952,4.9336,5.0375,5.0644,5.0702,5.0702,5.0702,5.0702,5.0702,5.0702,5.0399,5.0183,5.0183,4.9872,4.9635,4.9503,4.8748,4.8163,4.7918,4.7202,4.6466,4.5786,4.5041,4.4676,4.4676,4.4606,4.458,4.458,4.458,4.4401,4.4087,4.4087,4.3943,4.3646,4.3646,4.3646,4.3646,4.3646,4.3646,4.3646,4.3646,4.3646,4.3646,4.3597,4.3548,4.3497,4.3497,4.3497,4.3497,4.3497,4.3497,4.3513,4.3631,4.3646,4.3744,4.4087,4.4175,4.4261,4.4657,4.4757,4.4849,4.5118,4.518,4.5263,4.5531,4.5586,4.5586,4.5586,4.5586,4.5586,4.5586,4.5586,4.5586,4.5586,4.5586,4.5586,4.5586,4.5586,4.5586,4.5586,4.5586,4.5586,4.5586,4.5586,4.5586,4.5586,4.5586,4.5586,4.5586,4.5586,4.5586,4.5586,4.5586,4.5586,4.5586,4.5586,4.5586,4.2624,4.3104,4.3412,4.4682,4.5297,4.5586,0.0,0.0,0.0,0.0,0.0,0.0,0.0,4.6317,4.7317,4.8606,4.9875,5.0702,5.0702,5.0702,5.0702,5.0702,5.0702,5.0702,5.0702,5.0336,5.0092,5.0092,4.9719,4.9504,4.9504,4.892,4.8384,4.7934,4.7346,4.6657,4.5871,4.5499,4.4972,4.4261,4.4095,4.4023,4.4023,4.4023,4.3899,4.3726,4.3726,4.3646,4.3497,4.3497,4.3497,4.3497,4.3497,4.3497,4.3497,4.3497,4.3497,4.3497,4.3497,4.3497,4.3497,4.3497,4.3497,4.3497,4.3497,4.3497,4.3497,4.3497,4.3497,4.3563,4.3893,4.4016,4.4087,4.4501,4.458,4.4631,4.48,4.4825,4.4872,4.5033,4.5055,4.5118,4.5302,4.5322,4.54,4.5568,4.5586,4.5586,4.5586,4.5586,4.5586,4.5586,4.5586,4.5586,4.5586,4.5586,4.5586,4.5586,4.5586,4.5586,4.5586,4.5586,4.5586,4.5586,4.5586,4.5586,4.5586,4.5586,4.5586,4.5586,4.5586,4.5586,4.2681,4.3239,4.3739,4.522,0.0,0.0,0.0,0.0,0.0,0.0,0.0,0.0,0.0,4.6778,4.7971,4.9452,5.026,5.0702,5.0702,5.0702,5.0702,5.0702,5.0702,5.0663,5.0565,5.0202,4.9924,4.9827,4.9445,4.9202,4.9202,4.893,4.8466,4.7853,4.7537,4.7003,4.6195,4.6177,4.551,4.4159,4.3907,4.3681,4.3497,4.3497,4.3497,4.3497,4.3497,4.3497,4.3497,4.3497,4.3497,4.3497,4.3497,4.3497,4.3497,4.3497,4.3497,4.3497,4.3497,4.3497,4.3497,4.3497,4.3497,4.3497,4.3497,4.3497,4.3534,4.3718,4.3773,4.3821,4.3892,4.3881,4.4011,4.4495,4.4637,4.4721,4.4946,4.5011,4.5057,4.5138,4.5164,4.5243,4.5508,4.5555,4.5624,4.5897,4.5763,4.5649,4.5649,4.5477,4.54,4.5457,4.5495,4.5513,4.5586,4.5513,4.5513,4.5605,4.5586,4.5586,4.5586,4.5586,4.5586,4.5586,4.5586,4.5586,4.5586,4.5586,4.5586,4.5586,4.5586,4.5586,4.2854,4.3643,4.4432,4.5355,4.5586,0.0,4.5586,4.5586,0.0,4.5586,0.0,0.0,0.0,4.8125,4.951,5.0452,5.0644,5.0702,5.0702,5.0702,5.0702,5.0702,5.0702,5.0544,5.0183,4.9773,4.9386,4.9011,4.8604,4.8402,4.8402,4.8364,4.8307,4.8252,4.8214,4.7847,4.704,4.7021,4.6214,4.4652,4.4617,4.4213,4.3497,4.3497,4.3497,4.3497,4.3497,4.3497,4.3497,4.3497,4.3497,4.3497,4.3497,4.3497,4.3497,4.3497,4.3497,4.3497,4.3497,4.3497,4.3497,4.3497,4.3497,4.3497,4.3497,4.3497,4.3644,4.4415,4.4617,4.4452,4.3716,4.3548,4.3731,4.4485,4.4704,4.4992,4.6057,4.627,4.6396,4.6751,4.6826,4.6835,4.6881,4.6862,4.6881,4.6909,4.6248,4.5802,4.5802,4.5129,4.4781,4.5096,4.5137,4.5263,4.5568,4.5322,4.5263,4.5586,4.5586,4.5586,4.5586,4.5586,4.5586,4.5586,4.5586,4.5586,4.5586,4.5586,4.5586,4.5586,4.5586,4.5586,4.2854,4.3682,4.4509,4.5374,4.5586,0.0,0.0,4.5586,4.5586,4.5586,4.5586,0.0,0.0,4.8163,4.9048,5.0471,5.0702,5.0702,5.0702,5.0483,5.0336,5.0336,5.0111,4.9898,4.9746,4.9356,4.9043,4.893,4.8513,4.8306,4.8306,4.8306,4.8306,4.8306,4.8306,4.8159,4.7865,4.7865,4.7297,4.6214,4.57,4.5021,4.425,4.425,4.3975,4.3497,4.3497,4.3497,4.3497,4.3497,4.3497,4.3497,4.3497,4.3497,4.3497,4.3497,4.3497,4.3497,4.3497,4.3497,4.3497,4.3497,4.3828,4.425,4.425,4.4599,4.5057,4.5351,4.5461,4.5388,4.5057,4.4984,4.5057,4.5369,4.5461,4.5552,4.6006,4.6096,4.6112,4.6298,4.6298,4.6378,4.6595,4.6625,4.6716,4.6968,4.6732,4.6543,4.6543,4.6288,4.6153,4.6284,4.6284,4.6335,4.6459,4.6341,4.6335,4.6459,4.5917,4.5586,4.5586,4.5586,4.5855,4.6394,4.6413,4.6644,4.7144,4.7144,4.7144,4.7144,4.7144,4.7144,4.2931,4.3893,4.4855,4.5451,0.0,0.0,4.5586,4.5586,4.5586,4.5586,4.5817,4.6355,4.7509,4.8144,4.8894,5.0087,5.0412,5.0504,5.0504,5.0159,4.9924,4.9924,4.9664,4.9445,4.9326,4.9043,4.8829,4.8709,4.8458,4.8306,4.8306,4.8306,4.8306,4.8306,4.8306,4.8306,4.8306,4.8306,4.8031,4.748,4.6929,4.6104,4.5094,4.5094,4.4635,4.3883,4.3883,4.3718,4.3497,4.3497,4.3497,4.3497,4.3497,4.3497,4.3497,4.3497,4.3497,4.3497,4.3497,4.3663,4.3883,4.3883,4.4415,4.5094,4.5094,4.5461,4.5957,4.6214,4.6287,4.6342,4.6599,4.6287,4.5957,4.6214,4.6287,4.6361,4.6599,4.6654,4.6654,4.6654,4.6654,4.6746,4.6956,4.699,4.7073,4.7367,4.7205,4.7037,4.7037,4.6812,4.6705,4.6805,4.6805,4.6863,4.6996,4.6863,4.6863,4.6996,4.6397,4.6047,4.6047,4.6147,4.6474,4.7088,4.7204,4.7491,4.7913,4.7913,4.7913,4.7913,4.7913,4.7991,4.3104,4.4316,4.5586,4.5586,0.0,0.0,4.5586,4.5586,4.5586,4.5586,4.6297,4.6894,4.6894,4.8259,4.9375,4.9394,4.9762,5.0092,5.0092,4.9746,4.9475,4.9475,4.9475,4.9326,4.893,4.8897,4.8728,4.8344,4.8306,4.8306,4.8306,4.8306,4.8306,4.8306,4.8306,4.8306,4.8306,4.8306,4.8306,4.8306,4.8306,4.7462,4.5902,4.5902,4.548,4.4727,4.4727,4.425,4.3497,4.3497,4.3497,4.3497,4.3497,4.3497,4.3479,4.3497,4.3497,4.3497,4.3497,4.403,4.4709,4.4709,4.5259,4.5902,4.5902,4.592,4.6085,4.6855,4.7094,4.7277,4.8104,4.7113,4.6122,4.6929,4.7131,4.7352,4.8141,4.8306,4.8306,4.8306,4.8306,4.8306,4.8306,4.8306,4.8306,4.8306,4.7627,4.7131,4.7131,4.6416,4.6063,4.6378,4.6411,4.6601,4.6986,4.6663,4.6601,4.6986,4.7014,4.7014,4.6996,4.7321,4.7491,4.751,4.7893,4.7893,4.751,4.751,4.751,4.751,4.7533,4.7728,4.3104,4.4316,4.5586,4.5586,0.0,0.0,0.0,4.5586,0.0,0.0,4.5797,4.6089,4.6412,4.6868,4.7529,4.846,4.8757,4.9037,4.9597,4.9326,4.9075,4.9075,4.8813,4.8604,4.8477,4.8495,4.8421,4.8306,4.8306,4.8306,4.8306,4.8306,4.8306,4.8306,4.8306,4.8306,4.8306,4.8306,4.8306,4.8306,4.8306,4.7755,4.6746,4.6746,4.6324,4.5535,4.5535,4.5094,4.4305,4.3718,4.3497,4.3497,4.3497,4.325,4.2976,4.3375,4.3615,4.3849,4.4217,4.4583,4.4895,4.4895,4.5142,4.5416,4.5416,4.5791,4.6292,4.6525,4.6597,4.6757,4.75,4.7311,4.7102,4.7807,4.7957,4.8012,4.8251,4.8306,4.8306,4.8306,4.8306,4.8306,4.8306,4.8306,4.8306,4.8306,4.8104,4.7957,4.7957,4.7737,4.7628,4.7739,4.7739,4.7794,4.7883,4.7794,4.7794,4.7918,4.7918,4.7653,4.7024,4.7106,4.7405,4.798,4.8105,4.8408,4.8907,4.9188,4.9188,4.8935,4.9484,4.9654,4.3104,4.4316,0.0,4.5586,4.5586,4.5586,4.5586,0.0,0.0,0.0,4.5495,4.5495,4.5769,4.5978,4.6461,4.7597,4.7937,4.8356,4.9152,4.8897,4.8657,4.8657,4.8458,4.8306,4.8306,4.8306,4.8306,4.8306,4.8306,4.8306,4.8306,4.8306,4.8306,4.8306,4.8306,4.8306,4.8306,4.8306,4.8306,4.8306,4.8306,4.7915,4.7226,4.7457,4.715,4.6361,4.6049,4.5498,4.4783,4.398,4.3505,4.3244,4.2936,4.2817,4.2831,4.3147,4.3534,4.4014,4.4299,4.4723,4.5076,4.5076,4.5356,4.5676,4.5676,4.6012,4.6383,4.6383,4.6383,4.6571,4.7237,4.7385,4.7572,4.8172,4.8306,4.8306,4.8306,4.8306,4.8306,4.8306,4.8306,4.8306,4.8306,4.8306,4.8306,4.8306,4.8306,4.8306,4.8306,4.8306,4.8306,4.8306,4.8306,4.8306,4.8306,4.8306,4.8306,4.8306,4.8306,4.8034,4.7546,4.7679,4.7977,4.8476,4.8644,4.8907,4.9265,4.9504,4.9504,4.9265,4.9924,5.0183,4.3104,4.4316,4.5586,4.5586,4.5586,0.0,4.5568,4.5549,4.5549,4.5549,4.5302,4.5052,4.5011,4.5363,4.5884,4.6666,4.7205,4.7806,4.8606,4.8495,4.8306,4.8306,4.8306,4.8306,4.8306,4.8306,4.8306,4.8306,4.8306,4.8306,4.8306,4.8306,4.8306,4.8306,4.8306,4.8306,4.8306,4.8306,4.8306,4.8306,4.8306,4.8035,4.7488,4.7977,4.7787,4.6998,4.6193,4.5524,4.4975,4.4201,4.3555,4.2935,4.2288,4.2387,4.2917,4.2988,4.3456,4.4036,4.4082,4.4576,4.5229,4.5229,4.5705,4.624,4.624,4.624,4.624,4.624,4.624,4.6383,4.7044,4.7299,4.747,4.8075,4.8267,4.8306,4.8306,4.8306,4.8306,4.8306,4.8306,4.8306,4.8306,4.8306,4.8306,4.8306,4.8306,4.8306,4.8306,4.8306,4.8306,4.8306,4.8306,4.8306,4.8306,4.8306,4.8306,4.8306,4.8306,4.8306,4.8306,4.8657,4.8847,4.8847,4.9202,4.9202,4.8847,4.8897,4.8897,4.893,4.9356,4.9746,4.3104,4.4316,0.0,4.5586,4.5586,4.5531,4.5282,4.5201,4.5201,4.5201,4.4943,4.4606,4.4271,4.4306,4.4568,4.5109,4.5803,4.6561,4.7371,4.7978,4.8306,4.8306,4.8306,4.8306,4.8306,4.8306,4.8306,4.8306,4.8306,4.8306,4.8306,4.8306,4.8306,4.8306,4.8306,4.8306,4.8306,4.8306,4.8306,4.8306,4.8306,4.821,4.8075,4.7756,4.7191,4.6516,4.5713,4.5285,4.508,4.4316,4.3908,4.3756,4.358,4.3377,4.3175,4.3592,4.3992,4.4387,4.4783,4.515,4.5438,4.5438,4.5234,4.4998,4.4998,4.4998,4.4998,4.4998,4.4998,4.5142,4.5749,4.6257,4.6756,4.7428,4.7955,4.8306,4.8306,4.8306,4.8306,4.8306,4.8306,4.8306,4.8306,4.8306,4.8306,4.8306,4.8306,4.8306,4.8306,4.8306,4.8306,4.8306,4.8306,4.8306,4.8306,4.8306,4.8306,4.8306,4.8306,4.8306,4.8306,4.8402,4.8421,4.8421,4.8513,4.8513,4.8421,4.8744,4.8897,4.893,4.9645,5.0019,4.3104,0.0,0.0,4.5586,0.0,4.5322,4.514,4.483,4.4587,4.4587,4.4428,4.4233,4.4028,4.3881,4.397,4.4597,4.5057,4.5755,4.6948,4.748,4.7884,4.8251,4.8306,4.8306,4.8306,4.8306,4.8306,4.8306,4.8306,4.8306,4.8306,4.8306,4.8306,4.8306,4.8306,4.8306,4.8306,4.8306,4.8153,4.7856,4.7856,4.7554,4.6955,4.7299,4.7194,4.6829,4.6418,4.5921,4.5299,4.4841,4.4243,4.3677,4.3346,4.32,4.3305,4.3611,4.4061,4.4542,4.482,4.4992,4.5089,4.5089,4.4869,4.4587,4.4587,4.4587,4.4587,4.4587,4.4587,4.472,4.532,4.5732,4.6161,4.6756,4.7614,4.8306,4.8306,4.8306,4.8306,4.8306,4.8306,4.8306,4.8306,4.8306,4.8306,4.8306,4.8306,4.8306,4.8306,4.8306,4.8306,4.8306,4.8306,4.8306,4.8306,4.8306,4.8306,4.8306,4.8306,4.8306,4.8306,4.8306,4.8306,4.8306,4.8306,4.8306,4.8306,4.8513,4.8586,4.8621,4.9445,4.98,4.3104,0.0,4.5586,4.5586,4.5342,0.0,4.503,4.4508,4.3967,4.3924,4.3893,4.3893,4.3893,4.3712,4.3718,4.4378,4.4617,4.5223,4.6709,4.7021,4.7407,4.8214,4.8306,4.8306,4.8306,4.8306,4.8306,4.8306,4.8306,4.8306,4.8306,4.8306,4.8306,4.8306,4.8306,4.8267,4.8172,4.8132,4.7838,4.7237,4.7237,4.6682,4.5699,4.6635,4.7017,4.6927,4.6927,4.6305,4.5321,4.5215,4.4541,4.3555,4.2929,4.3064,4.3623,4.3623,4.4028,4.4587,4.4587,4.4587,4.4587,4.4587,4.4587,4.4587,4.4587,4.4587,4.4587,4.4587,4.4587,4.472,4.5232,4.5407,4.5648,4.6161,4.7132,4.8017,4.8114,4.8132,4.8172,4.8267,4.8306,4.8306,4.8306,4.8306,4.8306,4.8306,4.8306,4.8306,4.8306,4.8306,4.8306,4.8306,4.8306,4.8306,4.8306,4.8306,4.8306,4.8306,4.8306,4.8306,4.8306,4.8306,4.8306,4.8306,4.8306,4.8306,4.8306,4.8306,4.8344,4.8421,4.9094,4.9445,4.3104,0.0,4.5586,0.0,4.5342,4.5011,0.0,0.0,4.3924,4.3631,4.3582,4.3582,4.3582,4.3513,4.3534,4.3626,4.425,4.5021,4.5938,4.6673,4.7407,4.8214,4.8306,4.8306,4.8306,4.8306,4.8306,4.8306,4.8306,4.8306,4.8306,4.8306,4.8306,4.8306,4.8306,4.8035,4.753,4.753,4.7194,4.6524,4.6524,4.643,4.6288,4.5915,4.5459,4.4961,4.4961,4.4869,4.4703,4.4712,4.4623,4.4418,4.4316,4.4333,4.4418,4.4418,4.4485,4.4587,4.4587,4.4587,4.4587,4.4587,4.4587,4.4587,4.4587,4.4587,4.4587,4.4587,4.4587,4.4626,4.472,4.5089,4.5494,4.5597,4.6161,4.6801,4.7385,4.753,4.7656,4.821,4.8306,4.8306,4.8306,4.8306,4.8306,4.8306,4.8306,4.8306,4.8306,4.8306,4.8306,4.8306,4.8306,4.8306,4.8306,4.8306,4.8306,4.8306,4.8306,4.8306,4.8306,4.8306,4.8306,4.8306,4.8306,4.8306,4.8306,4.8306,4.8477,4.8829,4.893,4.9171,4.3528,4.4662,4.5549,0.0,4.5074,4.4707,4.4346,4.3974,4.3679,4.3548,4.3497,4.3497,4.3497,4.3497,4.3497,4.3497,4.3791,4.4305,4.5112,4.592,4.6746,4.7535,4.8031,4.8306,4.8306,4.8306,4.8306,4.8306,4.8306,4.8306,4.8306,4.8306,4.8172,4.7797,4.7797,4.747,4.6864,4.6864,4.6524,4.5865,4.5545,4.5407,4.5355,4.5142,4.5052,4.5089,4.5089,4.4906,4.4626,4.4944,4.4906,4.4587,4.4587,4.4587,4.4587,4.4587,4.4587,4.4587,4.4587,4.4587,4.4587,4.4587,4.4587,4.4587,4.4587,4.4587,4.4587,4.4587,4.4587,4.4587,4.4587,4.4814,4.4998,4.4998,4.5178,4.5545,4.6209,4.6589,4.7044,4.7656,4.7797,4.7897,4.8249,4.8306,4.8306,4.8306,4.8306,4.8306,4.8306,4.8306,4.8306,4.8306,4.8306,4.8306,4.8306,4.8306,4.8306,4.8306,4.8306,4.8306,4.8306,4.8306,4.8306,4.8306,4.8306,4.8306,4.8306,4.8306,4.8402,4.8568,4.8813,4.8978,0.0,0.0,4.5381,4.5052,4.4707,4.4392,0.0,4.3758,4.3497,4.3497,4.3497,4.3497,4.3497,4.3497,4.3497,4.3497,4.3497,4.3773,4.4599,4.5388,4.6195,4.7021,4.7829,4.8306,4.8306,4.8306,4.8306,4.8306,4.8306,4.8306,4.8306,4.8153,4.7838,4.7428,4.7237,4.6819,4.6192,4.6014,4.5732,4.5284,4.4814,4.4587,4.4587,4.4587,4.4869,4.5267,4.5267,4.4998,4.4626,4.5089,4.4998,4.4587,4.4587,4.4587,4.4587,4.4587,4.4587,4.4587,4.4587,4.4587,4.4587,4.4587,4.4587,4.4587,4.4587,4.4587,4.4587,4.4587,4.4587,4.4587,4.4587,4.4587,4.4587,4.4587,4.4587,4.4776,4.5372,4.5965,4.6618,4.7281,4.7385,4.7572,4.821,4.8306,4.8306,4.8306,4.8306,4.8306,4.8306,4.8306,4.8306,4.8306,4.8306,4.8306,4.8306,4.8306,4.8306,4.8306,4.8306,4.8306,4.8306,4.8306,4.8306,4.8306,4.8306,4.8306,4.8306,4.8306,4.8306,4.8306,4.8604,4.8744,0.0,4.4469,0.0,4.4707,4.4337,4.4046,4.3998,4.3758,4.3497,4.3497,4.3497,4.3497,4.3497,4.3497,4.3497,4.3497,4.3497,4.3773,4.4599,4.5388,4.6195,4.7021,4.7829,4.8306,4.8306,4.8306,4.8306,4.8306,4.8306,4.8306,4.8306,4.7756,4.7428,4.7385,4.6756,4.6143,4.5545,4.4998,4.4682,4.4626,4.4626,4.4587,4.4587,4.4587,4.4626,4.4626,4.4626,4.4626,4.457,4.4626,4.4626,4.4587,4.4587,4.4587,4.4587,4.4587,4.4587,4.4587,4.4587,4.4587,4.4587,4.4587,4.4587,4.4587,4.4587,4.4587,4.4587,4.4587,4.4587,4.4587,4.4587,4.4587,4.4587,4.4587,4.4587,4.4776,4.5372,4.5965,4.6618,4.7281,4.7385,4.7572,4.821,4.8306,4.8306,4.8306,4.8306,4.8306,4.8306,4.8306,4.8306,4.8306,4.8306,4.8306,4.8306,4.8306,4.8306,4.8306,4.8306,4.8306,4.8306,4.8306,4.8306,4.8306,4.8306,4.8306,4.8306,4.8306,4.8306,4.8306,4.8344,4.8344,0.0,0.0,0.0,4.4214,4.4087,4.3955,4.3726,4.3597,4.3497,4.3497,4.3497,4.3497,4.3497,4.3497,4.3497,4.3497,4.3497,4.3589,4.3883,4.4617,4.5443,4.6232,4.7058,4.7737,4.8251,4.7937,4.7897,4.8267,4.7554,4.7281,4.7715,4.7088,4.6571,4.6209,4.5982,4.5545,4.4906,4.472,4.4587,4.4587,4.4587,4.4587,4.4587,4.4587,4.4587,4.4587,4.4587,4.4587,4.4587,4.4587,4.4587,4.4587,4.4587,4.4587,4.4587,4.4587,4.4587,4.4587,4.4587,4.4587,4.4587,4.4587,4.4587,4.4587,4.4587,4.4587,4.4587,4.4587,4.4587,4.4587,4.4587,4.4587,4.4587,4.4587,4.4587,4.4682,4.4869,4.5089,4.5407,4.6081,4.6161,4.6353,4.6999,4.7088,4.7219,4.7656,4.7715,4.7838,4.8267,4.8306,4.8306,4.8306,4.8306,4.8306,4.8306,4.8306,4.8306,4.8306,4.8306,4.8306,4.8306,4.8306,4.8306,4.8306,4.8306,4.8306,4.8306,4.8306,4.8306,4.8306,4.8306,4.8306,4.1886,0.0,0.0,0.0,4.3632,4.3772,4.3548,4.3497,4.3497,4.3497,4.3497,4.3497,4.3497,4.3497,4.3497,4.3497,4.3497,4.3497,4.3497,4.4034,4.471,4.5495,4.6124,4.6826,4.7565,4.7281,4.7237,4.7638,4.6892,4.6618,4.7044,4.643,4.5833,4.5232,4.5178,4.4998,4.457,4.4587,4.4587,4.4587,4.4587,4.4587,4.4587,4.4587,4.4587,4.4587,4.4587,4.4587,4.4587,4.4587,4.4587,4.4587,4.4587,4.4587,4.4587,4.4587,4.4587,4.4587,4.4587,4.4587,4.4587,4.4587,4.4587,4.4587,4.4587,4.4587,4.4587,4.4587,4.4587,4.4587,4.4587,4.4587,4.4587,4.4587,4.4587,4.4587,4.4587,4.4587,4.4759,4.5355,4.5511,4.5681,4.6288,4.6383,4.6618,4.7299,4.7385,4.7614,4.821,4.8306,4.8306,4.8306,4.8306,4.8306,4.8306,4.8306,4.8306,4.8306,4.8306,4.8306,4.8306,4.8306,4.8306,4.8306,4.8306,4.8306,4.8306,4.8306,4.8306,4.8306,4.8306,4.8306,0.0,0.0,0.0,0.0,4.2873,4.3442,4.3442,4.3461,4.3497,4.3497,4.3497,4.3497,4.3479,4.3497,4.3479,4.3479,4.3497,4.3497,4.3497,4.3686,4.4119,4.4854,4.5124,4.5574,4.6307,4.6365,4.6383,4.6383,4.6383,4.6336,4.6383,4.5783,4.5178,4.4626,4.4587,4.4587,4.4587,4.4587,4.4587,4.4587,4.4587,4.4587,4.4587,4.4587,4.4587,4.4587,4.4587,4.4587,4.4587,4.4587,4.4587,4.4587,4.4587,4.4587,4.4587,4.4587,4.4587,4.4587,4.4587,4.4587,4.4587,4.4587,4.4587,4.4587,4.4587,4.4587,4.4587,4.4587,4.4587,4.4587,4.4587,4.4587,4.4587,4.4587,4.4587,4.4587,4.4587,4.4587,4.4759,4.5372,4.5459,4.5648,4.624,4.6336,4.6571,4.7299,4.7385,4.7614,4.821,4.8306,4.8306,4.8306,4.8306,4.8306,4.8306,4.8306,4.8306,4.8306,4.8306,4.8306,4.8306,4.8306,4.8306,4.8306,4.8306,4.8306,4.8306,4.8306,4.8306,4.8306,4.8306,4.8306,4.0722,0.0,0.0,0.0,0.0,0.0,4.2635,4.3075,4.3497,4.3497,4.3497,4.3375,4.2976,4.325,4.3375,4.2976,4.2939,4.2939,4.2939,4.2602,4.2668,4.3451,4.4085,4.4731,4.5556,4.5681,4.5915,4.6383,4.5597,4.5267,4.5732,4.5178,4.4759,4.4643,4.4587,4.4587,4.4587,4.4587,4.4587,4.4587,4.4587,4.4587,4.4587,4.4587,4.4587,4.4587,4.4587,4.4587,4.4587,4.4587,4.4587,4.4587,4.4587,4.4587,4.4587,4.4587,4.4587,4.4587,4.4587,4.4587,4.4587,4.4587,4.4587,4.4587,4.4587,4.4587,4.4587,4.4587,4.4587,4.4587,4.4587,4.4587,4.4587,4.4587,4.4587,4.4587,4.4587,4.4587,4.4626,4.4814,4.4869,4.4906,4.5089,4.5089,4.5459,4.6524,4.6664,4.7088,4.8172,4.8306,4.8306,4.8306,4.8306,4.8306,4.8306,4.8306,4.8306,4.8306,4.8306,4.8306,4.8306,4.8306,4.8306,4.8306,4.8306,4.8306,4.8306,4.8306,4.8306,4.8306,4.8306,4.8306,0.0,0.0,0.0,0.0,0.0,0.0,4.2213,4.2653,4.3075,4.3424,4.3497,4.3339,4.2788,4.2939,4.2958,4.2422,4.2121,4.2121,4.2616,4.1979,4.1727,4.2517,4.2777,4.3301,4.4411,4.4561,4.4923,4.5613,4.4998,4.4776,4.5089,4.4759,4.4587,4.4587,4.4587,4.4587,4.4587,4.4587,4.4587,4.4587,4.4587,4.4587,4.4587,4.4587,4.4587,4.4587,4.4587,4.4587,4.4587,4.4587,4.4587,4.4587,4.4587,4.4587,4.4587,4.4587,4.4587,4.4587,4.4587,4.4587,4.4587,4.4587,4.4587,4.4587,4.4587,4.4587,4.4587,4.4587,4.4587,4.4587,4.4587,4.4587,4.4587,4.4587,4.4587,4.4587,4.4587,4.4587,4.4587,4.4587,4.4587,4.4587,4.4587,4.4587,4.4998,4.624,4.6383,4.6847,4.8132,4.8306,4.8306,4.8306,4.8306,4.8306,4.8306,4.8306,4.8306,4.8306,4.8306,4.8306,4.8306,4.8306,4.8306,4.8306,4.8306,4.8306,4.8306,4.8306,4.8306,4.8306,4.8306,4.8306,0.0,0.0,0.0,0.0,4.0327,0.0,4.1779,4.1983,4.2223,4.301,4.3193,4.305,4.2598,4.2559,4.2382,4.181,4.1268,4.1251,4.2342,4.1534,4.1103,4.1781,4.1477,4.1728,4.3047,4.325,4.3623,4.4401,4.4536,4.4587,4.4587,4.4587,4.4587,4.4587,4.4587,4.4587,4.4587,4.4587,4.4587,4.4587,4.4587,4.4587,4.4587,4.4587,4.4587,4.4587,4.4587,4.4587,4.4587,4.4587,4.4587,4.4587,4.4587,4.4587,4.4587,4.4587,4.4587,4.4587,4.4587,4.4587,4.4587,4.4587,4.4587,4.4587,4.4587,4.4587,4.4587,4.4587,4.4587,4.4587,4.4587,4.4587,4.4587,4.4587,4.4587,4.4587,4.4587,4.4587,4.4587,4.4587,4.4587,4.4587,4.4587,4.4587,4.4998,4.6143,4.6288,4.671,4.7919,4.8075,4.8114,4.8172,4.821,4.821,4.8306,4.8306,4.8306,4.8306,4.8306,4.8306,4.8306,4.8306,4.8306,4.8306,4.8306,4.8306,4.8306,4.8306,4.8306,4.8306,4.8306,4.8306,0.0,0.0,0.0,3.8927,3.9203,0.0,3.9694,3.9931,4.0349,4.1078,4.1256,4.1233,4.1235,4.1664,4.1768,4.1161,4.0995,4.0995,4.1223,4.0672,4.0305,4.0458,4.0934,4.1322,4.161,4.2168,4.2828,4.3589,4.4215,4.4587,4.4587,4.4587,4.4587,4.4587,4.4587,4.4587,4.4587,4.4587,4.4587,4.4587,4.4587,4.4587,4.4587,4.4587,4.4587,4.4587,4.4587,4.4587,4.4587,4.4587,4.4587,4.4587,4.4587,4.4587,4.4587,4.4587,4.4587,4.4587,4.4587,4.4587,4.4587,4.4587,4.4587,4.4587,4.4587,4.4587,4.4587,4.4587,4.4587,4.4587,4.4587,4.4587,4.4587,4.4587,4.4587,4.4587,4.4587,4.4587,4.4587,4.4587,4.4587,4.4587,4.4587,4.4587,4.4869,4.5545,4.5699,4.5915,4.6664,4.6756,4.6999,4.753,4.7572,4.7756,4.8267,4.8306,4.8306,4.8306,4.8306,4.8306,4.8306,4.8306,4.8306,4.8306,4.8306,4.8306,4.8306,4.8306,4.8306,4.8306,4.8306,4.8306,3.9289,3.9017,3.8707,3.8707,3.8591,0.0,0.0,3.9045,3.9235,3.9979,4.0458,4.0641,4.0398,4.0951,4.1213,4.0577,4.0497,4.0497,4.0497,4.0286,4.007,4.007,4.0409,4.0798,4.117,4.1525,4.2066,4.2811,4.3572,4.3995,4.3995,4.4367,4.4587,4.4587,4.4587,4.4587,4.4587,4.4587,4.4587,4.4587,4.4587,4.4587,4.4587,4.4587,4.4587,4.4587,4.4587,4.4587,4.4587,4.4587,4.4587,4.4587,4.4587,4.4587,4.4587,4.4587,4.4587,4.4587,4.4587,4.4587,4.4587,4.4587,4.4587,4.4587,4.4587,4.4587,4.4587,4.4587,4.4587,4.4587,4.4587,4.4587,4.4587,4.4587,4.4587,4.4587,4.4587,4.4587,4.4587,4.4587,4.4587,4.4587,4.4587,4.4587,4.4814,4.5407,4.5511,4.5732,4.6336,4.6383,4.6664,4.7342,4.7385,4.7656,4.8267,4.8306,4.8306,4.8306,4.8306,4.8306,4.8306,4.8306,4.8306,4.8306,4.8306,4.8306,4.8306,4.8306,4.8306,4.8306,4.8306,4.8306,3.9099,3.8894,3.8676,3.8578,3.815,3.7917,0.0,0.0,0.0,3.8878,3.9511,3.9816,3.9524,4.006,4.0401,3.9781,3.9884,4.002,3.9884,3.9986,4.007,4.007,4.007,4.0307,4.0933,4.1119,4.1457,4.2033,4.2777,4.3267,4.3403,4.4012,4.4418,4.4587,4.4587,4.4587,4.4587,4.4587,4.4587,4.4587,4.4587,4.4587,4.4587,4.4587,4.4587,4.4587,4.4587,4.4587,4.4587,4.4587,4.4587,4.4587,4.4587,4.4587,4.4587,4.4587,4.4587,4.4587,4.4587,4.4587,4.4587,4.4587,4.4587,4.4587,4.4587,4.4587,4.4587,4.4587,4.4587,4.4587,4.4587,4.4587,4.4587,4.4587,4.4587,4.4587,4.4587,4.4587,4.4587,4.4587,4.4587,4.4587,4.4587,4.4587,4.4776,4.5284,4.532,4.5494,4.6014,4.6046,4.6305,4.6955,4.715,4.747,4.8075,4.821,4.8306,4.8306,4.8306,4.8306,4.8306,4.8306,4.8306,4.8306,4.8306,4.8306,4.8306,4.8306,4.8306,4.8306,4.8306,4.8306,3.9036,3.8894,3.8596,3.8099,3.7614,3.717,3.6788,0.0,3.6168,3.6933,0.0,3.7427,3.8031,0.0,0.0,3.8261,3.9242,3.9851,3.9208,3.9681,4.007,4.007,4.007,4.0104,4.0206,4.0815,4.1238,4.1322,4.2016,4.2709,4.3386,4.3504,4.3859,4.4553,4.4587,4.4587,4.4587,4.4587,4.4587,4.4587,4.4587,4.4587,4.4587,4.4587,4.4587,4.4587,4.4587,4.4587,4.4587,4.4587,4.4587,4.4587,4.4587,4.4587,4.4587,4.4587,4.4587,4.4587,4.4587,4.4587,4.4587,4.4587,4.4587,4.4587,4.4587,4.4587,4.4587,4.4587,4.4587,4.4587,4.4587,4.4587,4.4587,4.4587,4.4587,4.4587,4.4587,4.4587,4.4587,4.4587,4.4587,4.4587,4.4587,4.4587,4.4626,4.4665,4.472,4.472,4.4814,4.4814,4.5052,4.5648,4.6192,4.6756,4.7428,4.7977,4.8306,4.8306,4.8306,4.8306,4.8306,4.8306,4.8306,4.8306,4.8306,4.8306,4.8306,4.8306,4.8306,4.8306,4.8306,4.8306,3.8844,3.8773,3.8578,3.8013,3.7542,3.7076,3.6539,3.5985,3.5723,3.6045,0.0,0.0,0.0,0.0,0.0,0.0,3.9056,3.9478,3.9597,3.9884,4.007,4.007,4.007,4.007,4.007,4.0358,4.0544,4.0544,4.1238,4.1796,4.2117,4.254,4.2912,4.3234,4.325,4.347,4.391,4.391,4.413,4.4587,4.4587,4.4587,4.4587,4.4587,4.4587,4.4587,4.4587,4.4587,4.4587,4.4587,4.4587,4.4587,4.4587,4.4587,4.4587,4.4587,4.4587,4.4587,4.4587,4.4587,4.4587,4.4587,4.4587,4.4587,4.4587,4.4253,4.3873,4.3873,4.3873,4.3873,4.3873,4.4196,4.4587,4.4587,4.4587,4.4587,4.4587,4.4587,4.4587,4.4587,4.4587,4.4587,4.4587,4.4587,4.4587,4.4587,4.4587,4.4587,4.4587,4.4587,4.4814,4.5459,4.6063,4.6524,4.6819,4.7428,4.7797,4.7797,4.8132,4.8306,4.8306,4.8306,4.8306,4.8306,4.8306,4.8306,4.8306,4.8306,4.8306,4.8306,4.8306,4.8306,3.8707,3.8578,3.835,3.7843,3.736,3.6843,3.6291,3.5898,3.5622,3.5622,3.6062,0.0,0.0,0.0,3.7702,3.8024,0.0,3.8886,3.9411,3.9648,3.9851,4.0054,4.007,4.007,4.007,4.007,4.007,4.007,4.0595,4.0984,4.1187,4.1711,4.2083,4.2286,4.2286,4.2557,4.3098,4.3115,4.3386,4.3944,4.3944,4.3944,4.3944,4.3944,4.3944,4.3944,4.3944,4.3944,4.3961,4.4181,4.4265,4.4282,4.4485,4.4587,4.4587,4.4587,4.4587,4.4587,4.4587,4.4587,4.457,4.4327,4.4253,4.4196,4.3989,4.3426,4.2909,4.2909,4.3108,4.3306,4.3306,4.3948,4.4587,4.4587,4.4587,4.4587,4.4587,4.4587,4.4587,4.4587,4.4587,4.4587,4.4587,4.4587,4.4587,4.4587,4.4587,4.4587,4.4587,4.4587,4.4776,4.5232,4.5783,4.6143,4.6143,4.6756,4.7194,4.7385,4.7977,4.8306,4.8306,4.8306,4.8306,4.8306,4.8306,4.8306,4.8306,4.8306,4.8306,4.8306,4.8306,4.8306,3.8707,3.83,3.779,3.7323,3.6843,3.6308,3.5739,3.5622,3.5622,3.5622,3.5639,3.5656,3.5656,3.6282,3.6586,0.0,0.0,0.0,0.0,3.8582,3.9292,4.0003,4.007,4.007,4.007,4.007,4.007,4.007,4.0104,4.0443,4.117,4.1221,4.1559,4.2269,4.2286,4.2303,4.2337,4.2337,4.2337,4.2354,4.2354,4.2354,4.2354,4.2354,4.2354,4.2354,4.2354,4.2354,4.2422,4.3149,4.3453,4.3538,4.4282,4.4587,4.4587,4.4587,4.4587,4.4587,4.4587,4.4587,4.444,4.3621,4.3366,4.3169,4.2332,4.2062,4.2062,4.2062,4.2645,4.3306,4.3306,4.3948,4.4587,4.4587,4.4587,4.4587,4.4587,4.4587,4.4587,4.4587,4.4587,4.4587,4.4587,4.4587,4.4587,4.4587,4.4587,4.4587,4.4587,4.4587,4.4626,4.4626,4.5196,4.5511,4.5511,4.6094,4.671,4.7342,4.7977,4.8306,4.8306,4.8306,4.8306,4.8306,4.8306,4.8306,4.8306,4.8306,4.8306,4.8306,4.8306,4.8306,3.856,3.8578,3.8234,3.7414,3.7058,3.6684,3.581,3.5622,3.5622,3.5622,3.5622,3.5622,3.5622,3.5471,0.0,0.0,0.0,0.0,0.0,3.7852,3.8419,3.8583,3.8591,3.8761,3.9262,3.9315,3.9542,4.007,4.007,4.0189,4.0443,4.046,4.0578,4.0815,4.0815,4.1068,4.1576,4.1576,4.1813,4.2286,4.2286,4.2286,4.2286,4.2286,4.2286,4.2286,4.2286,4.2286,4.2303,4.2574,4.2675,4.2743,4.3521,4.3809,4.3876,4.4384,4.4587,4.4514,4.3931,4.335,4.2831,4.252,4.2458,4.2379,4.2062,4.1609,4.1147,4.1147,4.1804,4.2458,4.2458,4.3545,4.4587,4.4587,4.4587,4.4587,4.4587,4.4587,4.4587,4.4587,4.4587,4.4587,4.4587,4.4587,4.4587,4.4587,4.4587,4.4587,4.4587,4.4587,4.4587,4.4587,4.5142,4.532,4.4961,4.5815,4.6664,4.7342,4.7977,4.8306,4.8306,4.8306,4.8306,4.8306,4.8306,4.8306,4.8306,4.8306,4.86,4.915,4.915,4.915,3.8046,3.7995,3.7602,3.7288,3.6904,3.644,3.5783,3.5622,3.5622,3.5622,3.5622,3.5622,3.5622,3.5253,0.0,0.0,0.0,0.0,0.0,3.6474,3.6864,3.698,3.7991,3.8707,3.8854,3.9139,3.9542,4.007,4.007,4.007,4.007,4.007,4.007,4.007,4.007,4.0307,4.0798,4.0798,4.1035,4.1508,4.1508,4.1508,4.1508,4.1508,4.1508,4.1508,4.1508,4.1508,4.1525,4.1796,4.1914,4.1982,4.2726,4.3183,4.3521,4.4282,4.4587,4.4457,4.3621,4.2909,4.2395,4.1739,4.1543,4.1478,4.1162,4.0706,4.0193,3.9948,4.0691,4.148,4.1227,4.2635,4.4138,4.4138,4.4384,4.4587,4.4587,4.4587,4.4587,4.4587,4.4587,4.4587,4.4587,4.4587,4.4587,4.4587,4.4587,4.4587,4.4587,4.4587,4.4587,4.4587,4.4961,4.5052,4.4626,4.5681,4.6571,4.6999,4.7838,4.8306,4.8306,4.8306,4.8306,4.8306,4.8306,4.8453,4.8765,4.8765,4.9187,5.0013,5.0013,5.0178]}]]